[[{"header":{"parameterUnit":"m.s-1","parameterCategory":1,"la1":31.0,"la2":29.5877,"lo1":-88.7671,"lo2":-86.6584,"dy":0.0162,"dx":0.0185,"nx":115,"ny":88,"refTime":"2024-09-04T00:00:00:Z","depth":0,"parameterNumber":2,"parameterNumberName":"U-component_of_WINDS"},"data":[0.0,0.0,0.0,0.0,0.0,0.0,0.0,0.0,0.0,0.0,0.0,0.0,0.0,0.0,0.0,0.0,0.0,0.0,0.0,0.0,0.0,0.0,0.0,0.0,0.0,0.0,0.0,0.0,0.0,0.0,0.0,0.0,0.0,0.0,0.0,0.0,0.0,0.0,0.0,0.0,0.0,0.0,0.0,0.0,0.0,0.0,0.0,0.0,0.0,0.0,0.0,0.0,0.0,0.0,0.0,0.0,0.0,0.0,0.0,0.0,0.0,0.0,0.0,0.0,0.0,0.0,0.0,0.0,0.0,0.0,0.0,0.0,0.0,0.0,0.0,0.0,0.0,0.0,0.0,0.0,0.0,0.0,0.0,0.0,0.0,0.0,0.0,0.0,0.0,0.0,0.0,0.0,0.0,0.0,0.0,0.0,0.0,0.0,0.0,0.0,0.0,0.0,0.0,0.0,0.0,0.0,0.0,0.0,0.0,0.0,0.0,0.0,0.0,0.0,0.0,0.0,0.0,0.0,0.0,0.0,0.0,0.0,0.0,0.0,0.0,0.0,0.0,0.0,0.0,0.0,0.0,0.0,0.0,0.0,0.0,0.0,0.0,0.0,0.0,0.0,0.0,0.0,0.0,0.0,0.0,0.0,0.0,0.0,0.0,0.0,0.0,0.0,0.0,0.0,0.0,0.0,0.0,0.0,0.0,0.0,0.0,0.0,0.0,0.0,0.0,0.0,0.0,0.0,0.0,0.0,0.0,0.0,0.0,0.0,0.0,0.0,0.0,0.0,0.0,0.0,0.0,0.0,0.0,0.0,0.0,0.0,0.0,0.0,0.0,0.0,0.0,0.0,0.0,0.0,0.0,0.0,0.0,0.0,0.0,0.0,0.0,0.0,0.0,0.0,0.0,0.0,0.0,0.0,0.0,0.0,0.0,0.0,0.0,0.0,0.0,0.0,0.0,0.0,0.0,0.0,0.0,0.0,0.0,0.0,0.0,0.0,0.0,0.0,0.0,0.0,0.0,0.0,0.0,0.0,0.0,0.0,0.0,0.0,0.0,0.0,0.0,0.0,0.0,0.0,0.0,0.0,0.0,0.0,0.0,0.0,0.0,0.0,0.0,0.0,0.0,0.0,0.0,0.0,0.0,0.0,0.0,0.0,0.0,0.0,0.0,0.0,0.0,0.0,0.0,0.0,0.0,0.0,0.0,0.0,0.0,0.0,0.0,0.0,0.0,0.0,0.0,0.0,0.0,0.0,0.0,0.0,0.0,0.0,0.0,0.0,0.0,0.0,0.0,0.0,0.0,0.0,0.0,0.0,0.0,0.0,0.0,0.0,0.0,0.0,0.0,0.0,0.0,0.0,0.0,0.0,0.0,0.0,0.0,0.0,0.0,0.0,0.0,0.0,0.0,0.0,0.0,0.0,0.0,0.0,0.0,0.0,0.0,0.0,0.0,0.0,0.0,0.0,0.0,0.0,0.0,0.0,0.0,0.0,0.0,0.0,0.0,0.0,0.0,0.0,0.0,0.0,0.0,0.0,0.0,0.0,0.0,0.0,0.0,0.0,0.0,0.0,0.0,0.0,0.0,0.0,0.0,0.0,0.0,0.0,0.0,0.0,0.0,0.0,0.0,0.0,0.0,0.0,0.0,0.0,0.0,0.0,0.0,0.0,0.0,0.0,0.0,0.0,0.0,0.0,0.0,0.0,0.0,0.0,0.0,0.0,0.0,0.0,0.0,0.0,0.0,0.0,0.0,0.0,0.0,0.0,0.0,0.0,0.0,0.0,0.0,0.0,0.0,0.0,0.0,0.0,0.0,0.0,0.0,0.0,0.0,0.0,0.0,0.0,0.0,0.0,0.0,0.0,0.0,0.0,0.0,0.0,0.0,0.0,0.0,0.0,0.0,0.0,0.0,0.0,0.0,0.0,0.0,0.0,0.0,0.0,0.0,0.0,0.0,0.0,0.0,0.0,0.0,0.0,0.0,0.0,0.0,0.0,0.0,0.0,0.0,0.0,0.0,0.0,0.0,0.0,0.0,0.0,0.0,0.0,0.0,0.0,0.0,0.0,0.0,0.0,0.0,0.0,0.0,0.0,0.0,0.0,0.0,0.0,0.0,0.0,0.0,0.0,0.0,0.0,0.0,0.0,0.0,0.0,0.0,0.0,0.0,0.0,0.0,0.0,0.0,0.0,0.0,0.0,0.0,0.0,0.0,0.0,0.0,0.0,0.0,0.0,0.0,0.0,0.0,0.0,0.0,0.0,0.0,0.0,0.0,0.0,0.0,0.0,0.0,0.0,0.0,0.0,0.0,0.0,0.0,0.0,0.0,0.0,0.0,0.0,0.0,0.0,0.0,0.0,0.0,0.0,0.0,0.0,0.0,0.0,0.0,0.0,0.0,0.0,0.0,0.0,0.0,0.0,0.0,0.0,0.0,0.0,0.0,0.0,0.0,0.0,0.0,0.0,0.0,0.0,0.0,0.0,0.0,0.0,0.0,0.0,0.0,0.0,0.0,0.0,0.0,0.0,0.0,0.0,0.0,0.0,0.0,0.0,0.0,0.0,0.0,0.0,0.0,0.0,0.0,0.0,0.0,0.0,0.0,0.0,0.0,0.0,0.0,0.0,0.0,0.0,0.0,0.0,0.0,0.0,0.0,0.0,0.0,0.0,0.0,0.0,0.0,0.0,0.0,0.0,0.0,0.0,0.0,0.0,0.0,0.0,0.0,0.0,0.0,0.0,0.0,0.0,0.0,0.0,0.0,0.0,0.0,0.0,0.0,0.0,0.0,0.0,0.0,0.0,0.0,0.0,0.0,0.0,0.0,0.0,0.0,0.0,0.0,0.0,0.0,0.0,0.0,0.0,0.0,0.0,0.0,0.0,0.0,0.0,0.0,0.0,0.0,0.0,0.0,0.0,0.0,0.0,0.0,0.0,0.0,0.0,0.0,0.0,0.0,0.0,0.0,0.0,0.0,0.0,0.0,0.0,0.0,0.0,0.0,0.0,0.0,0.0,0.0,0.0,0.0,0.0,0.0,0.0,0.0,0.0,0.0,0.0,0.0,0.0,0.0,0.0,0.0,0.0,0.0,0.0,0.0,0.0,0.0,0.0,0.0,0.0,0.0,0.0,0.0,0.0,0.0,0.0,0.0,0.0,0.0,0.0,0.0,0.0,0.0,0.0,0.0,0.0,0.0,0.0,0.0,0.0,0.0,0.0,0.0,0.0,0.0,0.0,0.0,0.0,0.0,0.0,0.0,0.0,0.0,0.0,0.0,0.0,0.0,0.0,0.0,0.0,0.0,0.0,0.0,0.0,0.0,0.0,0.0,0.0,0.0,0.0,0.0,0.0,0.0,0.0,0.0,0.0,0.0,0.0,0.0,0.0,0.0,0.0,0.0,0.0,0.0,0.0,0.0,0.0,0.0,0.0,0.0,0.0,0.0,0.0,0.0,0.0,0.0,0.0,0.0,0.0,0.0,0.0,0.0,0.0,0.0,0.0,0.0,0.0,0.0,0.0,0.0,0.0,0.0,0.0,0.0,0.0,0.0,0.0,0.0,0.0,0.0,0.0,0.0,0.0,0.0,0.0,0.0,0.0,0.0,0.0,0.0,0.0,0.0,0.0,0.0,0.0,0.0,0.0,0.0,0.0,0.0,0.0,0.0,0.0,0.0,0.0,0.0,0.0,0.0,0.0,0.0,0.0,0.0,0.0,0.0,0.0,0.0,0.0,0.0,0.0,0.0,0.0,0.0,0.0,0.0,0.0,0.0,0.0,0.0,0.0,0.0,0.0,0.0,0.0,0.0,0.0,0.0,0.0,0.0,0.0,0.0,0.0,0.0,0.0,0.0,0.0,0.0,0.0,0.0,0.0,0.0,0.0,0.0,0.0,0.0,0.0,0.0,0.0,0.0,0.0,0.0,0.0,0.0,0.0,0.0,0.0,0.0,0.0,0.0,0.0,0.0,0.0,0.0,0.0,0.0,0.0,0.0,0.0,0.0,0.0,0.0,0.0,0.0,0.0,0.0,0.0,0.0,0.0,0.0,0.0,0.0,0.0,0.0,0.0,0.0,0.0,0.0,0.0,0.0,0.0,0.0,0.0,0.0,0.0,0.0,0.0,0.0,0.0,0.0,0.0,0.0,0.0,0.0,0.0,0.0,0.0,0.0,0.0,0.0,0.0,0.0,0.0,0.0,0.0,0.0,0.0,0.0,0.0,0.0,0.0,0.0,0.0,0.0,0.0,0.0,0.0,0.0,0.0,0.0,0.0,1.6629,0.0,0.0,0.0,0.0,0.0,0.0,0.0,0.0,0.0,0.0,0.0,0.0,0.0,0.0,0.0,0.0,0.0,0.0,0.0,0.0,0.0,0.0,0.0,0.0,0.0,0.0,0.0,0.0,0.0,0.0,0.0,0.0,0.0,0.0,0.0,0.0,0.0,0.0,0.0,0.0,0.0,0.0,0.0,0.0,0.0,0.0,0.0,0.0,0.0,0.0,0.0,0.0,0.0,0.0,0.0,0.0,0.0,0.0,0.0,0.0,0.0,0.0,0.0,0.0,0.0,0.0,0.0,0.0,0.0,0.0,0.0,0.0,0.0,0.0,0.0,0.0,0.0,0.0,0.0,0.0,0.0,0.0,0.0,0.0,0.0,0.0,0.0,0.0,0.0,0.0,0.0,0.0,0.0,0.0,0.0,0.0,0.0,0.0,0.0,0.0,0.0,0.0,0.0,0.0,0.0,0.0,0.0,0.0,0.0,0.0,1.7773,1.7998,1.7598,1.7178,1.6726,0.0,0.0,0.0,0.0,0.0,0.0,0.0,0.0,0.0,0.0,0.0,0.0,0.0,0.0,0.0,0.0,0.0,0.0,0.0,0.0,0.0,0.0,0.0,0.0,0.0,0.0,0.0,0.0,0.0,0.0,0.0,0.0,0.0,0.0,0.0,0.0,0.0,0.0,0.0,0.0,0.0,0.0,0.0,0.0,0.0,0.0,0.0,0.0,0.0,0.0,0.0,0.0,0.0,0.0,0.0,0.0,0.0,0.0,0.0,0.0,0.0,0.0,0.0,0.0,0.0,0.0,0.0,0.0,0.0,0.0,0.0,0.0,0.0,0.0,0.0,0.0,0.0,0.0,0.0,0.0,0.0,0.0,0.0,0.0,0.0,0.0,0.0,0.0,0.0,0.0,0.0,0.0,0.0,0.0,0.0,0.0,0.0,0.0,0.0,0.0,0.0,0.0,0.0,0.0,0.0,0.0,0.0,0.0,0.0,0.0,0.0,0.0,1.7988,1.7568,1.7019,0.0,0.0,0.0,0.0,0.0,0.0,0.0,0.0,0.0,0.0,0.0,0.0,0.0,0.0,0.0,0.0,0.0,0.0,0.0,0.0,0.0,0.0,0.0,0.0,0.0,0.0,0.0,0.0,0.0,0.0,0.0,0.0,0.0,0.0,0.0,0.0,0.0,0.0,0.0,0.0,0.0,0.0,0.0,0.0,0.0,0.0,0.0,0.0,0.0,0.0,0.0,0.0,0.0,0.0,0.0,0.0,0.0,0.0,0.0,0.0,0.0,0.0,0.0,0.0,0.0,0.0,0.0,0.0,0.0,0.0,0.0,0.0,0.0,0.0,0.0,0.0,0.0,0.0,0.0,0.0,0.0,0.0,0.0,0.0,0.0,0.0,0.0,0.0,0.0,0.0,0.0,0.0,0.0,0.0,0.0,0.0,0.0,0.0,0.0,0.0,0.0,0.0,0.0,0.0,0.0,0.0,0.0,0.0,0.0,0.0,1.7983,1.9157,1.9147,0.0,1.7969,0.0,0.0,0.0,0.0,0.0,0.0,0.0,0.0,0.0,0.0,0.0,0.0,0.0,0.0,0.0,0.0,0.0,0.0,0.0,0.0,0.0,0.0,0.0,0.0,0.0,0.0,0.0,0.0,0.0,0.0,0.0,0.0,0.0,0.0,0.0,0.0,0.0,0.0,0.0,0.0,0.0,0.0,0.0,0.0,0.0,0.0,0.0,0.0,0.0,0.0,0.0,0.0,0.0,0.0,0.0,0.0,0.0,0.0,0.0,0.0,0.0,0.0,0.0,0.0,0.0,0.0,0.0,0.0,0.0,0.0,0.0,0.0,0.0,0.0,0.0,0.0,0.0,0.0,0.0,0.0,0.0,0.0,0.0,0.0,0.0,0.0,0.0,0.0,0.0,0.0,0.0,0.0,0.0,0.0,0.0,0.0,0.0,0.0,0.0,0.0,0.0,0.0,0.0,0.0,0.0,0.0,0.0,0.0,0.0,0.0,1.8125,1.8887,1.8662,1.8252,0.0,0.0,0.0,0.0,0.0,0.0,0.0,0.0,0.0,0.0,0.0,0.0,0.0,0.0,0.0,0.0,0.0,0.0,0.0,0.0,0.0,0.0,0.0,0.0,0.0,0.0,0.0,0.0,0.0,0.0,0.0,0.0,0.0,0.0,0.0,0.0,0.0,0.0,0.0,0.0,0.0,0.0,0.0,0.0,0.0,0.0,0.0,0.0,0.0,0.0,0.0,0.0,0.0,0.0,0.0,0.0,0.0,0.0,0.0,0.0,0.0,0.0,0.0,0.0,0.0,0.0,0.0,0.0,0.0,0.0,0.0,0.0,0.0,0.0,0.0,0.0,0.0,0.0,0.0,0.0,0.0,0.0,0.0,0.0,0.0,0.0,0.0,0.0,0.0,0.0,0.0,0.0,0.0,0.0,0.0,0.0,0.0,0.0,0.0,0.0,0.0,0.0,0.0,0.0,0.0,0.0,0.0,0.0,0.0,0.0,1.7881,1.8286,1.889,1.8701,1.8125,1.7236,0.0,0.0,0.0,0.0,0.0,0.0,0.0,0.0,0.0,0.0,0.0,0.0,0.0,0.0,0.0,0.0,0.0,0.0,0.0,0.0,0.0,0.0,0.0,0.0,0.0,0.0,0.0,0.0,0.0,0.0,0.0,0.0,0.0,0.0,0.0,0.0,0.0,0.0,0.0,0.0,0.0,0.0,0.0,0.0,0.0,0.0,0.0,0.0,0.0,0.0,0.0,0.0,0.0,0.0,0.0,0.0,0.0,0.0,0.0,0.0,0.0,0.0,0.0,0.0,0.0,0.0,0.0,0.0,0.0,0.0,0.0,0.0,0.0,0.0,0.0,0.0,0.0,0.0,0.0,0.0,0.0,0.0,0.0,0.0,0.0,0.0,0.0,0.0,0.0,0.0,0.0,0.0,0.0,0.0,0.0,0.0,0.0,0.0,0.0,0.0,0.0,0.0,0.0,0.0,0.0,0.0,0.0,0.0,0.0,1.8584,1.8594,1.9814,1.9796,1.8822,0.0,0.0,0.0,0.0,0.0,0.0,0.0,0.0,0.0,0.0,0.0,0.0,0.0,0.0,0.0,0.0,0.0,0.0,0.0,0.0,0.0,0.0,0.0,0.0,0.0,0.0,0.0,0.0,0.0,0.0,0.0,0.0,0.0,0.0,0.0,0.0,0.0,0.0,0.0,0.0,0.0,0.0,0.0,0.0,0.0,0.0,0.0,0.0,0.0,0.0,0.0,0.0,0.0,0.0,0.0,0.0,0.0,0.0,0.0,0.0,0.0,0.0,0.0,0.0,0.0,0.0,0.0,0.0,0.0,0.0,0.0,0.0,0.0,0.0,0.0,0.0,0.0,0.0,0.0,0.0,0.0,0.0,0.0,0.0,0.0,0.0,0.0,0.0,0.0,0.0,0.0,0.0,0.0,0.0,0.0,0.0,0.0,0.0,0.0,0.0,0.0,0.0,0.0,0.0,0.0,0.0,0.0,0.0,0.0,1.7012,1.7393,1.8623,2.0547,1.8861,1.7857,0.0,0.0,0.0,0.0,0.0,0.0,0.0,0.0,0.0,0.0,0.0,0.0,0.0,0.0,0.0,0.0,0.0,0.0,0.0,0.0,0.0,0.0,0.0,0.0,0.0,0.0,0.0,0.0,0.0,0.0,0.0,0.0,0.0,0.0,0.0,0.0,0.0,0.0,0.0,0.0,0.0,0.0,0.0,0.0,0.0,0.0,0.0,0.0,0.0,0.0,0.0,0.0,0.0,0.0,0.0,0.0,0.0,0.0,0.0,0.0,0.0,0.0,0.0,0.0,0.0,0.0,0.0,0.0,0.0,0.0,0.0,0.0,0.0,0.0,0.0,0.0,0.0,0.0,0.0,0.0,0.0,0.0,0.0,0.0,0.0,0.0,0.0,0.0,0.0,0.0,0.0,0.0,0.0,0.0,0.0,0.0,0.0,0.0,0.0,0.0,0.0,0.0,0.0,0.0,0.0,0.0,0.0,0.0,0.0,1.667,0.0,1.9277,0.0,1.8598,1.7408,0.0,0.0,0.0,0.0,0.0,0.0,0.0,0.0,0.0,0.0,0.0,0.0,0.0,0.0,0.0,0.0,0.0,0.0,0.0,0.0,0.0,0.0,0.0,0.0,0.0,0.0,0.0,0.0,0.0,0.0,0.0,0.0,0.0,0.0,0.0,0.0,0.0,0.0,0.0,0.0,0.0,0.0,0.0,0.0,0.0,0.0,0.0,0.0,0.0,0.0,0.0,0.0,0.0,0.0,0.0,0.0,0.0,0.0,0.0,0.0,0.0,0.0,0.0,0.0,0.0,0.0,0.0,0.0,0.0,0.0,0.0,0.0,0.0,0.0,0.0,0.0,0.0,0.0,0.0,0.0,0.0,0.0,0.0,0.0,0.0,0.0,0.0,0.0,0.0,0.0,0.0,0.0,0.0,0.0,0.0,0.0,0.0,0.0,0.0,0.0,0.0,0.0,0.0,0.0,0.0,0.0,0.0,0.0,1.6709,1.9157,2.0381,2.0508,1.9394,1.9228,1.7646,0.0,0.0,0.0,0.0,0.0,0.0,0.0,0.0,0.0,0.0,0.0,0.0,0.0,0.0,0.0,0.0,0.0,0.0,0.0,0.0,0.0,0.0,0.0,0.0,0.0,0.0,0.0,0.0,0.0,0.0,0.0,0.0,0.0,0.0,0.0,0.0,0.0,0.0,0.0,0.0,0.0,0.0,0.0,0.0,0.0,0.0,0.0,0.0,0.0,0.0,0.0,0.0,0.0,0.0,0.0,0.0,0.0,0.0,0.0,0.0,0.0,0.0,0.0,0.0,0.0,0.0,0.0,0.0,0.0,0.0,0.0,0.0,0.0,0.0,0.0,0.0,0.0,0.0,0.0,0.0,0.0,0.0,0.0,0.0,0.0,0.0,0.0,0.0,0.0,0.0,0.0,0.0,0.0,0.0,0.0,0.0,0.0,0.0,0.0,0.0,0.0,0.0,0.0,0.0,0.0,0.0,0.0,0.0,0.0,1.7998,1.9228,2.0273,2.0957,1.876,1.7578,0.0,0.0,0.0,0.0,0.0,0.0,0.0,0.0,0.0,0.0,0.0,0.0,0.0,0.0,0.0,0.0,0.0,0.0,0.0,0.0,0.0,0.0,0.0,0.0,0.0,0.0,0.0,0.0,0.0,0.0,0.0,0.0,0.0,0.0,0.0,0.0,0.0,0.0,0.0,0.0,0.0,0.0,0.0,0.0,0.0,0.0,0.0,0.0,0.0,0.0,0.0,0.0,0.0,0.0,0.0,0.0,0.0,0.0,0.0,0.0,0.0,0.0,0.0,0.0,0.0,0.0,0.0,0.0,0.0,0.0,0.0,0.0,0.0,0.0,0.0,0.0,0.0,0.0,0.0,0.0,0.0,0.0,0.0,0.0,0.0,0.0,0.0,0.0,0.0,0.0,0.0,0.0,0.0,0.0,0.0,0.0,0.0,0.0,0.0,0.0,0.0,0.0,0.0,0.0,0.0,0.0,0.0,0.0,0.0,1.9177,2.0303,2.125,2.1875,1.9463,1.8281,1.8506,0.0,0.0,0.0,0.0,0.0,0.0,0.0,0.0,0.0,0.0,0.0,0.0,0.0,0.0,0.0,0.0,0.0,0.0,0.0,0.0,0.0,0.0,0.0,0.0,0.0,0.0,0.0,0.0,0.0,0.0,0.0,0.0,0.0,0.0,0.0,0.0,0.0,0.0,0.0,0.0,0.0,0.0,0.0,0.0,0.0,0.0,0.0,0.0,0.0,0.0,0.0,0.0,0.0,0.0,0.0,0.0,0.0,0.0,0.0,0.0,0.0,0.0,0.0,0.0,0.0,0.0,0.0,0.0,0.0,0.0,0.0,0.0,0.0,0.0,0.0,0.0,0.0,0.0,0.0,0.0,0.0,0.0,0.0,0.0,0.0,0.0,0.0,0.0,0.0,0.0,0.0,0.0,0.0,0.0,0.0,0.0,0.0,0.0,0.0,0.0,0.0,0.0,0.0,0.0,0.0,0.0,0.0,0.0,2.1973,2.3213,2.3281,2.2129,2.1143,1.9705,0.0,0.0,0.0,0.0,0.0,0.0,0.0,0.0,0.0,0.0,0.0,0.0,0.0,0.0,0.0,0.0,0.0,0.0,0.0,0.0,0.0,0.0,0.0,0.0,0.0,0.0,0.0,0.0,0.0,0.0,0.0,0.0,0.0,0.0,0.0,0.0,0.0,0.0,0.0,0.0,0.0,0.0,0.0,0.0,0.0,0.0,0.0,0.0,0.0,0.0,0.0,0.0,0.0,0.0,0.0,0.0,0.0,0.0,0.0,0.0,0.0,0.0,0.0,0.0,0.0,0.0,0.0,0.0,0.0,0.0,0.0,0.0,0.0,0.0,0.0,0.0,0.0,0.0,0.0,0.0,0.0,0.0,0.0,0.0,0.0,0.0,0.0,0.0,0.0,0.0,0.0,0.0,0.0,0.0,0.0,0.0,0.0,0.0,0.0,0.0,0.0,0.0,0.0,0.0,0.0,0.0,0.0,0.0,0.0,2.3271,2.4238,2.4617,2.4245,2.2178,2.0801,0.0,0.0,0.0,0.0,0.0,0.0,0.0,0.0,0.0,0.0,0.0,0.0,0.0,0.0,0.0,0.0,0.0,0.0,0.0,0.0,0.0,0.0,0.0,0.0,0.0,0.0,0.0,0.0,0.0,0.0,0.0,0.0,0.0,0.0,0.0,0.0,0.0,0.0,0.0,0.0,0.0,0.0,0.0,0.0,0.0,0.0,0.0,0.0,0.0,0.0,0.0,0.0,0.0,0.0,0.0,0.0,0.0,0.0,0.0,0.0,0.0,0.0,0.0,0.0,0.0,0.0,0.0,0.0,0.0,0.0,0.0,0.0,0.0,0.0,0.0,0.0,0.0,0.0,0.0,0.0,0.0,0.0,0.0,0.0,0.0,0.0,0.0,0.0,0.0,0.0,0.0,0.0,0.0,0.0,0.0,0.0,0.0,0.0,0.0,0.0,0.0,0.0,0.0,0.0,0.0,0.0,0.0,0.0,2.3354,2.4712,2.5489,2.5889,2.5889,2.3564,2.1921,0.0,0.0,0.0,0.0,0.0,0.0,0.0,0.0,0.0,0.0,0.0,0.0,0.0,0.0,0.0,0.0,0.0,0.0,0.0,0.0,0.0,0.0,0.0,0.0,0.0,0.0,0.0,0.0,0.0,0.0,0.0,0.0,0.0,0.0,0.0,0.0,0.0,0.0,0.0,0.0,0.0,0.0,0.0,0.0,0.0,0.0,0.0,0.0,0.0,0.0,0.0,0.0,0.0,0.0,0.0,0.0,0.0,0.0,0.0,0.0,0.0,0.0,0.0,0.0,0.0,0.0,0.0,0.0,0.0,0.0,0.0,0.0,0.0,0.0,0.0,0.0,0.0,0.0,0.0,0.0,0.0,0.0,0.0,0.0,0.0,0.0,0.0,0.0,0.0,0.0,0.0,0.0,0.0,0.0,0.0,0.0,0.0,0.0,0.0,0.0,0.0,0.0,0.0,0.0,0.0,0.0,0.0,0.0,2.4417,2.5871,2.6613,2.7009,2.6912,2.4962,2.3071,0.0,0.0,0.0,0.0,0.0,0.0,0.0,0.0,0.0,0.0,0.0,0.0,0.0,0.0,0.0,0.0,0.0,0.0,0.0,0.0,0.0,0.0,0.0,0.0,0.0,0.0,0.0,0.0,0.0,0.0,0.0,0.0,0.0,0.0,0.0,0.0,0.0,0.0,0.0,0.0,0.0,0.0,0.0,0.0,0.0,0.0,0.0,0.0,0.0,0.0,0.0,0.0,0.0,0.0,0.0,0.0,0.0,0.0,0.0,0.0,0.0,0.0,0.0,0.0,0.0,0.0,0.0,0.0,0.0,0.0,0.0,0.0,0.0,0.0,0.0,0.0,0.0,0.0,0.0,0.0,0.0,0.0,0.0,0.0,0.0,0.0,0.0,0.0,0.0,0.0,0.0,0.0,0.0,0.0,0.0,0.0,0.0,0.0,0.0,0.0,0.0,0.0,0.0,0.0,0.0,0.0,0.0,0.0,2.368,2.5114,2.6442,2.7001,2.6695,2.5247,2.3786,0.0,0.0,0.0,0.0,0.0,0.0,0.0,0.0,0.0,0.0,0.0,0.0,0.0,0.0,0.0,0.0,0.0,0.0,0.0,0.0,0.0,0.0,0.0,0.0,0.0,0.0,0.0,0.0,0.0,0.0,0.0,0.0,0.0,0.0,0.0,0.0,0.0,0.0,0.0,0.0,0.0,0.0,0.0,0.0,0.0,0.0,0.0,0.0,1.8536,0.0,0.0,0.0,0.0,0.0,0.0,0.0,0.0,0.0,0.0,0.0,0.0,0.0,0.0,0.0,0.0,0.0,0.0,0.0,0.0,0.0,0.0,0.0,0.0,0.0,0.0,0.0,0.0,0.0,0.0,0.0,0.0,0.0,0.0,0.0,0.0,0.0,0.0,0.0,0.0,0.0,0.0,0.0,0.0,0.0,0.0,0.0,0.0,0.0,0.0,0.0,0.0,0.0,0.0,0.0,0.0,0.0,0.0,0.0,2.4555,2.5519,2.687,2.7132,2.6256,2.5731,2.4584,0.0,0.0,0.0,0.0,0.0,0.0,0.0,0.0,0.0,0.0,0.0,0.0,0.0,0.0,0.0,0.0,0.0,0.0,0.0,0.0,0.0,0.0,0.0,0.0,0.0,0.0,0.0,0.0,0.0,0.0,0.0,0.0,0.0,0.0,0.0,0.0,0.0,0.0,0.0,0.0,0.0,0.0,0.0,0.0,0.0,0.0,0.0,0.0,0.0,0.0,0.0,0.0,0.0,0.0,0.0,0.0,0.0,0.0,0.0,0.0,0.0,0.0,0.0,0.0,0.0,0.0,0.0,0.0,0.0,0.0,0.0,0.0,0.0,0.0,0.0,0.0,0.0,0.0,0.0,0.0,0.0,0.0,0.0,0.0,0.0,0.0,0.0,0.0,0.0,0.0,0.0,0.0,0.0,0.0,0.0,0.0,0.0,0.0,0.0,0.0,0.0,0.0,0.0,0.0,0.0,0.0,0.0,2.3563,2.539,2.6113,2.737,2.7372,2.5946,2.6061,2.4995,2.2485,0.0,0.0,0.0,0.0,0.0,0.0,0.0,0.0,0.0,0.0,0.0,0.0,0.0,0.0,0.0,0.0,0.0,0.0,0.0,0.0,0.0,0.0,0.0,0.0,0.0,0.0,0.0,0.0,0.0,0.0,0.0,0.0,0.0,0.0,0.0,0.0,0.0,0.0,1.8707,1.952,0.0,0.0,0.0,0.0,0.0,0.0,0.0,0.0,1.9462,0.0,0.0,0.0,0.0,0.0,0.0,0.0,0.0,0.0,0.0,0.0,0.0,0.0,0.0,0.0,0.0,0.0,0.0,0.0,0.0,0.0,0.0,0.0,0.0,0.0,0.0,0.0,0.0,0.0,0.0,0.0,0.0,0.0,0.0,0.0,0.0,0.0,0.0,0.0,0.0,0.0,0.0,0.0,0.0,0.0,0.0,0.0,0.0,0.0,0.0,0.0,0.0,0.0,0.0,0.0,0.0,2.2055,2.28,2.3896,2.5369,2.7225,2.754,2.6319,2.5478,2.4058,2.2006,0.0,0.0,0.0,0.0,0.0,0.0,0.0,0.0,0.0,0.0,0.0,0.0,0.0,0.0,0.0,0.0,0.0,0.0,0.0,0.0,0.0,0.0,0.0,0.0,0.0,0.0,0.0,0.0,0.0,0.0,0.0,0.0,0.0,0.0,0.0,0.0,0.0,0.0,0.0,2.041,2.0917,0.0,0.0,0.0,0.0,0.0,0.0,0.0,0.0,1.9713,0.0,0.0,0.0,0.0,0.0,0.0,0.0,0.0,0.0,0.0,0.0,0.0,0.0,0.0,0.0,0.0,0.0,0.0,0.0,0.0,0.0,0.0,0.0,0.0,0.0,0.0,0.0,0.0,0.0,0.0,0.0,0.0,0.0,0.0,0.0,0.0,0.0,0.0,0.0,0.0,0.0,0.0,0.0,0.0,0.0,0.0,0.0,0.0,0.0,0.0,0.0,0.0,0.0,0.0,0.0,2.1039,2.1913,2.2893,2.4079,2.521,2.5119,2.3828,2.3238,2.196,0.0,0.0,0.0,0.0,0.0,0.0,0.0,0.0,0.0,0.0,0.0,0.0,0.0,0.0,0.0,0.0,0.0,0.0,0.0,0.0,0.0,0.0,0.0,0.0,0.0,0.0,0.0,0.0,0.0,0.0,0.0,0.0,0.0,0.0,0.0,0.0,0.0,0.0,0.0,0.0,2.0197,2.043,1.943,0.0,0.0,0.0,0.0,0.0,0.0,1.8982,1.9202,0.0,0.0,0.0,0.0,0.0,0.0,0.0,0.0,0.0,0.0,0.0,0.0,0.0,0.0,0.0,0.0,0.0,0.0,0.0,0.0,0.0,0.0,0.0,0.0,0.0,0.0,0.0,0.0,0.0,0.0,0.0,0.0,0.0,0.0,0.0,0.0,0.0,0.0,0.0,0.0,0.0,0.0,0.0,0.0,0.0,0.0,0.0,0.0,0.0,0.0,0.0,0.0,0.0,0.0,0.0,1.9976,2.1207,2.2258,2.3061,2.3433,2.3012,2.1747,2.1224,2.0164,0.0,0.0,0.0,0.0,0.0,0.0,0.0,0.0,0.0,0.0,0.0,0.0,0.0,0.0,0.0,0.0,0.0,0.0,0.0,0.0,0.0,0.0,0.0,0.0,0.0,0.0,0.0,0.0,0.0,0.0,0.0,0.0,0.0,0.0,0.0,0.0,0.0,0.0,0.0,0.0,0.0,2.0142,1.9251,1.9268,0.0,0.0,0.0,0.0,1.8632,1.8852,0.0,0.0,0.0,0.0,0.0,0.0,0.0,0.0,0.0,0.0,0.0,0.0,0.0,0.0,0.0,0.0,0.0,0.0,0.0,0.0,0.0,0.0,0.0,0.0,0.0,0.0,0.0,0.0,0.0,0.0,0.0,0.0,0.0,0.0,0.0,0.0,0.0,0.0,0.0,0.0,0.0,0.0,0.0,0.0,0.0,0.0,0.0,0.0,0.0,0.0,0.0,0.0,0.0,0.0,0.0,0.0,2.0339,2.1227,2.2089,2.3039,2.3433,2.3459,2.3124,2.1208,1.9818,0.0,0.0,0.0,0.0,0.0,0.0,0.0,0.0,0.0,0.0,0.0,0.0,0.0,0.0,0.0,0.0,0.0,0.0,0.0,0.0,0.0,0.0,0.0,0.0,0.0,0.0,0.0,0.0,0.0,0.0,0.0,0.0,0.0,0.0,0.0,0.0,0.0,0.0,0.0,0.0,0.0,2.1502,2.0993,1.987,1.9439,0.0,0.0,1.9312,1.9421,1.9493,0.0,0.0,0.0,0.0,0.0,0.0,0.0,0.0,0.0,0.0,0.0,0.0,0.0,0.0,0.0,0.0,0.0,0.0,0.0,0.0,0.0,0.0,0.0,0.0,0.0,0.0,0.0,0.0,0.0,0.0,0.0,0.0,0.0,0.0,0.0,0.0,0.0,0.0,0.0,0.0,0.0,0.0,0.0,0.0,0.0,0.0,0.0,0.0,0.0,0.0,0.0,0.0,0.0,0.0,0.0,1.7407,1.9524,2.0081,2.0792,2.1692,2.141,2.1119,2.0823,1.8932,1.7841,0.0,0.0,0.0,0.0,0.0,0.0,0.0,0.0,0.0,0.0,0.0,0.0,0.0,0.0,0.0,0.0,0.0,0.0,0.0,0.0,0.0,0.0,0.0,0.0,0.0,0.0,0.0,0.0,0.0,0.0,0.0,0.0,0.0,0.0,0.0,0.0,0.0,0.0,0.0,0.0,0.0,0.0,2.0197,2.0039,0.0,0.0,0.0,1.9875,1.9477,0.0,0.0,0.0,0.0,0.0,0.0,0.0,0.0,0.0,0.0,0.0,0.0,0.0,0.0,0.0,0.0,0.0,0.0,0.0,0.0,0.0,0.0,0.0,0.0,0.0,0.0,0.0,0.0,0.0,0.0,0.0,0.0,0.0,0.0,0.0,0.0,0.0,0.0,0.0,0.0,0.0,0.0,0.0,0.0,0.0,0.0,0.0,0.0,0.0,0.0,0.0,0.0,0.0,0.0,0.0,0.0,0.0,1.8749,1.9241,1.9826,2.0508,1.9706,1.9192,1.9005,1.7308,0.0,0.0,0.0,0.0,0.0,0.0,0.0,0.0,0.0,0.0,0.0,0.0,0.0,0.0,0.0,0.0,0.0,0.0,0.0,0.0,0.0,0.0,0.0,0.0,0.0,0.0,0.0,1.3428,0.0,0.0,0.0,0.0,0.0,0.0,0.0,0.0,0.0,0.0,0.0,0.0,0.0,0.0,1.9956,1.9591,1.9956,2.0009,0.0,0.0,2.0181,1.9358,1.8911,1.8275,0.0,0.0,0.0,0.0,0.0,0.0,0.0,0.0,0.0,0.0,0.0,0.0,0.0,0.0,0.0,0.0,0.0,0.0,0.0,0.0,0.0,0.0,0.0,0.0,0.0,0.0,0.0,0.0,0.0,0.0,0.0,0.0,0.0,0.0,0.0,0.0,0.0,0.0,0.0,0.0,0.0,0.0,0.0,0.0,0.0,0.0,0.0,0.0,0.0,0.0,0.0,0.0,0.0,0.0,0.0,1.8455,1.9337,1.9933,2.016,1.9399,1.9072,1.9299,1.7609,1.6498,0.0,0.0,0.0,0.0,0.0,0.0,0.0,0.0,0.0,0.0,0.0,0.0,0.0,0.0,0.0,0.0,0.0,0.0,0.0,0.0,0.0,0.0,0.0,0.0,0.0,0.0,0.0,0.0,0.0,0.0,0.0,0.0,0.0,0.0,0.0,0.0,0.0,0.0,0.0,0.0,0.0,1.9917,2.0204,1.9513,1.9064,0.0,0.0,1.9625,1.9001,1.9359,1.9106,1.7302,0.0,0.0,0.0,0.0,0.0,0.0,0.0,0.0,0.0,0.0,0.0,0.0,0.0,0.0,0.0,0.0,0.0,0.0,0.0,0.0,0.0,0.0,0.0,0.0,0.0,0.0,0.0,0.0,0.0,0.0,0.0,0.0,0.0,0.0,0.0,0.0,0.0,0.0,0.0,0.0,0.0,0.0,0.0,0.0,0.0,0.0,0.0,0.0,0.0,0.0,0.0,0.0,0.0,1.6331,1.7922,1.9155,1.994,2.0127,1.9372,1.8891,1.8831,1.7448,1.6491,0.0,0.0,0.0,0.0,0.0,0.0,0.0,0.0,0.0,0.0,0.0,0.0,0.0,0.0,0.0,0.0,0.0,0.0,0.0,0.0,0.0,0.0,0.0,0.0,0.0,0.0,0.0,0.0,1.3447,1.314,1.3455,0.0,0.0,0.0,0.0,0.0,0.0,0.0,0.0,0.0,0.0,1.9459,1.9909,1.9667,0.0,0.0,2.0011,1.9954,1.978,1.9458,1.8817,1.7539,1.6649,0.0,0.0,0.0,0.0,0.0,0.0,0.0,0.0,0.0,0.0,0.0,0.0,0.0,0.0,0.0,0.0,0.0,0.0,0.0,0.0,0.0,0.0,0.0,0.0,0.0,0.0,0.0,0.0,0.0,0.0,0.0,0.0,0.0,0.0,0.0,0.0,0.0,0.0,0.0,0.0,0.0,0.0,0.0,0.0,0.0,0.0,0.0,0.0,0.0,0.0,0.0,0.0,1.6292,1.7308,1.8871,1.9766,1.9967,1.9199,1.8698,1.8477,1.7415,1.6481,0.0,0.0,0.0,0.0,0.0,0.0,0.0,0.0,0.0,0.0,0.0,0.0,0.0,0.0,0.0,0.0,0.0,0.0,0.0,0.0,0.0,0.0,0.0,0.0,0.0,0.0,0.0,0.0,1.336,1.2914,1.3056,0.0,0.0,0.0,0.0,0.0,0.0,0.0,0.0,0.0,0.0,1.9084,1.9575,1.9664,1.9775,2.0078,2.012,2.0058,1.9878,1.9464,1.8816,1.7787,0.0,0.0,0.0,0.0,0.0,0.0,0.0,0.0,0.0,0.0,0.0,0.0,0.0,0.0,0.0,0.0,0.0,0.0,0.0,0.0,0.0,0.0,0.0,0.0,0.0,0.0,0.0,1.1728,0.0,0.0,1.0435,0.0,0.0,0.0,0.0,0.0,0.0,0.0,0.0,0.0,0.0,0.0,0.0,0.0,0.0,0.0,0.0,0.0,0.0,0.0,0.0,0.0,0.0,1.5879,1.674,1.8497,1.945,1.945,1.8811,1.8504,1.8477,1.7661,1.6636,1.545,0.0,0.0,0.0,0.0,0.0,0.0,0.0,0.0,0.0,0.0,0.0,0.0,0.0,0.0,0.0,0.0,0.0,0.0,0.0,0.0,0.0,0.0,0.0,0.0,0.0,0.0,1.3105,1.2933,1.2923,0.0,0.0,0.0,0.0,0.0,0.0,0.0,0.0,0.0,0.0,1.8707,1.902,1.933,1.9359,1.9401,1.9687,1.9793,1.9599,1.9001,1.9386,1.9265,0.0,0.0,0.0,0.0,0.0,0.0,0.0,0.0,0.0,0.0,0.0,0.0,0.0,0.0,0.0,0.0,0.0,0.0,0.0,0.0,0.0,0.0,0.0,0.0,0.0,0.0,0.0,1.3986,1.2548,0.0,0.0,0.0,0.0,0.0,0.0,0.0,0.0,0.0,0.0,0.0,1.4946,1.5449,0.0,0.0,0.0,0.0,0.0,0.0,0.0,0.0,0.0,0.0,0.0,0.0,1.6019,1.7288,1.872,1.9459,1.9639,1.9078,1.8691,1.849,1.7802,1.6757,1.5157,0.0,0.0,0.0,0.0,0.0,0.0,0.0,0.0,0.0,0.0,0.0,0.0,0.0,0.0,0.0,0.0,0.0,0.0,0.0,0.0,0.0,0.0,0.0,0.0,0.0,1.3049,0.0,0.0,0.0,0.0,0.0,0.0,0.0,0.0,0.0,0.0,0.0,1.6318,1.6115,1.6379,1.6663,1.6947,1.6999,1.7086,0.0,0.0,0.0,0.0,0.0,0.0,0.0,0.0,0.0,0.0,0.0,0.0,0.0,0.0,1.609,1.4434,1.381,1.3565,1.3697,0.0,0.0,0.0,0.0,0.0,0.0,0.0,0.0,0.0,0.0,0.0,0.0,0.0,0.0,1.4421,0.0,1.3079,0.0,0.0,0.0,0.0,0.0,0.0,0.0,0.0,1.5631,1.6306,1.6339,1.6901,1.6874,0.0,1.6233,1.5378,0.0,0.0,0.0,0.0,0.0,0.0,0.0,0.0,1.6319,1.7569,1.8758,1.9459,1.9619,1.9172,1.8784,1.849,1.7802,1.6898,1.5605,1.5349,1.4605,0.0,0.0,0.0,0.0,0.0,0.0,0.0,0.0,0.0,0.0,0.0,0.0,0.0,0.0,0.0,0.0,0.0,0.0,0.0,0.0,0.0,0.0,0.0,1.3089,0.0,0.0,0.0,0.0,0.0,0.0,0.0,0.0,0.0,1.5007,1.5571,1.5784,1.5397,1.553,1.5684,1.5889,0.0,0.0,0.0,0.0,0.0,0.0,0.0,1.7601,1.5859,1.5801,1.5605,1.451,1.4572,1.4623,1.4157,0.0,0.0,1.3782,1.3418,1.3207,1.3356,1.2972,1.2622,1.3097,1.2507,1.211,0.0,0.0,0.0,0.0,0.0,0.0,0.0,0.0,1.4419,1.4271,0.0,1.3621,0.0,0.0,0.0,0.0,0.0,1.4743,0.0,0.0,1.7328,1.8043,1.8002,1.8035,1.8042,1.8049,1.8357,1.7876,1.6667,1.4732,0.0,0.0,0.0,0.0,0.0,0.0,1.6734,1.7629,1.8827,1.9424,1.9424,1.9092,1.8798,1.8484,1.7702,1.7092,1.6714,1.6152,1.5324,1.4218,1.3803,0.0,0.0,0.0,0.0,0.0,0.0,0.0,0.0,0.0,0.0,0.0,0.0,0.0,0.0,0.0,0.0,0.0,0.0,0.0,0.0,1.2432,0.0,0.0,0.0,0.0,0.0,0.0,0.0,0.0,0.0,0.0,1.5754,1.5459,1.5348,1.5907,0.0,0.0,0.0,0.0,1.606,1.6297,1.6202,1.6143,1.6239,1.6562,1.6615,1.6117,0.0,0.0,1.509,1.4519,1.3789,1.2621,1.2093,1.262,1.5286,1.4891,1.4446,1.4862,1.3269,1.262,1.3861,1.2307,1.1023,1.7445,0.0,0.0,0.0,0.0,1.6081,1.6359,1.7007,1.6947,1.6433,1.5638,1.5471,0.0,0.0,0.0,0.0,0.0,0.0,1.66,1.7114,1.7963,1.8464,1.8635,1.9105,1.9192,1.9005,1.9285,1.8925,1.7983,1.7388,1.6059,1.4055,0.0,0.0,0.0,0.0,1.7393,1.8217,1.9035,1.9424,1.9424,1.9285,1.9005,1.8504,1.8036,1.7549,1.7034,1.6911,1.6226,1.5077,1.4757,0.0,0.0,0.0,0.0,0.0,0.0,0.0,0.0,0.0,0.0,0.0,0.0,0.0,0.0,0.0,0.0,0.0,0.0,0.0,1.2779,1.2639,1.262,0.0,0.0,0.0,0.0,0.0,0.0,0.0,0.0,0.0,1.4708,1.4772,1.4441,0.0,0.0,1.362,1.3625,1.3625,1.3744,1.4007,1.4857,0.0,1.437,1.5383,1.5693,1.4022,1.3561,1.3205,1.2856,1.2576,1.2284,1.186,1.1657,1.1793,1.2497,1.2455,1.2271,1.2277,1.1832,1.1598,1.1951,1.1443,1.1114,1.8811,1.7782,1.7154,1.7154,1.7569,1.7462,1.7776,1.8357,1.8089,1.7716,1.7315,1.7074,1.6413,1.5458,1.5231,0.0,0.0,0.0,1.7615,1.8365,1.8671,1.9052,1.9394,1.9806,1.9887,1.9726,1.9887,1.97,1.9185,1.9065,1.809,1.6306,0.0,0.0,1.6279,1.7094,1.7883,1.8644,1.9125,1.9424,1.9424,1.9252,1.8965,1.8504,1.8149,1.7816,1.74,1.7373,1.6998,1.6174,1.5638,1.4743,0.0,0.0,0.0,0.0,0.0,0.0,0.0,0.0,0.0,0.0,0.0,1.1198,1.0533,0.0,0.0,0.0,1.1321,1.2312,1.3316,1.2865,0.0,0.0,0.0,0.0,0.0,0.0,0.0,1.4257,1.3821,1.3573,1.3787,1.3805,1.3568,1.2914,1.2775,1.2751,1.2482,0.0,1.2513,1.2657,1.3356,1.3713,1.3153,1.3959,1.4175,1.2835,1.2262,1.1974,1.1835,1.1705,1.1616,1.1606,1.1541,1.1484,1.148,1.1406,1.1321,1.1267,1.1253,1.1274,1.1328,1.1297,1.127,2.0179,2.0025,1.8966,1.8712,1.8998,1.8738,1.8784,1.8978,1.8457,1.8455,1.8951,1.8368,1.8016,1.7689,1.7085,0.0,1.7776,1.8022,1.8664,1.9439,1.9491,1.972,2.0167,2.02,2.0207,2.0207,2.0227,2.0227,2.0119,1.994,1.9521,1.8897,1.7882,1.7429,1.7662,1.7902,1.828,1.8838,1.9168,1.9307,1.9301,1.9041,1.8748,1.8442,1.8149,1.7836,1.7569,1.7522,1.7382,1.7068,1.6251,1.5418,1.4532,0.0,0.0,0.0,0.0,0.0,0.0,0.0,0.0,0.0,0.0,0.0,0.0,0.0,0.0,0.0,1.0608,0.0,1.3528,1.3026,0.0,0.0,0.0,1.3254,1.3765,1.3511,1.3375,1.3548,0.0,0.0,1.3089,1.2873,1.2844,1.3022,1.3057,1.2854,1.2367,1.2289,1.2214,1.2131,1.2078,1.2183,1.2551,1.2659,1.2555,1.2209,1.2194,1.1972,1.1681,1.1613,1.1616,1.1616,1.1616,1.1613,1.1616,1.1599,1.1579,1.1433,1.1409,1.1453,1.1562,1.1497,1.1447,2.0261,1.9279,1.8957,1.9273,1.9854,1.9787,1.986,1.984,1.9714,1.9673,1.9579,1.9446,1.9219,1.8945,1.7919,1.8141,1.9285,1.9579,1.982,2.002,2.0034,2.01,2.0187,2.0222,2.0211,2.0217,2.0427,2.0296,1.9846,2.0015,1.9794,1.9135,1.8853,1.8448,1.7912,1.8161,1.8374,1.8494,1.8622,1.8655,1.8655,1.8816,1.8656,1.8151,1.7924,1.7535,1.7029,1.6741,1.6485,1.6239,1.598,1.5576,1.4897,1.3715,0.0,0.0,0.0,0.0,0.0,0.0,0.0,0.0,0.0,1.1668,1.0129,0.0,1.2752,0.0,1.0407,1.1097,1.242,1.2168,0.0,0.0,1.2947,1.3113,1.3238,1.3003,1.2847,1.2999,1.2962,1.2854,1.2666,1.2572,1.2583,1.2611,1.249,1.2327,1.2217,1.2214,1.2277,1.2354,1.2318,1.247,1.2649,1.249,1.2148,1.1828,1.1763,1.1691,1.1619,1.1616,1.1616,1.1616,1.1616,1.1616,1.1623,1.1616,1.1613,1.1575,1.1562,1.1575,1.1613,1.1589,1.1575,1.8518,1.7871,1.7667,1.7897,1.8328,1.8469,1.855,1.8606,1.9109,1.8849,1.8155,1.8155,1.8076,1.7889,1.711,1.73,1.8107,1.8118,1.8563,1.9241,1.8803,1.8865,1.9374,1.8815,1.8502,1.8508,1.8517,1.832,1.8001,1.818,1.8098,1.7708,1.7593,1.7265,1.673,1.7935,1.8557,1.8599,1.8478,1.8421,1.8415,1.8474,1.8248,1.7679,1.7395,1.7041,1.6477,1.6252,1.6082,1.5882,1.58,1.5501,1.4995,1.3571,1.2529,0.0,0.0,0.0,0.0,0.0,0.0,0.0,0.0,0.0,0.0,0.0,1.2135,1.1252,1.0689,1.0902,1.223,1.1936,1.18,1.2296,1.2511,1.2663,1.2668,1.2641,1.2612,1.2624,1.2719,1.2729,1.2682,1.2484,1.2346,1.2346,1.2125,1.1944,1.1949,1.1989,1.1978,1.1997,1.2026,1.208,1.2234,1.2047,1.1839,1.1691,1.1616,1.1616,1.1616,1.1616,1.1616,1.1616,1.1616,1.164,1.1701,1.1711,1.1711,1.1714,1.1714,1.1691,1.1633,1.1616,1.1616,1.6242,1.6058,1.5724,1.5534,1.539,1.5726,1.6096,1.6525,1.7445,1.723,1.6044,1.5857,1.5919,1.6044,1.5602,1.5602,1.6044,1.5794,1.6406,1.7754,1.6858,1.7036,1.808,1.6899,1.6247,1.6252,1.5983,1.5784,1.5789,1.5854,1.5854,1.5784,1.5534,1.5258,1.5121,1.7127,1.8237,1.8169,1.8059,1.8006,1.8058,1.7969,1.7678,1.7181,1.6684,1.6216,1.5733,1.5551,1.5432,1.5385,1.5177,1.4937,1.4599,1.2936,1.1777,0.0,1.0281,0.0,0.0,0.0,0.0,0.0,0.0,0.0,0.0,0.9869,1.0613,1.2042,1.1117,1.0933,1.2114,1.1772,1.1578,1.1922,1.1981,1.2123,1.2211,1.2359,1.2459,1.2474,1.26,1.2681,1.2606,1.2334,1.2122,1.2115,1.1814,1.165,1.1706,1.1722,1.164,1.1476,1.1423,1.1555,1.1661,1.1616,1.1619,1.1616,1.1616,1.1616,1.1616,1.1616,1.1616,1.1616,1.1616,1.1588,1.1713,1.165,1.165,1.1564,1.1557,1.1596,1.1578,1.1616,1.1616,1.5339,1.4306,1.4241,1.3591,1.2618,1.2652,1.3931,1.6051,1.6262,1.6183,1.5856,1.4706,1.4835,1.5797,1.4706,1.477,1.5926,1.5856,1.6005,1.6309,1.6116,1.6141,1.6377,1.5864,1.5604,1.5604,1.5539,1.5349,1.5093,1.5349,1.5349,1.5093,1.506,1.4976,1.4892,0.0,0.0,0.0,1.565,1.6107,1.6161,1.7155,1.7391,1.6794,1.5529,0.0,1.404,1.3091,1.257,1.2594,1.2612,0.0,0.0,0.0,0.0,0.0,0.0,0.0,0.0,0.0,0.0,0.0,1.076,1.041,0.988,0.9964,1.0595,1.1744,1.1147,1.0671,1.0863,1.1274,1.156,1.1621,1.1941,1.2218,1.2447,1.2499,1.2425,1.228,1.2248,1.2191,1.1903,1.176,1.1691,1.1763,1.1619,1.1596,1.1609,1.1586,1.1613,1.1572,1.1562,1.1579,1.1613,1.1616,1.1616,1.1616,1.1616,1.1616,1.1616,1.1616,1.1616,1.1616,1.1616,1.1482,1.123,1.1152,1.1096,1.0787,1.0787,1.0919,1.1479,1.1616,1.1616,1.3132,0.0,1.2355,1.1897,0.0,1.1251,1.2029,1.3386,1.4428,1.4884,1.4754,1.3399,1.3206,1.3853,1.2943,1.3005,1.3849,1.3652,1.3979,1.4567,1.411,1.411,1.4567,1.3722,1.3333,1.3333,1.3132,1.3009,1.2882,1.3005,1.3009,1.282,1.2816,1.2816,1.2808,1.2548,1.2878,1.367,1.4321,1.4679,1.4669,1.5163,1.5221,1.4685,1.3825,0.0,0.0,0.0,0.0,0.0,0.0,0.0,0.0,0.0,0.0,1.0654,1.0108,0.9875,1.008,1.0317,1.0433,1.0371,1.0502,1.0358,0.9847,1.014,1.0552,1.1099,1.0886,1.0721,1.0724,1.0994,1.1278,1.1424,1.165,1.1895,1.2037,1.2073,1.2034,1.1961,1.191,1.1832,1.1616,1.1616,1.1616,1.1616,1.1616,1.1616,1.1616,1.1616,1.1616,1.1616,1.1616,1.1616,1.1616,1.1616,1.1616,1.1616,1.1616,1.1616,1.1616,1.1616,1.1548,1.1332,1.1332,1.1201,1.0913,1.0853,1.0781,1.0629,1.0629,1.0674,1.0985,1.1038,1.1038,1.1115,1.1115,1.0787,1.0721,1.0721,1.0721,1.0721,1.085,0.0,0.0,0.0,1.2103,1.1582,1.1582,1.1251,1.1317,1.1582,1.1247,1.1703,1.282,1.1975,1.2037,1.2754,1.1641,1.1118,1.1118,1.085,1.0721,1.0721,1.0721,1.0721,1.0721,1.0721,1.0707,1.0673,1.0555,1.1355,1.2966,1.3296,1.3403,1.3361,1.329,1.3063,1.2683,1.2188,1.1801,1.1447,1.1251,1.1193,1.1196,1.1218,1.1171,1.114,1.0462,1.0095,1.0213,0.9616,0.9326,0.9449,0.9602,0.9761,0.9927,1.0307,1.0365,0.9968,1.0304,1.0531,1.0531,1.0649,1.0782,1.0863,1.0904,1.1094,1.1365,1.1416,1.1484,1.1599,1.1616,1.1613,1.1616,1.1619,1.1616,1.1616,1.1616,1.1616,1.1616,1.1616,1.1616,1.1616,1.1616,1.1616,1.1616,1.1616,1.1616,1.1616,1.1616,1.1616,1.1616,1.1548,1.1476,1.1476,1.1181,1.089,1.0386,1.0314,0.9844,0.9708,0.9497,0.9739,0.9666,0.9666,0.9635,0.9541,0.9438,0.9582,1.0787,1.0787,1.0721,1.0721,1.0721,1.0721,1.0721,1.0721,1.1049,1.1108,1.1111,1.092,1.0853,1.0853,1.0787,1.0787,1.085,1.0787,1.092,1.1049,1.0916,1.0916,1.1045,1.0853,1.0787,1.0787,1.0721,1.0721,1.0721,1.0721,1.0721,1.0721,1.0721,1.0653,1.0534,1.0504,1.0526,1.0518,1.1668,1.2142,1.1993,1.2817,1.3186,1.2828,1.1673,1.0925,1.0673,0.992,0.9548,0.9527,0.9656,0.967,0.9534,0.943,0.9356,0.9405,0.938,0.9469,0.9741,0.9842,1.0107,1.0375,1.0578,1.0602,1.0426,1.0575,1.0687,1.0687,1.0704,1.0715,1.0863,1.1056,1.1192,1.1369,1.1508,1.1599,1.1616,1.1616,1.1616,1.1616,1.1616,1.1548,1.1472,1.14,1.1325,1.1472,1.1106,1.1472,1.1325,1.1616,1.1616,1.1616,1.1616,1.1616,1.1253,1.1548,1.1253,1.1616,1.1109,1.075,1.0678,0.9582,0.8711,0.8494,0.7623,0.6761,0.6272,0.5976,0.6201,0.6059,0.6061,0.5905,0.5962,0.5889,0.6684,1.0721,1.0721,1.0721,1.0721,1.0721,1.0721,1.0721,1.0721,1.0721,1.0721,1.0721,1.0721,1.0721,1.0721,1.0721,1.0721,1.0721,1.0721,1.0721,1.0721,1.0721,1.0721,1.0721,1.0721,1.0721,1.0721,1.0721,1.0721,1.0721,1.0721,1.0721,1.0721,1.0721,1.0683,1.0622,1.0616,1.0507,1.029,1.0687,1.083,1.0671,1.1127,1.13,1.107,1.0473,1.013,0.9911,0.9524,0.9337,0.9333,0.9402,0.9351,0.9344,0.9429,0.9513,0.9523,0.9741,0.9961,1.0171,1.0327,1.047,1.0605,1.0677,1.0356,0.9554,1.0214,1.0721,1.0721,1.0721,1.0785,1.0867,1.108,1.1292,1.1372,1.1528,1.1616,1.1616,1.1616,1.1616,1.1544,1.0815,1.038,1.038,0.9651,0.9144,0.9072,0.9072,0.9144,0.9147,0.9144,0.9435,1.0164,1.0308,0.9873,0.9077,0.8783,0.8711,0.8492,0.8275,0.8203,0.8131,0.7259,0.6896,0.6536,0.5884,0.5378,0.4944,0.4946,0.4873,0.4802,0.4729,0.4729,0.4729,0.4729,0.5381,1.0748,1.0721,1.0721,1.0721,1.0721,1.0721,1.0721,1.0721,1.0721,1.0721,1.0721,1.0721,1.0721,1.0721,1.0721,1.0721,1.0721,1.0721,1.0721,1.0721,1.0721,1.0721,1.0721,1.0721,1.0721,1.0721,1.0721,1.0721,1.0721,1.0721,1.0721,1.0721,1.0721,1.0721,1.0721,1.0721,1.0643,1.0487,1.0266,1.0059,0.9818,0.9812,0.9805,0.9669,0.9656,0.9598,0.9486,0.9483,0.9483,0.9483,0.9513,0.953,0.954,0.9781,0.9924,0.9947,1.0178,1.0392,1.0531,1.032,1.025,1.025,0.9915,0.9244,0.8374,0.9108,0.9712,0.9712,0.9643,0.9701,0.977,0.997,1.0243,1.0379,1.0519,1.038,1.0527,1.0527,1.0599,1.0452,0.9507,0.8781,0.8564,0.7765,0.7185,0.7185,0.6968,0.697,0.6898,0.6825,0.7331,0.7767,0.8348,0.8056,0.6538,0.6393,0.6319,0.581,0.581,0.5955,0.581,0.5448,0.494,0.4579,0.4146,0.3711,0.3639,0.3495,0.3422,0.3348,0.3277,0.3422,0.3348,0.3348,0.4003,1.0846,1.0727,1.0721,1.0721,1.0721,1.0721,1.0721,1.0721,1.0721,1.0721,1.0721,1.0721,1.0721,1.0721,1.0721,1.0721,1.0721,1.0721,1.0721,1.0721,1.0721,1.0721,1.0721,1.0721,1.0721,1.0721,1.0721,1.0721,1.0721,1.0721,1.0721,1.0721,1.0721,1.0721,1.0721,1.0721,1.0646,1.0497,1.0463,1.0317,0.9987,0.997,0.9893,0.9805,0.9805,0.9798,0.9778,0.9781,0.9781,0.9791,0.9845,0.9923,0.9936,1.0144,1.0236,1.0239,1.0385,1.0538,1.0545,0.9504,0.8842,0.8706,0.7636,0.6833,0.6633,0.67,0.6831,0.6833,0.6833,0.7076,0.7038,0.727,0.7508,0.767,0.7706,0.7404,0.7618,0.7402,0.7404,0.7402,0.7476,0.7187,0.7187,0.6825,0.6753,0.6463,0.6389,0.6319,0.6029,0.6031,0.5522,0.4796,0.5449,0.6246,0.5667,0.581,0.5375,0.5448,0.5377,0.4942,0.4506,0.3563,0.2619,0.262,0.1675,0.1021,0.0,0.0,0.0,0.0,0.0,0.0,0.0,0.0,0.0,1.0847,1.0779,1.0758,1.0721,1.0721,1.0721,1.0721,1.0721,1.0721,1.0721,1.0721,1.0721,1.0721,1.0721,1.0721,1.0721,1.0721,1.0721,1.0721,1.0721,1.0721,1.0721,1.0721,1.0721,1.0721,1.0721,1.0721,1.0721,1.0721,1.0721,1.0721,1.0721,1.0721,1.0721,1.0721,1.0721,1.0687,1.0629,1.0626,1.0524,1.0331,1.0229,1.0158,1.0103,1.0093,1.0093,1.009,1.009,1.0093,1.0093,1.0154,1.0185,1.0188,1.0324,1.0405,1.0415,1.0544,1.0254,0.9507,0.8909,0.8238,0.7367,0.6767,0.6099,0.5233,0.5166,0.4833,0.423,0.5432,0.6449,0.6496,0.6621,0.6723,0.6774,0.6884,0.6968,0.6968,0.6968,0.6968,0.697,0.6176,0.567,0.5525,0.4799,0.4292,0.422,0.4218,0.422,0.3784,0.3711,0.313,0.2258,0.2549,0.2839,0.2838,0.2694,0.2693,0.2475,0.2257,0.2111,0.0,0.0,0.0947,0.0,0.0,0.0,0.0,0.0,0.0,0.0,0.0,0.0,0.0,0.0,0.0,1.1043,1.0985,1.0843,1.0758,1.0721,1.0721,1.0721,1.0721,1.0721,1.0721,1.0721,1.0721,1.0721,1.0721,1.0721,1.0721,1.0721,1.0721,1.0721,1.0721,1.0721,1.0721,1.0721,1.0721,1.0721,1.0721,1.0721,1.0721,1.0721,1.0721,1.0721,1.0721,1.0721,1.0721,1.0721,1.0721,1.0721,1.0717,1.0721,1.0666,1.0551,1.0453,1.0365,1.029,1.0343,1.0343,1.0343,1.0343,1.0343,1.0343,1.0317,1.0337,1.0341,1.0477,1.0355,1.0032,1.0056,0.9513,0.8105,0.7638,0.6969,0.5967,0.5498,0.4832,0.3966,0.3697,0.3295,0.2624,0.4097,0.5165,0.5245,0.5366,0.5447,0.5462,0.5653,0.5736,0.5594,0.5739,0.5594,0.5596,0.4581,0.4077,0.3859,0.3059,0.2405,0.2332,0.2187,0.1896,0.1531,0.1531,0.1313,0.0584,0.0511,0.0511,0.0438,0.0657,0.0292,0.0,0.0,0.0,0.0,0.0,0.0,0.0,0.0,0.0,0.0,0.0,0.0,0.0,0.0,0.0,0.0,0.0,0.0,1.1284,1.1134,1.0995,1.0772,1.0721,1.0721,1.0721,1.0721,1.0721,1.0721,1.0721,1.0721,1.0721,1.0721,1.0721,1.0721,1.0721,1.0721,1.0721,1.0721,1.0721,1.0721,1.0721,1.0721,1.0721,1.0721,1.0721,1.0721,1.0721,1.0721,1.0721,1.0721,1.0721,1.0721,1.0721,1.0721,1.0721,1.0721,1.0721,1.0714,1.0704,1.0694,1.0551,1.0331,1.0354,1.0304,1.0293,1.035,1.0354,1.035,1.0415,1.0483,1.0493,1.056,1.0028,0.8895,0.8701,0.8038,0.6566,0.5436,0.4568,0.4233,0.3361,0.249,0.2558,0.249,0.2424,0.2222,0.249,0.2691,0.2698,0.2965,0.2803,0.2739,0.2655,0.2764,0.2696,0.2986,0.255,0.2696,0.2696,0.2624,0.2478,0.2114,0.1822,0.175,0.1532,0.1167,0.0876,0.073,0.0584,0.0,0.0,0.0,0.0,0.0,0.0,0.0,0.0,0.0,0.0,0.0,0.0,0.0,0.0,0.0,0.0,0.0,0.0,0.0,0.0,0.0,0.0,0.0,0.0,1.1246,1.1012,1.0867,1.0768,1.0721,1.0721,1.0721,1.0721,1.0721,1.0721,1.0721,1.0721,1.0721,1.0721,1.0721,1.0721,1.0721,1.0721,1.0721,1.0721,1.0721,1.0721,1.0721,1.0721,1.0721,1.0721,1.0721,1.0721,1.0721,1.0721,1.0721,1.0721,1.0721,1.0721,1.0721,1.0721,1.0721,1.0721,1.0721,1.0721,1.0721,1.0721,1.0663,1.0575,1.0561,1.0561,1.0561,1.0561,1.0565,1.0561,1.0609,1.0636,1.0577,0.9817,0.8706,0.7369,0.7169,0.6566,0.5233,0.4634,0.3899,0.3026,0.249,0.2222,0.2222,0.2222,0.2222,0.2222,0.2222,0.2222,0.2166,0.2209,0.2175,0.2182,0.2225,0.226,0.226,0.226,0.226,0.226,0.2114,0.1895,0.1678,0.1459,0.1386,0.1386,0.1313,0.1022,0.073,0.0584,0.0438,0.0,0.0,0.0,0.0,0.0,0.0,0.0,0.0,0.0,0.0,0.0,0.0,0.0,0.0,0.0,0.0,0.0,0.0,0.0,0.0,0.0,0.0,0.0,0.0,1.1246,1.1012,1.0856,1.0765,1.0721,1.0721,1.0721,1.0721,1.0721,1.0721,1.0721,1.0721,1.0721,1.0721,1.0721,1.0721,1.0721,1.0721,1.0721,1.0721,1.0721,1.0721,1.0721,1.0721,1.0721,1.0721,1.0721,1.0721,1.0721,1.0721,1.0721,1.0721,1.0721,1.0721,1.0721,1.0721,1.0721,1.0721,1.0721,1.0721,1.0721,1.0721,1.0721,1.0717,1.0721,1.0721,1.0721,1.0721,1.0449,1.0114,1.0047,0.9779,0.931,0.844,0.7236,0.5967,0.57,0.5101,0.383,0.3631,0.3228,0.2289,0.2222,0.2222,0.2222,0.2222,0.2222,0.2222,0.2222,0.2222,0.2166,0.2209,0.2174,0.2182,0.2225,0.2259,0.226,0.2187,0.2041,0.1896,0.175,0.1459,0.1241,0.1095,0.1022,0.1022,0.0876,0.0657,0.0438,0.0365,0.0365,0.0,0.0,0.0,0.0,0.0,0.0,0.0,0.0,0.0,0.0,0.0,0.0,0.0,0.0,0.0,0.0,0.0,0.0,0.0,0.0,0.0,0.0,0.0,0.0,1.1294,1.1138,1.1002,1.0839,1.0727,1.0721,1.0721,1.0721,1.0721,1.0721,1.0721,1.0721,1.0721,1.0721,1.0721,1.0721,1.0721,1.0721,1.0721,1.0721,1.0721,1.0721,1.0721,1.0721,1.0721,1.0721,1.0721,1.0721,1.0721,1.0721,1.0721,1.0721,1.0721,1.0721,1.0721,1.0721,1.0721,1.0721,1.0721,1.0721,1.0721,1.0721,1.0654,1.0585,1.0518,1.0452,1.0452,1.0518,0.9915,0.8773,0.8573,0.7902,0.6767,0.6433,0.5769,0.4567,0.4301,0.3631,0.249,0.2356,0.2423,0.2222,0.2222,0.2155,0.2087,0.2155,0.2087,0.2087,0.2087,0.2087,0.2095,0.2068,0.2102,0.2181,0.2226,0.2258,0.2187,0.1968,0.1677,0.1313,0.1167,0.1167,0.1095,0.0803,0.0584,0.0584,0.0365,0.0,0.0,0.0,0.0,0.0,0.0,0.0,0.0,0.0,0.0,0.0,0.0,0.0,0.0,0.0,0.0,0.0,0.0,0.0,0.0,0.0,0.0,0.0,0.0,0.0,0.0,0.0,0.0,1.1206,1.1134,1.089,1.0765,1.0721,1.0721,1.0721,1.0721,1.0721,1.0721,1.0721,1.0721,1.0721,1.0721,1.0721,1.0721,1.0721,1.0721,1.0721,1.0721,1.0721,1.0721,1.0721,1.0721,1.0721,1.0721,1.0721,1.0721,1.0721,1.0721,1.0721,1.0721,1.0721,1.0721,1.0721,1.0721,1.0721,1.0721,1.0721,1.0721,1.0721,1.0717,1.025,0.9377,0.9241,0.8842,0.7902,0.8706,0.8507,0.7169,0.71,0.6433,0.5233,0.4967,0.43,0.3095,0.2826,0.2759,0.2357,0.2155,0.2155,0.2222,0.2222,0.202,0.1818,0.1751,0.1683,0.1481,0.1414,0.1414,0.1418,0.1437,0.1596,0.1823,0.1938,0.1822,0.1605,0.1459,0.1167,0.0876,0.0803,0.0657,0.0,0.0,0.0,0.0,0.0,0.0,0.0,0.0,0.0,0.0,0.0,0.0,0.0,0.0,0.0,0.0,0.0,0.0,0.0,0.0,0.0,0.0,0.0,0.0,0.0,0.0,0.0,0.0,0.0,0.0,0.0,0.0,0.0,1.1131,1.1056,1.0819,1.0721,1.0721,1.0721,1.0721,1.0721,1.0721,1.0721,1.0721,1.0721,1.0721,1.0721,1.0721,1.0721,1.0721,1.0721,1.0721,1.0721,1.0721,1.0721,1.0721,1.0721,1.0721,1.0721,1.0721,1.0721,1.0721,1.0721,1.0721,1.0721,1.0721,1.0721,1.0721,1.0721,1.0721,1.0721,1.0721,1.0386,0.9845,0.9845,0.9178,0.7841,0.7702,0.7036,0.5834,0.6435,0.6435,0.5633,0.5166,0.4366,0.3563,0.3497,0.3095,0.2423,0.2087,0.202,0.2155,0.1953,0.1885,0.1953,0.1885,0.1683,0.1481,0.1414,0.1279,0.1144,0.1144,0.1077,0.1079,0.1091,0.1173,0.1252,0.1425,0.1377,0.1093,0.0949,0.0803,0.0511,0.0365,0.0219,0.0,0.0,0.0,0.0,0.0,0.0,0.0,0.0,0.0,0.0,0.0,0.0,0.0,0.0,0.0,0.0,0.0,0.0,0.0,0.0,0.0,0.0,0.0,0.0,0.0,0.0,0.0,0.0,0.0,0.0,0.0,0.0,0.0,1.108,1.0867,1.0782,1.0721,1.0721,1.0721,1.0721,1.0721,1.0721,1.0721,1.0721,1.0721,1.0721,1.0721,1.0721,1.0721,1.0721,1.0721,1.0721,1.0721,1.0721,1.0721,1.0721,1.0721,1.0721,1.0721,1.0721,1.0721,1.0721,1.0721,1.0721,1.0721,1.0721,1.0721,1.0721,1.0721,1.0588,1.0382,1.0585,0.9845,0.8166,0.8435,0.7636,0.5902,0.5965,0.5498,0.4231,0.3963,0.3963,0.3899,0.3026,0.249,0.2222,0.2155,0.2221,0.2087,0.1751,0.1818,0.1885,0.1548,0.1279,0.1548,0.1346,0.1077,0.1077,0.1077,0.101,0.0943,0.0943,0.0943,0.0945,0.0952,0.0823,0.0622,0.0848,0.0864,0.0655,0.0584,0.0438,0.0,0.0,0.0,0.0,0.0,0.0,0.0,0.0,0.0,0.0,0.0,0.0,0.0,0.0,0.0,0.0,0.0,0.0,0.0,0.0,0.0,0.0,0.0,0.0,0.0,0.0,0.0,0.0,0.0,0.0,0.0,0.0,0.0,0.0,0.0,0.0,1.108,1.0867,1.0782,1.0721,1.0721,1.0721,1.0721,1.0721,1.0721,1.0721,1.0721,1.0721,1.0721,1.0721,1.0721,1.0721,1.0721,1.0721,1.0721,1.0721,1.0721,1.0721,1.0721,1.0721,1.0721,1.0721,1.0721,1.0721,1.0721,1.0721,1.0721,1.0721,1.0654,1.0651,1.0721,1.0654,1.0114,0.951,1.025,0.9178,0.6969,0.75,0.6698,0.4227,0.4026,0.3357,0.2085,0.1884,0.1951,0.2287,0.2019,0.1751,0.1751,0.1751,0.1683,0.1481,0.1548,0.1481,0.1414,0.1212,0.1144,0.1212,0.1077,0.101,0.0673,0.0673,0.0539,0.0404,0.0269,0.0,0.0,0.0,0.0,0.0139,0.0,0.0,0.0,0.0146,0.0073,0.0,0.0,0.0,0.0,0.0,0.0,0.0,0.0,0.0,0.0,0.0,0.0,0.0,0.0,0.0,0.0,0.0,0.0,0.0,0.0,0.0,0.0,0.0,0.0,0.0,0.0,0.0,0.0,0.0,0.0,0.0,0.0,0.0,0.0,0.0,0.0,1.1043,1.0846,1.0755,1.0721,1.0721,1.0721,1.0721,1.0721,1.0721,1.0721,1.0721,1.0721,1.0721,1.0721,1.0721,1.0721,1.0721,1.0721,1.0721,1.0721,1.0721,1.0721,1.0721,1.0721,1.0721,1.0721,1.0721,1.0721,1.0721,1.0721,1.0721,1.0585,1.0117,1.0117,1.0654,1.005,0.9374,0.8637,0.9108,0.7969,0.4962,0.5494,0.4558,0.262,0.2218,0.1815,0.101,0.101,0.1212,0.1346,0.1414,0.1414,0.1414,0.1414,0.1279,0.1077,0.1144,0.1077,0.1077,0.0875,0.0741,0.0741,0.0741,0.0539,0.0337,0.0269,0.0202,0.0067,0.0,0.0,0.0,0.0,0.0,0.0,0.0,0.0,0.0,0.0,0.0,0.0,0.0,0.0,0.0,0.0,0.0,0.0,0.0,0.0,0.0,0.0,0.0,0.0,0.0,0.0,0.0,0.0,0.0,0.0,0.0,0.0,0.0,0.0,0.0,0.0,0.0,0.0,0.0,0.0,0.0,0.0,0.0,0.0,0.0,0.0,0.0,1.0921,1.0588,1.0588,1.0588,1.0588,1.0588,1.0522,1.0588,1.0588,1.0654,1.0654,1.0651,1.0721,1.0721,1.0721,1.0721,1.0721,1.0721,1.0721,1.0518,1.025,0.9981,1.025,1.0588,1.0721,1.0721,1.0721,1.0721,1.0585,1.0585,1.0449,0.9981,0.8975,0.9042,0.9377,0.8842,0.8102,0.7434,0.7564,0.596,0.3422,0.3222,0.2685,0.1143,0.0942,0.0942,0.0673,0.0741,0.0943,0.0943,0.101,0.101,0.101,0.101,0.0943,0.0943,0.0741,0.0741,0.0808,0.0404,0.0135,0.0337,0.0202,0.0,0.0,0.0,0.0,0.0,0.0,0.0,0.0,0.0,0.0,0.0,0.0,0.0,0.0,0.0,0.0,0.0,0.0,0.0,0.0,0.0,0.0,0.0,0.0,0.0,0.0,0.0,0.0,0.0,0.0,0.0,0.0,0.0,0.0,0.0,0.0,0.0,0.0,0.0,0.0,0.0,0.0,0.0,0.0,0.0,0.0,0.0,0.0,0.0,0.0,0.0,0.0,1.0175,0.9927,0.9927,0.9927,0.993,0.9924,0.9927,0.9994,1.0193,1.0323,1.0323,1.0588,1.0588,1.0651,1.0452,1.0721,1.0452,1.0449,1.0721,1.0382,0.8171,0.8171,0.9042,0.9915,1.0585,1.0518,1.0651,1.0651,1.0382,0.9443,0.9042,0.8839,0.7636,0.7036,0.7236,0.6902,0.5835,0.5099,0.5496,0.429,0.2015,0.2083,0.1881,0.0,0.0,0.0,0.0,0.0202,0.0202,0.0269,0.0471,0.0606,0.0673,0.0606,0.0539,0.0404,0.0471,0.0404,0.0,0.0,0.0,0.0,0.0,0.0,0.0,0.0,0.0,0.0,0.0,0.0,0.0,0.0,0.0,0.0,0.0,0.0,0.0,0.0,0.0,0.0,0.0,0.0,0.0,0.0,0.0,0.0,0.0,0.0,0.0,0.0,0.0,0.0,0.0,0.0,0.0,0.0,0.0,0.0,0.0,0.0,0.0,0.0,0.0,0.0,0.0,0.0,0.0,0.0,0.0,0.0,0.0,0.0,0.0,0.0,0.0,0.9909,0.9734,0.9731,0.9731,0.9731,0.9731,0.9731,0.9728,0.9861,0.9927,0.9857,0.9516,0.9313,0.9383,0.8776,0.8507,0.864,0.8706,0.864,0.8304,0.7034,0.69,0.7436,0.8238,0.8706,0.864,0.864,0.8706,0.8437,0.8038,0.7569,0.7436,0.5965,0.57,0.5834,0.5163,0.4229,0.3625,0.3757,0.2819,0.0874,0.0941,0.121,0.0,0.0,0.0,0.0,0.0,0.0,0.0,0.0,0.0,0.0,0.0,0.0,0.0067,0.0135,0.0202,0.0,0.0,0.0,0.0,0.0,0.0,0.0,0.0,0.0,0.0,0.0,0.0,0.0,0.0,0.0,0.0,0.0,0.0,0.0,0.0,0.0,0.0,0.0,0.0,0.0,0.0,0.0,0.0,0.0,0.0,0.0,0.0,0.0,0.0,0.0,0.0,0.0,0.0,0.0,0.0,0.0,0.0,0.0,0.0,0.0,0.0,0.0,0.0,0.0,0.0,0.0,0.0,0.0,0.0,0.0,0.0,0.0,0.9645,0.9528,0.9528,0.9395,0.9192,0.9125,0.892,0.8787,0.8923,0.8581,0.8784,0.7638,0.7436,0.7305,0.6569,0.6101,0.6166,0.603,0.6097,0.6433,0.5496,0.5364,0.5698,0.5631,0.5496,0.5629,0.6366,0.6566,0.6566,0.6097,0.5832,0.5631,0.4229,0.3895,0.443,0.3692,0.262,0.2284,0.2216,0.1746,0.0,0.0,0.0,0.0,0.0,0.0,0.0,0.0,0.0,0.0,0.0,0.0,0.0,0.0,0.0,0.0,0.0,0.0,0.0,0.0,0.0,0.0,0.0,0.0,0.0,0.0,0.0,0.0,0.0,0.0,0.0,0.0,0.0,0.0,0.0,0.0,0.0,0.0,0.0,0.0,0.0,0.0,0.0,0.0,0.0,0.0,0.0,0.0,0.0,0.0,0.0,0.0,0.0,0.0,0.0,0.0,0.0,0.0,-0.048,-0.0549,-0.0617,-0.0685,-0.0687,-0.049,0.0,0.0,0.0,0.0,0.0,0.0,-0.0289,-0.0503,-0.0577,-0.0653,-0.0793,0.8901,0.8787,0.879,0.8117,0.7045,0.6978,0.6372,0.5364,0.5763,0.5629,0.5696,0.5696,0.5698,0.5698,0.5631,0.5498,0.5029,0.4427,0.436,0.4695,0.3557,0.2888,0.3558,0.309,0.2419,0.2755,0.4229,0.5631,0.5498,0.4762,0.4093,0.3827,0.2554,0.2017,0.195,0.1278,0.1143,0.1076,0.0,0.0,0.0,0.0,0.0,0.0,0.0,0.0,0.0,0.0,0.0,0.0,0.0,0.0,0.0,0.0,0.0,0.0,0.0,0.0,0.0,0.0,0.0,0.0,0.0,0.0,0.0,0.0,0.0,0.0,0.0,0.0,0.0,0.0,0.0,0.0,0.0,0.0,0.0,0.0,0.0,0.0,0.0,0.0,0.0,0.0,0.0,0.0,0.0,0.0,0.0,0.0,0.0,0.0,0.0,0.0,0.0,0.0,0.0,0.0,-0.0882,-0.0949,-0.1016,-0.1013,-0.0953,-0.0967,-0.0836,0.0,0.0,-0.0779,-0.0781,-0.0641,-0.0781,-0.0919,-0.0995,-0.1071,-0.1064,0.7493,0.7383,0.6706,0.5969,0.5367,0.53,0.4964,0.4428,0.4492,0.4559,0.4359,0.4025,0.3825,0.3759,0.3089,0.2955,0.2956,0.2554,0.2554,0.2687,0.1816,0.1346,0.2084,0.1346,0.1211,0.1413,0.2554,0.3424,0.3558,0.2687,0.2286,0.2085,0.1211,0.0808,0.0741,0.0538,0.0,0.0,0.0,0.0,0.0,0.0,0.0,0.0,0.0,0.0,0.0,0.0,0.0,0.0,0.0,0.0,0.0,0.0,0.0,0.0,0.0,0.0,0.0,0.0,0.0,0.0,0.0,0.0,0.0,0.0,0.0,0.0,0.0,0.0,0.0,0.0,0.0,0.0,0.0,0.0,0.0,0.0,0.0,0.0,0.0,0.0,0.0,0.0,0.0,0.0,0.0,0.0,0.0,-0.0357,-0.0422,-0.0898,-0.1157,-0.1285,-0.155,-0.1616,-0.135,-0.1283,-0.1279,-0.1346,-0.1414,-0.1481,-0.1618,-0.1699,-0.1572,-0.124,-0.1115,-0.0986,-0.1054,-0.1121,-0.1122,-0.1123,-0.1334,-0.1403,-0.1466,0.5971,0.5837,0.4763,0.4159,0.3892,0.3825,0.3624,0.3489,0.3356,0.3289,0.3289,0.2285,0.1882,0.1816,0.1211,0.0673,0.0875,0.0942,0.1009,0.1076,0.0942,0.0875,0.0875,0.0875,0.0808,0.0741,0.0808,0.0673,0.1413,0.1144,0.0942,0.101,0.0606,0.0404,0.0337,0.0135,0.0,0.0,0.0,0.0,0.0,0.0,0.0,0.0,0.0,0.0,0.0,0.0,0.0,0.0,0.0,0.0,0.0,0.0,0.0,0.0,0.0,0.0,0.0,0.0,0.0,0.0,0.0,0.0,0.0,0.0,0.0,0.0,0.0,0.0,0.0,0.0,0.0,0.0,0.0,0.0,0.0,0.0,0.0,0.0,-0.0216,0.0,0.0,0.0,0.0,0.0,0.0,0.0,-0.0725,-0.0718,-0.0919,-0.1593,-0.1979,-0.2032,-0.2227,-0.2358,-0.2029,-0.163,-0.1689,-0.1751,-0.1818,-0.1885,-0.2091,-0.2228,-0.1831,-0.1573,-0.1385,-0.1322,-0.1521,-0.1518,-0.1388,-0.1389,-0.1658,-0.1793,-0.179,0.4562,0.4561,0.4361,0.3557,0.2419,0.2352,0.1613,0.0,0.0,0.0471,0.0,0.0,0.0,0.0,0.0,0.0,0.0,0.0,0.0,0.0,0.0,0.0,0.0,0.0135,0.0,0.0,0.0,0.0471,0.0741,0.0471,0.0337,0.0471,0.0269,0.0,0.0,0.0,0.0,0.0,0.0,0.0,0.0,0.0,0.0,0.0,0.0,0.0,0.0,0.0,0.0,0.0,0.0,0.0,0.0,0.0,0.0,0.0,0.0,0.0,0.0,0.0,0.0,0.0,0.0,0.0,0.0,0.0,0.0,0.0,0.0,0.0,0.0,0.0,0.0,0.0,0.0,-0.0287,-0.0435,-0.0507,-0.0654,-0.0725,-0.0721,-0.065,0.0,0.0,0.0,0.0,-0.1095,-0.1095,-0.1307,-0.1435,-0.2196,-0.3191,-0.3627,-0.3668,-0.3661,-0.3722,-0.3389,-0.2661,-0.2641,-0.2691,-0.2958,-0.316,-0.2624,-0.2628,-0.2366,-0.2503,-0.2723,-0.2657,-0.2238,-0.1971,-0.1778,-0.1907,-0.2097,-0.2166,-0.2175,0.2351,0.3023,0.2217,0.1546,0.0942,0.0874,0.0605,0.0,0.0,0.0,0.0,0.0,0.0,0.0,0.0,0.0,0.0,0.0,0.0,0.0,0.0,0.0,0.0,0.0,0.0,0.0,0.0,0.0135,0.0,0.0,0.0,0.0,0.0,0.0,0.0,0.0,0.0,0.0,0.0,0.0,0.0,0.0,0.0,0.0,0.0,0.0,0.0,0.0,0.0,0.0,0.0,0.0,0.0,0.0,0.0,0.0,0.0,0.0,0.0,0.0,0.0,0.0,0.0,0.0,0.0,0.0,0.0,0.0,0.0,0.0,-0.0277,-0.0349,-0.0497,-0.0574,-0.0578,-0.0724,-0.0874,-0.0875,-0.102,-0.1088,-0.1156,-0.1155,-0.1082,-0.1077,-0.1075,-0.1157,-0.1382,-0.1458,-0.2023,-0.2708,-0.3799,-0.5274,-0.5495,-0.5587,-0.5588,-0.5587,-0.5444,-0.4908,-0.4793,-0.4836,-0.4832,-0.4698,-0.4163,-0.4296,-0.4704,-0.4637,-0.4364,-0.3499,-0.2766,-0.2428,-0.2223,-0.2558,-0.2826,-0.2425,-0.2432,0.0606,0.1412,0.0471,0.0,0.0,0.0,0.0,0.0,0.0,0.0,0.0,0.0,0.0,0.0,0.0,0.0,0.0,0.0,0.0,0.0,0.0,0.0,0.0,0.0,0.0,0.0,0.0,0.0,0.0,0.0,0.0,0.0,0.0,0.0,0.0,0.0,0.0,0.0,0.0,0.0,0.0,0.0,0.0,0.0,0.0,0.0,0.0,0.0,0.0,0.0,0.0,0.0,0.0,0.0,0.0,0.0,0.0,0.0,0.0,0.0,0.0,0.0,0.0,0.0,0.0,-0.0067,0.0,0.0,0.0,0.0,-0.0626,-0.0701,-0.0853,-0.1009,-0.1093,-0.124,-0.1313,-0.131,-0.1451,-0.1661,-0.1724,-0.1644,-0.1642,-0.1567,-0.1501,-0.1514,-0.1594,-0.189,-0.2875,-0.4035,-0.5383,-0.6835,-0.7036,-0.7136,-0.71,-0.7108,-0.704,-0.6883,-0.6749,-0.6443,-0.6168,-0.6032,-0.5698,-0.6097,-0.6631,-0.6097,-0.5366,-0.423,-0.3294,-0.3763,-0.4097,-0.3696,-0.3562,-0.316,-0.3227,0.0067,0.0135,0.0,0.0,0.0,0.0,0.0,0.0,0.0,0.0,0.0,0.0,0.0,0.0,0.0,0.0,0.0,0.0,0.0,0.0,0.0,0.0,0.0,0.0,0.0,0.0,0.0,0.0,0.0,0.0,0.0,0.0,0.0,0.0,0.0,0.0,0.0,0.0,0.0,0.0,0.0,0.0,0.0,0.0,0.0,0.0,0.0,0.0,0.0,0.0,0.0,0.0,0.0,0.0,0.0,0.0,0.0,0.0,0.0,0.0,0.0,0.0,0.0,0.0,0.0,-0.0337,-0.0471,-0.0471,-0.0673,-0.0886,-0.1041,-0.1055,-0.1204,-0.1362,-0.1517,-0.159,-0.1662,-0.1737,-0.1875,-0.2154,-0.2211,-0.2122,-0.2465,-0.2529,-0.2538,-0.2488,-0.3222,-0.352,-0.463,-0.5831,-0.7016,-0.81,-0.8407,-0.8523,-0.852,-0.8462,-0.8452,-0.809,-0.7768,-0.7326,-0.6902,-0.69,-0.7367,-0.7234,-0.7567,-0.6965,-0.6631,-0.6368,-0.617,-0.6101,-0.59,-0.5165,-0.5232,-0.5299,-0.5366,0.0,0.0,0.0,0.0,0.0,0.0,0.0,0.0,0.0,0.0,0.0,0.0,0.0,0.0,0.0,0.0,0.0,0.0,0.0,0.0,0.0,0.0,0.0,0.0,0.0,0.0,0.0,0.0,0.0,0.0,0.0,0.0,0.0,0.0,0.0,0.0,0.0,0.0,0.0,0.0,0.0,0.0,0.0,0.0,0.0,0.0,0.0,0.0,0.0,0.0,0.0,0.0,0.0,0.0,0.0,0.0,0.0,0.0,0.0,0.0,0.0,-0.0269,0.0,-0.0404,-0.0539,-0.0808,-0.0875,-0.0943,-0.101,-0.1225,-0.1447,-0.1456,-0.1534,-0.177,-0.1855,-0.1857,-0.193,-0.2005,-0.1998,-0.2196,-0.2386,-0.2502,-0.3051,-0.353,-0.3549,-0.3642,-0.4445,-0.5315,-0.6335,-0.733,-0.8494,-0.9186,-0.949,-0.9658,-0.9661,-0.9664,-0.9716,-0.9282,-0.8781,-0.8542,-0.8371,-0.9108,-0.9443,-0.9108,-0.8773,-0.8773,-0.8773,-0.8975,-0.8573,-0.7569,-0.6833,-0.6231,-0.6564,-0.73,-0.73,0.0,0.0,0.0,0.0,0.0,0.0,0.0,0.0,0.0,0.0,0.0,0.0,0.0,0.0,0.0,0.0,0.0,0.0,0.0,0.0,0.0,0.0,0.0,0.0,0.0,0.0,0.0,0.0,0.0,0.0,0.0,0.0,0.0,0.0,0.0,0.0,0.0,0.0,0.0,0.0,0.0,0.0,0.0,0.0,0.0,0.0,0.0,0.0,0.0,0.0,0.0,0.0,0.0,0.0,0.0,0.0,-0.0067,-0.0135,-0.0135,-0.0135,-0.0337,-0.0606,-0.0673,-0.0808,-0.101,-0.1212,-0.1212,-0.1279,-0.1347,-0.1557,-0.1851,-0.186,-0.1872,-0.2042,-0.2047,-0.2049,-0.2118,-0.212,-0.2108,-0.2234,-0.263,-0.3369,-0.4165,-0.4846,-0.5376,-0.5539,-0.6252,-0.6993,-0.7704,-0.8679,-0.9552,-1.0177,-1.0463,-1.0655,-1.0735,-1.0427,-1.0194,-1.0187,-0.9889,-1.0143,-1.025,-1.0721,-1.0721,-1.0114,-1.0047,-1.0585,-1.0452,-0.9981,-0.9178,-0.824,-0.7971,-0.7902,-0.8304,-0.8906,-0.8706,0.0,0.0,0.0,0.0,0.0,0.0,0.0,0.0,0.0,0.0,0.0,0.0,0.0,0.0,0.0,0.0,0.0,0.0,0.0,0.0,0.0,0.0,0.0,0.0,0.0,0.0,0.0,0.0,0.0,0.0,0.0,0.0,0.0,0.0,0.0,0.0,0.0,0.0,0.0,0.0,0.0,0.0,0.0,0.0,0.0,0.0,0.0,0.0,0.0,0.0,0.0,0.0,0.0,0.0,0.0,0.0,-0.0337,-0.0471,-0.0539,-0.0471,-0.0741,-0.101,-0.1077,-0.1144,-0.1212,-0.1414,-0.1616,-0.1616,-0.1818,-0.2032,-0.2186,-0.2199,-0.2144,-0.2152,-0.2226,-0.2228,-0.2225,-0.2224,-0.2211,-0.2753,-0.3569,-0.4439,-0.5408,-0.6266,-0.7093,-0.7613,-0.8166,-0.8676,-0.9131,-0.9576,-1.0354,-1.0527,-1.0826,-1.0812,-1.0792,-1.0758,-1.0664,-1.0731,-1.0731,-1.0724,-1.0721,-1.0721,-1.0721,-1.0721,-1.0721,-1.0721,-1.0721,-1.0651,-0.9915,-0.9377,-0.9915,-1.0047,-1.0382,-1.025,-0.9848,0.0,0.0,0.0,0.0,0.0,0.0,0.0,0.0,0.0,0.0,0.0,0.0,0.0,0.0,0.0,0.0,0.0,0.0,0.0,0.0,0.0,0.0,0.0,0.0,0.0,0.0,0.0,0.0,0.0,0.0,0.0,0.0,0.0,0.0,0.0,0.0,0.0,0.0,0.0,0.0,0.0,0.0,0.0,0.0,0.0,0.0,0.0,0.0,0.0,0.0,0.0,0.0,-0.0538,-0.0606,-0.0538,-0.0673,-0.0943,-0.101,-0.1144,-0.1279,-0.1279,-0.1414,-0.1481,-0.1548,-0.1818,-0.1885,-0.202,-0.202,-0.2087,-0.2163,-0.2167,-0.217,-0.2177,-0.2176,-0.2179,-0.218,-0.2178,-0.2247,-0.2377,-0.3389,-0.426,-0.5813,-0.7054,-0.7841,-0.8658,-0.9022,-0.9429,-0.9618,-1.0056,-1.0175,-1.0642,-1.0638,-1.0751,-1.0738,-1.0721,-1.0721,-1.0721,-1.0724,-1.0724,-1.0721,-1.0721,-1.0721,-1.0721,-1.0721,-1.0721,-1.0721,-1.0721,-1.0721,-1.0721,-1.0651,-1.0721,-1.0721,-1.0585,-1.0585,-1.0518,0.0,0.0,0.0,0.0,0.0,0.0,0.0,0.0,0.0,0.0,0.0,0.0,0.0,0.0,0.0,0.0,0.0,0.0,0.0,0.0,0.0,0.0,0.0,0.0,0.0,0.0,0.0,0.0,0.0,0.0,0.0,0.0,0.0,0.0,0.0,0.0,0.0,0.0,0.0,0.0,0.0,0.0,0.0,0.0,0.0,0.0,0.0,-0.1143,-0.1479,-0.1545,-0.1612,-0.1746,-0.1948,-0.1747,-0.1681,-0.1749,-0.1481,-0.1548,-0.1683,-0.1818,-0.1818,-0.1818,-0.1818,-0.1953,-0.2155,-0.2155,-0.2155,-0.2155,-0.2222,-0.2223,-0.2223,-0.2222,-0.2222,-0.2223,-0.2694,-0.2764,-0.31,-0.317,-0.3841,-0.4771,-0.5772,-0.7374,-0.8576,-0.9446,-1.0212,-1.0405,-1.0661,-1.0721,-1.0721,-1.0721,-1.0721,-1.0721,-1.0724,-1.0721,-1.0721,-1.0721,-1.0721,-1.0721,-1.0721,-1.0721,-1.0721,-1.0721,-1.0721,-1.0721,-1.0721,-1.0721,-1.0721,-1.0721,-1.0721,-1.0721,-1.0721,-1.0721,-1.0721,-1.0721,-1.0721,0.0,0.0,0.0,0.0,0.0,0.0,0.0,0.0,0.0,0.0,0.0,0.0,0.0,0.0,0.0,0.0,0.0,0.0,0.0,0.0,0.0,0.0,0.0,0.0,0.0,0.0,0.0,0.0,0.0,0.0,0.0,0.0,0.0,0.0,0.0,0.0,0.0,0.0,0.0,0.0,0.0,0.0,0.0,-0.1143,-0.1613,-0.215,-0.2552,-0.3088,-0.3823,-0.4225,-0.4491,-0.4827,-0.4695,-0.4026,-0.3557,-0.3089,-0.2487,-0.2556,-0.269,-0.2892,-0.2558,-0.2624,-0.249,-0.2357,-0.2222,-0.2222,-0.2222,-0.2222,-0.2222,-0.2222,-0.2222,-0.2222,-0.2289,-0.2827,-0.3565,-0.3967,-0.4501,-0.5036,-0.5837,-0.6702,-0.7772,-0.8975,-0.9782,-1.0651,-1.0721,-1.0721,-1.0721,-1.0721,-1.0721,-1.0721,-1.0721,-1.0721,-1.0721,-1.0721,-1.0721,-1.0721,-1.0721,-1.0721,-1.0721,-1.0721,-1.0721,-1.0721,-1.0721,-1.0721,-1.0721,-1.0721,-1.0721,-1.0721,-1.0721,-1.0721,-1.0721,-1.0721,-1.0721,-1.0721,-1.0721,0.0,0.0,0.0,0.0,0.0,0.0,0.0,0.0,0.0,0.0,0.0,0.0,0.0,0.0,0.0,0.0,0.0,0.0,0.0,0.0,0.0,0.0,0.0,0.0,0.0,0.0,0.0,0.0,0.0,0.0,0.0,0.0,-0.1546,-0.2016,-0.2552,-0.3021,-0.1747,-0.1009,-0.1277,-0.1479,-0.1881,-0.2351,-0.2618,-0.3021,-0.3355,-0.3825,-0.4225,-0.4558,-0.516,-0.5362,-0.5295,-0.5431,-0.5635,-0.5367,-0.5165,-0.5429,-0.5163,-0.5098,-0.5165,-0.5165,-0.4698,-0.3897,-0.3697,-0.3027,-0.2625,-0.2424,-0.2423,-0.2691,-0.2826,-0.2959,-0.2959,-0.2959,-0.3227,-0.3897,-0.4567,-0.5235,-0.5769,-0.6502,-0.73,-0.8105,-0.9175,-0.9779,-1.0651,-1.0721,-1.0721,-1.0721,-1.0721,-1.0787,-1.0721,-1.0787,-1.0721,-1.0721,-1.0721,-1.0721,-1.0721,-1.0721,-1.0721,-1.0721,-1.0721,-1.0721,-1.0721,-1.0721,-1.0721,-1.0721,-1.0721,-1.0721,-1.0721,-1.0721,-1.0721,-1.0721,-1.0721,-1.0721,-1.0721,-1.0721,-1.0721,0.0,0.0,0.0,0.0,0.0,0.0,0.0,0.0,0.0,0.0,0.0,0.0,0.0,0.0,0.0,0.0,0.0,0.0,0.0,0.0,0.0,0.0,0.0,0.0,0.0,0.0,-0.0538,0.0,-0.0941,-0.1545,-0.2351,-0.2887,-0.3089,-0.3691,-0.4159,-0.4293,-0.3824,-0.3088,-0.2819,-0.3156,-0.3758,-0.4293,-0.4561,-0.4962,-0.5163,-0.5629,-0.5964,-0.6162,-0.6836,-0.7238,-0.7305,-0.7503,-0.7574,-0.7438,-0.6435,-0.6498,-0.6164,-0.6097,-0.6097,-0.6164,-0.5834,-0.5434,-0.5101,-0.4766,-0.4097,-0.3696,-0.3896,-0.4029,-0.4029,-0.3962,-0.3963,-0.3963,-0.4498,-0.5099,-0.5769,-0.6435,-0.7102,-0.7836,-0.8571,-0.9377,-0.9978,-1.0515,-1.0784,-1.0784,-1.085,-1.1049,-1.1181,-1.1115,-1.0986,-1.0853,-1.0787,-1.0721,-1.0721,-1.0721,-1.0721,-1.0787,-1.0787,-1.0787,-1.0721,-1.0721,-1.0721,-1.0721,-1.0721,-1.0721,-1.0721,-1.0721,-1.0787,-1.0721,-1.0721,-1.0721,-1.0721,-1.0721,-1.0721,-1.0721,-1.0721,0.0,0.0,0.0,0.0,0.0,0.0,0.0,0.0,0.0,0.0,0.0,0.0,0.0,0.0,0.0,0.0,0.0,0.0,0.0,0.0,0.0,0.0,0.0,0.0,0.0,0.0,-0.1412,-0.2284,-0.262,-0.3155,-0.3824,-0.4494,-0.4827,-0.536,-0.5899,-0.6076,-0.5941,-0.5962,-0.5549,-0.5606,-0.5559,-0.5631,-0.5763,-0.6099,-0.6833,-0.7702,-0.8038,-0.8781,-0.993,-1.006,-1.0123,-1.0117,-0.9779,-0.931,-0.8105,-0.7567,-0.7434,-0.7434,-0.75,-0.7503,-0.71,-0.6769,-0.6566,-0.6433,-0.5967,-0.5033,-0.5033,-0.5232,-0.523,-0.523,-0.5232,-0.5299,-0.57,-0.6368,-0.7105,-0.7905,-0.877,-0.944,-1.0044,-1.0581,-1.0714,-1.1118,-1.1181,-1.1185,-1.1247,-1.1512,-1.1582,-1.1446,-1.1383,-1.1185,-1.1052,-1.092,-1.0986,-1.1052,-1.1052,-1.1052,-1.092,-1.0853,-1.0787,-1.0721,-1.0721,-1.0721,-1.0721,-1.0853,-1.0986,-1.0853,-1.0853,-1.0853,-1.0853,-1.0721,-1.0721,-1.0721,-1.0721,-1.0721,-1.0721,0.0,0.0,0.0,0.0,0.0,0.0,0.0,0.0,0.0,0.0,0.0,0.0,0.0,0.0,0.0,0.0,0.0,0.0,0.0,0.0,0.0,0.0,-0.1409,-0.1605,-0.2077,-0.3088,-0.3624,-0.3812,-0.4207,-0.468,-0.5355,-0.6293,-0.6683,-0.7135,-0.8002,-0.8159,-0.8207,-0.8387,-0.8278,-0.7619,-0.7131,-0.81,-0.8717,-0.8651,-0.9117,-0.918,-0.9449,-0.9718,-1.0256,-1.0455,-1.0588,-1.0588,-1.0585,-1.0316,-1.0047,-0.9712,-0.931,-0.9241,-0.9241,-0.9108,-0.8776,-0.8304,-0.8038,-0.8105,-0.7636,-0.6569,-0.6101,-0.6433,-0.6631,-0.6631,-0.6698,-0.6833,-0.7034,-0.7836,-0.8507,-0.944,-1.0376,-1.0913,-1.1449,-1.1516,-1.1516,-1.1516,-1.1582,-1.1648,-1.1644,-1.1714,-1.1714,-1.1714,-1.178,-1.1648,-1.1648,-1.1582,-1.1516,-1.1582,-1.1449,-1.1383,-1.1251,-1.1118,-1.1118,-1.0982,-1.0787,-1.092,-1.1118,-1.1185,-1.1251,-1.1185,-1.1118,-1.1118,-1.1052,-1.0916,-1.092,-1.0986,-1.092,-1.092,-1.0787,0.0,0.0,0.0,0.0,0.0,0.0,0.0,0.0,-0.0594,-0.0858,-0.0728,0.0,0.0,0.0,0.0,-0.0605,-0.0806,0.0,0.0,0.0,-0.1663,0.0,-0.2712,-0.2907,-0.3159,-0.4083,-0.4937,-0.5326,-0.5935,-0.6509,-0.7224,-0.7903,-0.8296,-0.8822,-0.9739,-0.9734,-0.9922,-1.012,-1.0113,-0.9546,-0.8648,-0.9566,-1.011,-1.0123,-1.0187,-1.0253,-1.0323,-1.0389,-1.0522,-1.0654,-1.0654,-1.0721,-1.0717,-1.0585,-1.0651,-1.0585,-1.0518,-1.0721,-1.0721,-1.0585,-1.0319,-0.9712,-0.951,-0.951,-0.9775,-0.8906,-0.8706,-0.8972,-0.9036,-0.9105,-0.9235,-0.9305,-0.9504,-1.0107,-1.0306,-1.0773,-1.1178,-1.138,-1.1648,-1.1652,-1.1714,-1.178,-1.1846,-1.178,-1.1912,-1.2243,-1.2177,-1.2111,-1.2177,-1.2111,-1.2111,-1.2111,-1.2045,-1.185,-1.1718,-1.1648,-1.1582,-1.1516,-1.1449,-1.1383,-1.1317,-1.1383,-1.1512,-1.1578,-1.1582,-1.1582,-1.1516,-1.1449,-1.1449,-1.138,-1.1317,-1.1251,-1.1185,-1.1118,-1.1118,0.0,0.0,0.0,0.0,0.0,0.0,0.0,-0.0775,-0.174,-0.2256,-0.2135,-0.1125,-0.0535,0.0,0.0,0.0,-0.2001,-0.219,-0.3038,-0.3485,-0.3739,-0.3854,-0.4023,-0.4257,-0.4654,-0.5236,-0.6074,-0.7231,-0.8207,-0.8461,-0.8654,-0.9255,-0.9567,-0.9825,-0.9882,-1.0002,-1.022,-1.025,-1.023,-1.0213,-1.0321,-1.0521,-1.0547,-1.0597,-1.069,-1.07,-1.0707,-1.0717,-1.0717,-1.0717,-1.0721,-1.0721,-1.0721,-1.0721,-1.0721,-1.0721,-1.0721,-1.0721,-1.0721,-1.0717,-1.0654,-1.0654,-1.0787,-1.0853,-1.1052,-1.1049,-1.0916,-1.0916,-1.1045,-1.1045,-1.1178,-1.1247,-1.1512,-1.1644,-1.171,-1.171,-1.1846,-1.1912,-1.1912,-1.1978,-1.2045,-1.2107,-1.2111,-1.2045,-1.2243,-1.2572,-1.2704,-1.2704,-1.2638,-1.2507,-1.2507,-1.2441,-1.2379,-1.218,-1.1978,-1.1978,-1.2045,-1.1912,-1.1846,-1.1846,-1.1846,-1.1846,-1.1846,-1.1843,-1.1909,-1.1978,-1.1912,-1.1846,-1.1843,-1.1776,-1.1648,-1.1519,-1.1585,-1.1516,-1.1652,-0.2254,-0.3154,-0.3153,-0.3152,-0.3088,-0.3088,-0.3154,-0.3153,-0.3343,-0.3539,-0.3537,-0.3418,-0.3179,-0.3179,0.0,-0.3445,-0.3462,-0.3651,-0.3573,-0.3878,-0.4522,-0.4962,-0.5388,-0.5734,-0.6545,-0.7179,-0.7737,-0.8469,-0.8986,-0.9329,-0.9491,-0.9596,-0.9935,-1.0122,-1.0176,-1.0202,-1.0134,-1.0161,-1.0151,-1.0131,-1.0232,-1.0348,-1.0422,-1.048,-1.0534,-1.0616,-1.0677,-1.0714,-1.0721,-1.0721,-1.0707,-1.07,-1.0704,-1.0707,-1.0721,-1.0787,-1.0787,-1.085,-1.085,-1.0853,-1.092,-1.1118,-1.1185,-1.1317,-1.1449,-1.1648,-1.1512,-1.1578,-1.1644,-1.1644,-1.1714,-1.1714,-1.1846,-1.1912,-1.1975,-1.2111,-1.2177,-1.2375,-1.2507,-1.2507,-1.2507,-1.2572,-1.2572,-1.2507,-1.2507,-1.277,-1.277,-1.277,-1.2704,-1.277,-1.277,-1.2704,-1.2576,-1.2638,-1.2638,-1.2507,-1.2441,-1.2309,-1.2177,-1.2177,-1.2111,-1.2111,-1.2177,-1.2177,-1.2309,-1.2441,-1.2375,-1.2177,-1.2111,-1.1978,-1.1846,-1.1784,-1.185,-1.1912,-1.2045]},{"header":{"parameterUnit":"m.s-1","parameterCategory":1,"la1":31.0,"la2":29.5877,"lo1":-88.7671,"lo2":-86.6584,"dy":0.0162,"dx":0.0185,"nx":115,"ny":88,"refTime":"2024-09-04T00:00:00:Z","depth":0,"parameterNumber":3,"parameterNumberName":"V-component_of_WINDS"},"data":[0.0,0.0,0.0,0.0,0.0,0.0,0.0,0.0,0.0,0.0,0.0,0.0,0.0,0.0,0.0,0.0,0.0,0.0,0.0,0.0,0.0,0.0,0.0,0.0,0.0,0.0,0.0,0.0,0.0,0.0,0.0,0.0,0.0,0.0,0.0,0.0,0.0,0.0,0.0,0.0,0.0,0.0,0.0,0.0,0.0,0.0,0.0,0.0,0.0,0.0,0.0,0.0,0.0,0.0,0.0,0.0,0.0,0.0,0.0,0.0,0.0,0.0,0.0,0.0,0.0,0.0,0.0,0.0,0.0,0.0,0.0,0.0,0.0,0.0,0.0,0.0,0.0,0.0,0.0,0.0,0.0,0.0,0.0,0.0,0.0,0.0,0.0,0.0,0.0,0.0,0.0,0.0,0.0,0.0,0.0,0.0,0.0,0.0,0.0,0.0,0.0,0.0,0.0,0.0,0.0,0.0,0.0,0.0,0.0,0.0,0.0,0.0,0.0,0.0,0.0,0.0,0.0,0.0,0.0,0.0,0.0,0.0,0.0,0.0,0.0,0.0,0.0,0.0,0.0,0.0,0.0,0.0,0.0,0.0,0.0,0.0,0.0,0.0,0.0,0.0,0.0,0.0,0.0,0.0,0.0,0.0,0.0,0.0,0.0,0.0,0.0,0.0,0.0,0.0,0.0,0.0,0.0,0.0,0.0,0.0,0.0,0.0,0.0,0.0,0.0,0.0,0.0,0.0,0.0,0.0,0.0,0.0,0.0,0.0,0.0,0.0,0.0,0.0,0.0,0.0,0.0,0.0,0.0,0.0,0.0,0.0,0.0,0.0,0.0,0.0,0.0,0.0,0.0,0.0,0.0,0.0,0.0,0.0,0.0,0.0,0.0,0.0,0.0,0.0,0.0,0.0,0.0,0.0,0.0,0.0,0.0,0.0,0.0,0.0,0.0,0.0,0.0,0.0,0.0,0.0,0.0,0.0,0.0,0.0,0.0,0.0,0.0,0.0,0.0,0.0,0.0,0.0,0.0,0.0,0.0,0.0,0.0,0.0,0.0,0.0,0.0,0.0,0.0,0.0,0.0,0.0,0.0,0.0,0.0,0.0,0.0,0.0,0.0,0.0,0.0,0.0,0.0,0.0,0.0,0.0,0.0,0.0,0.0,0.0,0.0,0.0,0.0,0.0,0.0,0.0,0.0,0.0,0.0,0.0,0.0,0.0,0.0,0.0,0.0,0.0,0.0,0.0,0.0,0.0,0.0,0.0,0.0,0.0,0.0,0.0,0.0,0.0,0.0,0.0,0.0,0.0,0.0,0.0,0.0,0.0,0.0,0.0,0.0,0.0,0.0,0.0,0.0,0.0,0.0,0.0,0.0,0.0,0.0,0.0,0.0,0.0,0.0,0.0,0.0,0.0,0.0,0.0,0.0,0.0,0.0,0.0,0.0,0.0,0.0,0.0,0.0,0.0,0.0,0.0,0.0,0.0,0.0,0.0,0.0,0.0,0.0,0.0,0.0,0.0,0.0,0.0,0.0,0.0,0.0,0.0,0.0,0.0,0.0,0.0,0.0,0.0,0.0,0.0,0.0,0.0,0.0,0.0,0.0,0.0,0.0,0.0,0.0,0.0,0.0,0.0,0.0,0.0,0.0,0.0,0.0,0.0,0.0,0.0,0.0,0.0,0.0,0.0,0.0,0.0,0.0,0.0,0.0,0.0,0.0,0.0,0.0,0.0,0.0,0.0,0.0,0.0,0.0,0.0,0.0,0.0,0.0,0.0,0.0,0.0,0.0,0.0,0.0,0.0,0.0,0.0,0.0,0.0,0.0,0.0,0.0,0.0,0.0,0.0,0.0,0.0,0.0,0.0,0.0,0.0,0.0,0.0,0.0,0.0,0.0,0.0,0.0,0.0,0.0,0.0,0.0,0.0,0.0,0.0,0.0,0.0,0.0,0.0,0.0,0.0,0.0,0.0,0.0,0.0,0.0,0.0,0.0,0.0,0.0,0.0,0.0,0.0,0.0,0.0,0.0,0.0,0.0,0.0,0.0,0.0,0.0,0.0,0.0,0.0,0.0,0.0,0.0,0.0,0.0,0.0,0.0,0.0,0.0,0.0,0.0,0.0,0.0,0.0,0.0,0.0,0.0,0.0,0.0,0.0,0.0,0.0,0.0,0.0,0.0,0.0,0.0,0.0,0.0,0.0,0.0,0.0,0.0,0.0,0.0,0.0,0.0,0.0,0.0,0.0,0.0,0.0,0.0,0.0,0.0,0.0,0.0,0.0,0.0,0.0,0.0,0.0,0.0,0.0,0.0,0.0,0.0,0.0,0.0,0.0,0.0,0.0,0.0,0.0,0.0,0.0,0.0,0.0,0.0,0.0,0.0,0.0,0.0,0.0,0.0,0.0,0.0,0.0,0.0,0.0,0.0,0.0,0.0,0.0,0.0,0.0,0.0,0.0,0.0,0.0,0.0,0.0,0.0,0.0,0.0,0.0,0.0,0.0,0.0,0.0,0.0,0.0,0.0,0.0,0.0,0.0,0.0,0.0,0.0,0.0,0.0,0.0,0.0,0.0,0.0,0.0,0.0,0.0,0.0,0.0,0.0,0.0,0.0,0.0,0.0,0.0,0.0,0.0,0.0,0.0,0.0,0.0,0.0,0.0,0.0,0.0,0.0,0.0,0.0,0.0,0.0,0.0,0.0,0.0,0.0,0.0,0.0,0.0,0.0,0.0,0.0,0.0,0.0,0.0,0.0,0.0,0.0,0.0,0.0,0.0,0.0,0.0,0.0,0.0,0.0,0.0,0.0,0.0,0.0,0.0,0.0,0.0,0.0,0.0,0.0,0.0,0.0,0.0,0.0,0.0,0.0,0.0,0.0,0.0,0.0,0.0,0.0,0.0,0.0,0.0,0.0,0.0,0.0,0.0,0.0,0.0,0.0,0.0,0.0,0.0,0.0,0.0,0.0,0.0,0.0,0.0,0.0,0.0,0.0,0.0,0.0,0.0,0.0,0.0,0.0,0.0,0.0,0.0,0.0,0.0,0.0,0.0,0.0,0.0,0.0,0.0,0.0,0.0,0.0,0.0,0.0,0.0,0.0,0.0,0.0,0.0,0.0,0.0,0.0,0.0,0.0,0.0,0.0,0.0,0.0,0.0,0.0,0.0,0.0,0.0,0.0,0.0,0.0,0.0,0.0,0.0,0.0,0.0,0.0,0.0,0.0,0.0,0.0,0.0,0.0,0.0,0.0,0.0,0.0,0.0,0.0,0.0,0.0,0.0,0.0,0.0,0.0,0.0,0.0,0.0,0.0,0.0,0.0,0.0,0.0,0.0,0.0,0.0,0.0,0.0,0.0,0.0,0.0,0.0,0.0,0.0,0.0,0.0,0.0,0.0,0.0,0.0,0.0,0.0,0.0,0.0,0.0,0.0,0.0,0.0,0.0,0.0,0.0,0.0,0.0,0.0,0.0,0.0,0.0,0.0,0.0,0.0,0.0,0.0,0.0,0.0,0.0,0.0,0.0,0.0,0.0,0.0,0.0,0.0,0.0,0.0,0.0,0.0,0.0,0.0,0.0,0.0,0.0,0.0,0.0,0.0,0.0,0.0,0.0,0.0,0.0,0.0,0.0,0.0,0.0,0.0,0.0,0.0,0.0,0.0,0.0,0.0,0.0,0.0,0.0,0.0,0.0,0.0,0.0,0.0,0.0,0.0,0.0,0.0,0.0,0.0,0.0,0.0,0.0,0.0,0.0,0.0,0.0,0.0,0.0,0.0,0.0,0.0,0.0,0.0,0.0,0.0,0.0,0.0,0.0,0.0,0.0,0.0,0.0,0.0,0.0,0.0,0.0,0.0,0.0,0.0,0.0,0.0,0.0,0.0,0.0,0.0,0.0,0.0,0.0,0.0,0.0,0.0,0.0,0.0,0.0,0.0,0.0,0.0,0.0,0.0,0.0,0.0,0.0,0.0,0.0,0.0,0.0,0.0,0.0,0.0,0.0,0.0,0.0,0.0,0.0,0.0,0.0,0.0,0.0,0.0,0.0,0.0,0.0,0.0,0.0,0.0,0.0,0.0,0.0,0.0,0.0,0.0,0.0,0.0,0.0,0.0,0.0,0.0,0.0,0.0,0.0,0.0,0.0,0.0,0.0,0.0,0.0,0.0,0.0,0.0,0.0,0.0,0.0,0.0,0.0,0.0,0.0,0.0,0.0,0.0,0.0,0.0,0.0,0.0,0.0,0.0,0.0,0.0,0.0,0.0,0.0,0.0,2.8874,0.0,0.0,0.0,0.0,0.0,0.0,0.0,0.0,0.0,0.0,0.0,0.0,0.0,0.0,0.0,0.0,0.0,0.0,0.0,0.0,0.0,0.0,0.0,0.0,0.0,0.0,0.0,0.0,0.0,0.0,0.0,0.0,0.0,0.0,0.0,0.0,0.0,0.0,0.0,0.0,0.0,0.0,0.0,0.0,0.0,0.0,0.0,0.0,0.0,0.0,0.0,0.0,0.0,0.0,0.0,0.0,0.0,0.0,0.0,0.0,0.0,0.0,0.0,0.0,0.0,0.0,0.0,0.0,0.0,0.0,0.0,0.0,0.0,0.0,0.0,0.0,0.0,0.0,0.0,0.0,0.0,0.0,0.0,0.0,0.0,0.0,0.0,0.0,0.0,0.0,0.0,0.0,0.0,0.0,0.0,0.0,0.0,0.0,0.0,0.0,0.0,0.0,0.0,0.0,0.0,0.0,0.0,0.0,0.0,0.0,3.0784,3.1173,3.048,2.9753,2.9044,0.0,0.0,0.0,0.0,0.0,0.0,0.0,0.0,0.0,0.0,0.0,0.0,0.0,0.0,0.0,0.0,0.0,0.0,0.0,0.0,0.0,0.0,0.0,0.0,0.0,0.0,0.0,0.0,0.0,0.0,0.0,0.0,0.0,0.0,0.0,0.0,0.0,0.0,0.0,0.0,0.0,0.0,0.0,0.0,0.0,0.0,0.0,0.0,0.0,0.0,0.0,0.0,0.0,0.0,0.0,0.0,0.0,0.0,0.0,0.0,0.0,0.0,0.0,0.0,0.0,0.0,0.0,0.0,0.0,0.0,0.0,0.0,0.0,0.0,0.0,0.0,0.0,0.0,0.0,0.0,0.0,0.0,0.0,0.0,0.0,0.0,0.0,0.0,0.0,0.0,0.0,0.0,0.0,0.0,0.0,0.0,0.0,0.0,0.0,0.0,0.0,0.0,0.0,0.0,0.0,0.0,0.0,0.0,0.0,0.0,0.0,0.0,3.1157,3.0429,2.9551,0.0,0.0,0.0,0.0,0.0,0.0,0.0,0.0,0.0,0.0,0.0,0.0,0.0,0.0,0.0,0.0,0.0,0.0,0.0,0.0,0.0,0.0,0.0,0.0,0.0,0.0,0.0,0.0,0.0,0.0,0.0,0.0,0.0,0.0,0.0,0.0,0.0,0.0,0.0,0.0,0.0,0.0,0.0,0.0,0.0,0.0,0.0,0.0,0.0,0.0,0.0,0.0,0.0,0.0,0.0,0.0,0.0,0.0,0.0,0.0,0.0,0.0,0.0,0.0,0.0,0.0,0.0,0.0,0.0,0.0,0.0,0.0,0.0,0.0,0.0,0.0,0.0,0.0,0.0,0.0,0.0,0.0,0.0,0.0,0.0,0.0,0.0,0.0,0.0,0.0,0.0,0.0,0.0,0.0,0.0,0.0,0.0,0.0,0.0,0.0,0.0,0.0,0.0,0.0,0.0,0.0,0.0,0.0,0.0,0.0,3.1069,3.3098,3.3081,0.0,3.1123,0.0,0.0,0.0,0.0,0.0,0.0,0.0,0.0,0.0,0.0,0.0,0.0,0.0,0.0,0.0,0.0,0.0,0.0,0.0,0.0,0.0,0.0,0.0,0.0,0.0,0.0,0.0,0.0,0.0,0.0,0.0,0.0,0.0,0.0,0.0,0.0,0.0,0.0,0.0,0.0,0.0,0.0,0.0,0.0,0.0,0.0,0.0,0.0,0.0,0.0,0.0,0.0,0.0,0.0,0.0,0.0,0.0,0.0,0.0,0.0,0.0,0.0,0.0,0.0,0.0,0.0,0.0,0.0,0.0,0.0,0.0,0.0,0.0,0.0,0.0,0.0,0.0,0.0,0.0,0.0,0.0,0.0,0.0,0.0,0.0,0.0,0.0,0.0,0.0,0.0,0.0,0.0,0.0,0.0,0.0,0.0,0.0,0.0,0.0,0.0,0.0,0.0,0.0,0.0,0.0,0.0,0.0,0.0,0.0,0.0,3.1393,3.2713,3.2324,3.1613,0.0,0.0,0.0,0.0,0.0,0.0,0.0,0.0,0.0,0.0,0.0,0.0,0.0,0.0,0.0,0.0,0.0,0.0,0.0,0.0,0.0,0.0,0.0,0.0,0.0,0.0,0.0,0.0,0.0,0.0,0.0,0.0,0.0,0.0,0.0,0.0,0.0,0.0,0.0,0.0,0.0,0.0,0.0,0.0,0.0,0.0,0.0,0.0,0.0,0.0,0.0,0.0,0.0,0.0,0.0,0.0,0.0,0.0,0.0,0.0,0.0,0.0,0.0,0.0,0.0,0.0,0.0,0.0,0.0,0.0,0.0,0.0,0.0,0.0,0.0,0.0,0.0,0.0,0.0,0.0,0.0,0.0,0.0,0.0,0.0,0.0,0.0,0.0,0.0,0.0,0.0,0.0,0.0,0.0,0.0,0.0,0.0,0.0,0.0,0.0,0.0,0.0,0.0,0.0,0.0,0.0,0.0,0.0,0.0,0.0,3.097,3.1752,3.2801,3.2391,3.1393,2.9854,0.0,0.0,0.0,0.0,0.0,0.0,0.0,0.0,0.0,0.0,0.0,0.0,0.0,0.0,0.0,0.0,0.0,0.0,0.0,0.0,0.0,0.0,0.0,0.0,0.0,0.0,0.0,0.0,0.0,0.0,0.0,0.0,0.0,0.0,0.0,0.0,0.0,0.0,0.0,0.0,0.0,0.0,0.0,0.0,0.0,0.0,0.0,0.0,0.0,0.0,0.0,0.0,0.0,0.0,0.0,0.0,0.0,0.0,0.0,0.0,0.0,0.0,0.0,0.0,0.0,0.0,0.0,0.0,0.0,0.0,0.0,0.0,0.0,0.0,0.0,0.0,0.0,0.0,0.0,0.0,0.0,0.0,0.0,0.0,0.0,0.0,0.0,0.0,0.0,0.0,0.0,0.0,0.0,0.0,0.0,0.0,0.0,0.0,0.0,0.0,0.0,0.0,0.0,0.0,0.0,0.0,0.0,0.0,0.0,3.2188,3.2205,3.432,3.4375,3.2682,0.0,0.0,0.0,0.0,0.0,0.0,0.0,0.0,0.0,0.0,0.0,0.0,0.0,0.0,0.0,0.0,0.0,0.0,0.0,0.0,0.0,0.0,0.0,0.0,0.0,0.0,0.0,0.0,0.0,0.0,0.0,0.0,0.0,0.0,0.0,0.0,0.0,0.0,0.0,0.0,0.0,0.0,0.0,0.0,0.0,0.0,0.0,0.0,0.0,0.0,0.0,0.0,0.0,0.0,0.0,0.0,0.0,0.0,0.0,0.0,0.0,0.0,0.0,0.0,0.0,0.0,0.0,0.0,0.0,0.0,0.0,0.0,0.0,0.0,0.0,0.0,0.0,0.0,0.0,0.0,0.0,0.0,0.0,0.0,0.0,0.0,0.0,0.0,0.0,0.0,0.0,0.0,0.0,0.0,0.0,0.0,0.0,0.0,0.0,0.0,0.0,0.0,0.0,0.0,0.0,0.0,0.0,0.0,0.0,2.9465,3.0125,3.2256,3.5678,3.275,3.1007,0.0,0.0,0.0,0.0,0.0,0.0,0.0,0.0,0.0,0.0,0.0,0.0,0.0,0.0,0.0,0.0,0.0,0.0,0.0,0.0,0.0,0.0,0.0,0.0,0.0,0.0,0.0,0.0,0.0,0.0,0.0,0.0,0.0,0.0,0.0,0.0,0.0,0.0,0.0,0.0,0.0,0.0,0.0,0.0,0.0,0.0,0.0,0.0,0.0,0.0,0.0,0.0,0.0,0.0,0.0,0.0,0.0,0.0,0.0,0.0,0.0,0.0,0.0,0.0,0.0,0.0,0.0,0.0,0.0,0.0,0.0,0.0,0.0,0.0,0.0,0.0,0.0,0.0,0.0,0.0,0.0,0.0,0.0,0.0,0.0,0.0,0.0,0.0,0.0,0.0,0.0,0.0,0.0,0.0,0.0,0.0,0.0,0.0,0.0,0.0,0.0,0.0,0.0,0.0,0.0,0.0,0.0,0.0,0.0,2.8873,0.0,3.3389,0.0,3.2293,3.0228,0.0,0.0,0.0,0.0,0.0,0.0,0.0,0.0,0.0,0.0,0.0,0.0,0.0,0.0,0.0,0.0,0.0,0.0,0.0,0.0,0.0,0.0,0.0,0.0,0.0,0.0,0.0,0.0,0.0,0.0,0.0,0.0,0.0,0.0,0.0,0.0,0.0,0.0,0.0,0.0,0.0,0.0,0.0,0.0,0.0,0.0,0.0,0.0,0.0,0.0,0.0,0.0,0.0,0.0,0.0,0.0,0.0,0.0,0.0,0.0,0.0,0.0,0.0,0.0,0.0,0.0,0.0,0.0,0.0,0.0,0.0,0.0,0.0,0.0,0.0,0.0,0.0,0.0,0.0,0.0,0.0,0.0,0.0,0.0,0.0,0.0,0.0,0.0,0.0,0.0,0.0,0.0,0.0,0.0,0.0,0.0,0.0,0.0,0.0,0.0,0.0,0.0,0.0,0.0,0.0,0.0,0.0,0.0,2.8941,3.3098,3.5391,3.552,3.3592,3.3305,3.0565,0.0,0.0,0.0,0.0,0.0,0.0,0.0,0.0,0.0,0.0,0.0,0.0,0.0,0.0,0.0,0.0,0.0,0.0,0.0,0.0,0.0,0.0,0.0,0.0,0.0,0.0,0.0,0.0,0.0,0.0,0.0,0.0,0.0,0.0,0.0,0.0,0.0,0.0,0.0,0.0,0.0,0.0,0.0,0.0,0.0,0.0,0.0,0.0,0.0,0.0,0.0,0.0,0.0,0.0,0.0,0.0,0.0,0.0,0.0,0.0,0.0,0.0,0.0,0.0,0.0,0.0,0.0,0.0,0.0,0.0,0.0,0.0,0.0,0.0,0.0,0.0,0.0,0.0,0.0,0.0,0.0,0.0,0.0,0.0,0.0,0.0,0.0,0.0,0.0,0.0,0.0,0.0,0.0,0.0,0.0,0.0,0.0,0.0,0.0,0.0,0.0,0.0,0.0,0.0,0.0,0.0,0.0,0.0,0.0,3.1173,3.3305,3.5115,3.6299,3.2493,3.0446,0.0,0.0,0.0,0.0,0.0,0.0,0.0,0.0,0.0,0.0,0.0,0.0,0.0,0.0,0.0,0.0,0.0,0.0,0.0,0.0,0.0,0.0,0.0,0.0,0.0,0.0,0.0,0.0,0.0,0.0,0.0,0.0,0.0,0.0,0.0,0.0,0.0,0.0,0.0,0.0,0.0,0.0,0.0,0.0,0.0,0.0,0.0,0.0,0.0,0.0,0.0,0.0,0.0,0.0,0.0,0.0,0.0,0.0,0.0,0.0,0.0,0.0,0.0,0.0,0.0,0.0,0.0,0.0,0.0,0.0,0.0,0.0,0.0,0.0,0.0,0.0,0.0,0.0,0.0,0.0,0.0,0.0,0.0,0.0,0.0,0.0,0.0,0.0,0.0,0.0,0.0,0.0,0.0,0.0,0.0,0.0,0.0,0.0,0.0,0.0,0.0,0.0,0.0,0.0,0.0,0.0,0.0,0.0,0.0,3.3132,3.5165,3.6806,3.7889,3.3711,3.1664,3.2053,0.0,0.0,0.0,0.0,0.0,0.0,0.0,0.0,0.0,0.0,0.0,0.0,0.0,0.0,0.0,0.0,0.0,0.0,0.0,0.0,0.0,0.0,0.0,0.0,0.0,0.0,0.0,0.0,0.0,0.0,0.0,0.0,0.0,0.0,0.0,0.0,0.0,0.0,0.0,0.0,0.0,0.0,0.0,0.0,0.0,0.0,0.0,0.0,0.0,0.0,0.0,0.0,0.0,0.0,0.0,0.0,0.0,0.0,0.0,0.0,0.0,0.0,0.0,0.0,0.0,0.0,0.0,0.0,0.0,0.0,0.0,0.0,0.0,0.0,0.0,0.0,0.0,0.0,0.0,0.0,0.0,0.0,0.0,0.0,0.0,0.0,0.0,0.0,0.0,0.0,0.0,0.0,0.0,0.0,0.0,0.0,0.0,0.0,0.0,0.0,0.0,0.0,0.0,0.0,0.0,0.0,0.0,0.0,3.8058,4.0206,4.0324,3.8328,3.6529,3.4044,0.0,0.0,0.0,0.0,0.0,0.0,0.0,0.0,0.0,0.0,0.0,0.0,0.0,0.0,0.0,0.0,0.0,0.0,0.0,0.0,0.0,0.0,0.0,0.0,0.0,0.0,0.0,0.0,0.0,0.0,0.0,0.0,0.0,0.0,0.0,0.0,0.0,0.0,0.0,0.0,0.0,0.0,0.0,0.0,0.0,0.0,0.0,0.0,0.0,0.0,0.0,0.0,0.0,0.0,0.0,0.0,0.0,0.0,0.0,0.0,0.0,0.0,0.0,0.0,0.0,0.0,0.0,0.0,0.0,0.0,0.0,0.0,0.0,0.0,0.0,0.0,0.0,0.0,0.0,0.0,0.0,0.0,0.0,0.0,0.0,0.0,0.0,0.0,0.0,0.0,0.0,0.0,0.0,0.0,0.0,0.0,0.0,0.0,0.0,0.0,0.0,0.0,0.0,0.0,0.0,0.0,0.0,0.0,0.0,4.0307,4.1982,4.253,4.1888,3.8413,3.6028,0.0,0.0,0.0,0.0,0.0,0.0,0.0,0.0,0.0,0.0,0.0,0.0,0.0,0.0,0.0,0.0,0.0,0.0,0.0,0.0,0.0,0.0,0.0,0.0,0.0,0.0,0.0,0.0,0.0,0.0,0.0,0.0,0.0,0.0,0.0,0.0,0.0,0.0,0.0,0.0,0.0,0.0,0.0,0.0,0.0,0.0,0.0,0.0,0.0,0.0,0.0,0.0,0.0,0.0,0.0,0.0,0.0,0.0,0.0,0.0,0.0,0.0,0.0,0.0,0.0,0.0,0.0,0.0,0.0,0.0,0.0,0.0,0.0,0.0,0.0,0.0,0.0,0.0,0.0,0.0,0.0,0.0,0.0,0.0,0.0,0.0,0.0,0.0,0.0,0.0,0.0,0.0,0.0,0.0,0.0,0.0,0.0,0.0,0.0,0.0,0.0,0.0,0.0,0.0,0.0,0.0,0.0,0.0,4.0553,4.3129,4.4259,4.484,4.484,4.0815,3.8065,0.0,0.0,0.0,0.0,0.0,0.0,0.0,0.0,0.0,0.0,0.0,0.0,0.0,0.0,0.0,0.0,0.0,0.0,0.0,0.0,0.0,0.0,0.0,0.0,0.0,0.0,0.0,0.0,0.0,0.0,0.0,0.0,0.0,0.0,0.0,0.0,0.0,0.0,0.0,0.0,0.0,0.0,0.0,0.0,0.0,0.0,0.0,0.0,0.0,0.0,0.0,0.0,0.0,0.0,0.0,0.0,0.0,0.0,0.0,0.0,0.0,0.0,0.0,0.0,0.0,0.0,0.0,0.0,0.0,0.0,0.0,0.0,0.0,0.0,0.0,0.0,0.0,0.0,0.0,0.0,0.0,0.0,0.0,0.0,0.0,0.0,0.0,0.0,0.0,0.0,0.0,0.0,0.0,0.0,0.0,0.0,0.0,0.0,0.0,0.0,0.0,0.0,0.0,0.0,0.0,0.0,0.0,0.0,4.2938,4.5728,4.6564,4.69,4.673,4.3345,4.0062,0.0,0.0,0.0,0.0,0.0,0.0,0.0,0.0,0.0,0.0,0.0,0.0,0.0,0.0,0.0,0.0,0.0,0.0,0.0,0.0,0.0,0.0,0.0,0.0,0.0,0.0,0.0,0.0,0.0,0.0,0.0,0.0,0.0,0.0,0.0,0.0,0.0,0.0,0.0,0.0,0.0,0.0,0.0,0.0,0.0,0.0,0.0,0.0,0.0,0.0,0.0,0.0,0.0,0.0,0.0,0.0,0.0,0.0,0.0,0.0,0.0,0.0,0.0,0.0,0.0,0.0,0.0,0.0,0.0,0.0,0.0,0.0,0.0,0.0,0.0,0.0,0.0,0.0,0.0,0.0,0.0,0.0,0.0,0.0,0.0,0.0,0.0,0.0,0.0,0.0,0.0,0.0,0.0,0.0,0.0,0.0,0.0,0.0,0.0,0.0,0.0,0.0,0.0,0.0,0.0,0.0,0.0,0.0,4.4303,4.519,4.6975,4.7602,4.6944,4.451,4.1723,0.0,0.0,0.0,0.0,0.0,0.0,0.0,0.0,0.0,0.0,0.0,0.0,0.0,0.0,0.0,0.0,0.0,0.0,0.0,0.0,0.0,0.0,0.0,0.0,0.0,0.0,0.0,0.0,0.0,0.0,0.0,0.0,0.0,0.0,0.0,0.0,0.0,0.0,0.0,0.0,0.0,0.0,0.0,0.0,0.0,0.0,0.0,0.0,3.4407,0.0,0.0,0.0,0.0,0.0,0.0,0.0,0.0,0.0,0.0,0.0,0.0,0.0,0.0,0.0,0.0,0.0,0.0,0.0,0.0,0.0,0.0,0.0,0.0,0.0,0.0,0.0,0.0,0.0,0.0,0.0,0.0,0.0,0.0,0.0,0.0,0.0,0.0,0.0,0.0,0.0,0.0,0.0,0.0,0.0,0.0,0.0,0.0,0.0,0.0,0.0,0.0,0.0,0.0,0.0,0.0,0.0,0.0,0.0,4.6426,4.8633,4.9105,4.9073,4.8484,4.6901,4.3785,0.0,0.0,0.0,0.0,0.0,0.0,0.0,0.0,0.0,0.0,0.0,0.0,0.0,0.0,0.0,0.0,0.0,0.0,0.0,0.0,0.0,0.0,0.0,0.0,0.0,0.0,0.0,0.0,0.0,0.0,0.0,0.0,0.0,0.0,0.0,0.0,0.0,0.0,0.0,0.0,0.0,0.0,0.0,0.0,0.0,0.0,0.0,0.0,0.0,0.0,0.0,0.0,0.0,0.0,0.0,0.0,0.0,0.0,0.0,0.0,0.0,0.0,0.0,0.0,0.0,0.0,0.0,0.0,0.0,0.0,0.0,0.0,0.0,0.0,0.0,0.0,0.0,0.0,0.0,0.0,0.0,0.0,0.0,0.0,0.0,0.0,0.0,0.0,0.0,0.0,0.0,0.0,0.0,0.0,0.0,0.0,0.0,0.0,0.0,0.0,0.0,0.0,0.0,0.0,0.0,0.0,0.0,4.4785,4.8259,5.2518,5.1476,5.0545,4.9975,4.9142,4.5679,3.934,0.0,0.0,0.0,0.0,0.0,0.0,0.0,0.0,0.0,0.0,0.0,0.0,0.0,0.0,0.0,0.0,0.0,0.0,0.0,0.0,0.0,0.0,0.0,0.0,0.0,0.0,0.0,0.0,0.0,0.0,0.0,0.0,0.0,0.0,0.0,0.0,0.0,0.0,3.3489,3.6139,0.0,0.0,0.0,0.0,0.0,0.0,0.0,0.0,3.7188,0.0,0.0,0.0,0.0,0.0,0.0,0.0,0.0,0.0,0.0,0.0,0.0,0.0,0.0,0.0,0.0,0.0,0.0,0.0,0.0,0.0,0.0,0.0,0.0,0.0,0.0,0.0,0.0,0.0,0.0,0.0,0.0,0.0,0.0,0.0,0.0,0.0,0.0,0.0,0.0,0.0,0.0,0.0,0.0,0.0,0.0,0.0,0.0,0.0,0.0,0.0,0.0,0.0,0.0,0.0,0.0,4.522,4.5855,4.8059,5.2014,5.1884,5.0854,4.8982,4.9073,4.6091,3.9699,0.0,0.0,0.0,0.0,0.0,0.0,0.0,0.0,0.0,0.0,0.0,0.0,0.0,0.0,0.0,0.0,0.0,0.0,0.0,0.0,0.0,0.0,0.0,0.0,0.0,0.0,0.0,0.0,0.0,0.0,0.0,0.0,0.0,0.0,0.0,0.0,0.0,0.0,0.0,3.9842,4.0504,0.0,0.0,0.0,0.0,0.0,0.0,0.0,0.0,3.807,0.0,0.0,0.0,0.0,0.0,0.0,0.0,0.0,0.0,0.0,0.0,0.0,0.0,0.0,0.0,0.0,0.0,0.0,0.0,0.0,0.0,0.0,0.0,0.0,0.0,0.0,0.0,0.0,0.0,0.0,0.0,0.0,0.0,0.0,0.0,0.0,0.0,0.0,0.0,0.0,0.0,0.0,0.0,0.0,0.0,0.0,0.0,0.0,0.0,0.0,0.0,0.0,0.0,0.0,0.0,4.5638,4.7127,4.9945,5.4401,5.3152,5.1788,5.0522,4.8857,4.5527,0.0,0.0,0.0,0.0,0.0,0.0,0.0,0.0,0.0,0.0,0.0,0.0,0.0,0.0,0.0,0.0,0.0,0.0,0.0,0.0,0.0,0.0,0.0,0.0,0.0,0.0,0.0,0.0,0.0,0.0,0.0,0.0,0.0,0.0,0.0,0.0,0.0,0.0,0.0,0.0,4.0955,4.1428,4.1906,0.0,0.0,0.0,0.0,0.0,0.0,3.9244,3.8832,0.0,0.0,0.0,0.0,0.0,0.0,0.0,0.0,0.0,0.0,0.0,0.0,0.0,0.0,0.0,0.0,0.0,0.0,0.0,0.0,0.0,0.0,0.0,0.0,0.0,0.0,0.0,0.0,0.0,0.0,0.0,0.0,0.0,0.0,0.0,0.0,0.0,0.0,0.0,0.0,0.0,0.0,0.0,0.0,0.0,0.0,0.0,0.0,0.0,0.0,0.0,0.0,0.0,0.0,0.0,4.5942,4.8197,5.1808,5.6722,5.4215,5.2609,5.2341,4.8957,4.5156,0.0,0.0,0.0,0.0,0.0,0.0,0.0,0.0,0.0,0.0,0.0,0.0,0.0,0.0,0.0,0.0,0.0,0.0,0.0,0.0,0.0,0.0,0.0,0.0,0.0,0.0,0.0,0.0,0.0,0.0,0.0,0.0,0.0,0.0,0.0,0.0,0.0,0.0,0.0,0.0,0.0,4.2586,4.2611,4.1916,0.0,0.0,0.0,0.0,4.1604,4.1011,0.0,0.0,0.0,0.0,0.0,0.0,0.0,0.0,0.0,0.0,0.0,0.0,0.0,0.0,0.0,0.0,0.0,0.0,0.0,0.0,0.0,0.0,0.0,0.0,0.0,0.0,0.0,0.0,0.0,0.0,0.0,0.0,0.0,0.0,0.0,0.0,0.0,0.0,0.0,0.0,0.0,0.0,0.0,0.0,0.0,0.0,0.0,0.0,0.0,0.0,0.0,0.0,0.0,0.0,0.0,0.0,4.6637,4.8529,5.188,5.6667,5.4215,5.2689,5.2709,4.9962,4.599,0.0,0.0,0.0,0.0,0.0,0.0,0.0,0.0,0.0,0.0,0.0,0.0,0.0,0.0,0.0,0.0,0.0,0.0,0.0,0.0,0.0,0.0,0.0,0.0,0.0,0.0,0.0,0.0,0.0,0.0,0.0,0.0,0.0,0.0,0.0,0.0,0.0,0.0,0.0,0.0,0.0,4.5335,4.389,4.411,4.3918,0.0,0.0,4.3247,4.4139,4.4171,0.0,0.0,0.0,0.0,0.0,0.0,0.0,0.0,0.0,0.0,0.0,0.0,0.0,0.0,0.0,0.0,0.0,0.0,0.0,0.0,0.0,0.0,0.0,0.0,0.0,0.0,0.0,0.0,0.0,0.0,0.0,0.0,0.0,0.0,0.0,0.0,0.0,0.0,0.0,0.0,0.0,0.0,0.0,0.0,0.0,0.0,0.0,0.0,0.0,0.0,0.0,0.0,0.0,0.0,0.0,4.1009,4.728,5.0174,5.3295,5.6695,5.4353,5.2767,5.2359,4.8527,4.4296,0.0,0.0,0.0,0.0,0.0,0.0,0.0,0.0,0.0,0.0,0.0,0.0,0.0,0.0,0.0,0.0,0.0,0.0,0.0,0.0,0.0,0.0,0.0,0.0,0.0,0.0,0.0,0.0,0.0,0.0,0.0,0.0,0.0,0.0,0.0,0.0,0.0,0.0,0.0,0.0,0.0,0.0,4.6038,4.6086,0.0,0.0,0.0,4.571,4.6305,0.0,0.0,0.0,0.0,0.0,0.0,0.0,0.0,0.0,0.0,0.0,0.0,0.0,0.0,0.0,0.0,0.0,0.0,0.0,0.0,0.0,0.0,0.0,0.0,0.0,0.0,0.0,0.0,0.0,0.0,0.0,0.0,0.0,0.0,0.0,0.0,0.0,0.0,0.0,0.0,0.0,0.0,0.0,0.0,0.0,0.0,0.0,0.0,0.0,0.0,0.0,0.0,0.0,0.0,0.0,0.0,0.0,4.7445,5.1462,5.4473,5.6345,5.4142,5.2729,5.2215,4.7553,0.0,0.0,0.0,0.0,0.0,0.0,0.0,0.0,0.0,0.0,0.0,0.0,0.0,0.0,0.0,0.0,0.0,0.0,0.0,0.0,0.0,0.0,0.0,0.0,0.0,0.0,0.0,2.3977,0.0,0.0,0.0,0.0,0.0,0.0,0.0,0.0,0.0,0.0,0.0,0.0,0.0,0.0,4.6589,4.7738,4.7883,4.8009,0.0,0.0,4.8127,4.8064,4.7402,4.6099,0.0,0.0,0.0,0.0,0.0,0.0,0.0,0.0,0.0,0.0,0.0,0.0,0.0,0.0,0.0,0.0,0.0,0.0,0.0,0.0,0.0,0.0,0.0,0.0,0.0,0.0,0.0,0.0,0.0,0.0,0.0,0.0,0.0,0.0,0.0,0.0,0.0,0.0,0.0,0.0,0.0,0.0,0.0,0.0,0.0,0.0,0.0,0.0,0.0,0.0,0.0,0.0,0.0,0.0,0.0,4.6701,5.1718,5.4766,5.5578,5.3298,5.2399,5.3023,4.8379,4.4126,0.0,0.0,0.0,0.0,0.0,0.0,0.0,0.0,0.0,0.0,0.0,0.0,0.0,0.0,0.0,0.0,0.0,0.0,0.0,0.0,0.0,0.0,0.0,0.0,0.0,0.0,0.0,0.0,0.0,0.0,0.0,0.0,0.0,0.0,0.0,0.0,0.0,0.0,0.0,0.0,0.0,4.7497,4.8329,4.9537,5.0318,0.0,0.0,5.0794,4.9339,5.0268,4.9612,4.5074,0.0,0.0,0.0,0.0,0.0,0.0,0.0,0.0,0.0,0.0,0.0,0.0,0.0,0.0,0.0,0.0,0.0,0.0,0.0,0.0,0.0,0.0,0.0,0.0,0.0,0.0,0.0,0.0,0.0,0.0,0.0,0.0,0.0,0.0,0.0,0.0,0.0,0.0,0.0,0.0,0.0,0.0,0.0,0.0,0.0,0.0,0.0,0.0,0.0,0.0,0.0,0.0,0.0,4.3104,4.7618,5.2098,5.4785,5.5486,5.3225,5.1903,5.1738,4.7939,4.4254,0.0,0.0,0.0,0.0,0.0,0.0,0.0,0.0,0.0,0.0,0.0,0.0,0.0,0.0,0.0,0.0,0.0,0.0,0.0,0.0,0.0,0.0,0.0,0.0,0.0,0.0,0.0,0.0,3.038,3.1722,3.3408,0.0,0.0,0.0,0.0,0.0,0.0,0.0,0.0,0.0,0.0,4.8929,5.0221,5.0903,0.0,0.0,5.2131,5.2153,5.1529,5.069,4.9179,4.6447,4.409,0.0,0.0,0.0,0.0,0.0,0.0,0.0,0.0,0.0,0.0,0.0,0.0,0.0,0.0,0.0,0.0,0.0,0.0,0.0,0.0,0.0,0.0,0.0,0.0,0.0,0.0,0.0,0.0,0.0,0.0,0.0,0.0,0.0,0.0,0.0,0.0,0.0,0.0,0.0,0.0,0.0,0.0,0.0,0.0,0.0,0.0,0.0,0.0,0.0,0.0,0.0,0.0,4.3286,4.7553,5.1848,5.4308,5.4858,5.2747,5.1371,5.0765,4.7847,4.4674,0.0,0.0,0.0,0.0,0.0,0.0,0.0,0.0,0.0,0.0,0.0,0.0,0.0,0.0,0.0,0.0,0.0,0.0,0.0,0.0,0.0,0.0,0.0,0.0,0.0,0.0,0.0,0.0,3.2455,3.3642,3.5154,0.0,0.0,0.0,0.0,0.0,0.0,0.0,0.0,0.0,0.0,5.0206,5.1837,5.2075,5.2367,5.3171,5.3281,5.3116,5.2641,5.1545,4.9994,4.7731,0.0,0.0,0.0,0.0,0.0,0.0,0.0,0.0,0.0,0.0,0.0,0.0,0.0,0.0,0.0,0.0,0.0,0.0,0.0,0.0,0.0,0.0,0.0,0.0,0.0,0.0,0.0,2.5735,0.0,0.0,2.3575,0.0,0.0,0.0,0.0,0.0,0.0,0.0,0.0,0.0,0.0,0.0,0.0,0.0,0.0,0.0,0.0,0.0,0.0,0.0,0.0,0.0,0.0,4.348,4.5993,5.082,5.3259,5.3259,5.1683,5.0839,5.0765,4.836,4.5553,4.2306,0.0,0.0,0.0,0.0,0.0,0.0,0.0,0.0,0.0,0.0,0.0,0.0,0.0,0.0,0.0,0.0,0.0,0.0,0.0,0.0,0.0,0.0,0.0,0.0,0.0,0.0,3.2032,3.3802,3.5265,0.0,0.0,0.0,0.0,0.0,0.0,0.0,0.0,0.0,0.0,5.0035,5.1211,5.2928,5.3188,5.3484,5.4274,5.4381,5.3849,5.2383,5.3261,5.2931,0.0,0.0,0.0,0.0,0.0,0.0,0.0,0.0,0.0,0.0,0.0,0.0,0.0,0.0,0.0,0.0,0.0,0.0,0.0,0.0,0.0,0.0,0.0,0.0,0.0,0.0,0.0,3.2552,3.0107,0.0,0.0,0.0,0.0,0.0,0.0,0.0,0.0,0.0,0.0,0.0,4.0244,4.2161,0.0,0.0,0.0,0.0,0.0,0.0,0.0,0.0,0.0,0.0,0.0,0.0,4.4011,4.7498,5.1259,5.3463,5.3959,5.2417,5.1353,5.0802,4.8912,4.5883,4.1644,0.0,0.0,0.0,0.0,0.0,0.0,0.0,0.0,0.0,0.0,0.0,0.0,0.0,0.0,0.0,0.0,0.0,0.0,0.0,0.0,0.0,0.0,0.0,0.0,0.0,3.2708,0.0,0.0,0.0,0.0,0.0,0.0,0.0,0.0,0.0,0.0,0.0,4.8768,5.1502,5.2545,5.3459,5.4578,5.4746,5.5025,0.0,0.0,0.0,0.0,0.0,0.0,0.0,0.0,0.0,0.0,0.0,0.0,0.0,0.0,5.4979,5.0131,4.836,4.7698,4.7965,0.0,0.0,0.0,0.0,0.0,0.0,0.0,0.0,0.0,0.0,0.0,0.0,0.0,0.0,3.6261,0.0,3.385,0.0,0.0,0.0,0.0,0.0,0.0,0.0,0.0,4.2947,4.48,4.4892,4.6434,4.6361,0.0,4.4599,4.2249,0.0,0.0,0.0,0.0,0.0,0.0,0.0,0.0,4.4837,4.8269,5.1536,5.3463,5.3904,5.2674,5.161,5.0802,4.8912,4.6269,4.2873,4.1052,3.8933,0.0,0.0,0.0,0.0,0.0,0.0,0.0,0.0,0.0,0.0,0.0,0.0,0.0,0.0,0.0,0.0,0.0,0.0,0.0,0.0,0.0,0.0,0.0,3.4097,0.0,0.0,0.0,0.0,0.0,0.0,0.0,0.0,0.0,4.7777,4.9954,5.2238,5.4142,5.4835,5.538,5.587,0.0,0.0,0.0,0.0,0.0,0.0,0.0,5.4781,5.5534,5.4432,5.3757,5.4871,5.764,5.9479,5.8687,0.0,0.0,5.4515,5.2593,5.2001,5.2588,5.2765,5.2829,5.2774,5.3378,5.379,0.0,0.0,0.0,0.0,0.0,0.0,0.0,0.0,3.9481,3.9077,0.0,3.7297,0.0,0.0,0.0,0.0,0.0,4.0506,0.0,0.0,4.7609,4.9572,4.9629,4.9721,4.9739,4.9757,5.0435,4.9114,4.5792,4.0614,0.0,0.0,0.0,0.0,0.0,0.0,4.5975,4.8434,5.1552,5.3185,5.3185,5.2454,5.1646,5.0784,4.847,4.6801,4.592,4.4378,4.2103,3.893,3.6313,0.0,0.0,0.0,0.0,0.0,0.0,0.0,0.0,0.0,0.0,0.0,0.0,0.0,0.0,0.0,0.0,0.0,0.0,0.0,0.0,3.4156,0.0,0.0,0.0,0.0,0.0,0.0,0.0,0.0,0.0,0.0,5.0735,5.2823,5.511,5.6637,0.0,0.0,0.0,0.0,5.7182,5.8028,5.7446,5.724,5.8065,5.8725,5.8913,5.8362,0.0,0.0,5.8878,6.077,6.188,5.9696,6.1498,6.2727,6.1025,5.8102,5.6624,5.7989,5.7472,5.7219,5.8296,5.8844,5.9475,4.6503,0.0,0.0,0.0,0.0,4.3885,4.4947,4.6728,4.6562,4.5149,4.2965,4.2506,0.0,0.0,0.0,0.0,0.0,0.0,4.5608,4.7021,4.9352,5.0729,5.1373,5.2491,5.2729,5.2215,5.2986,5.1995,4.9407,4.7774,4.4121,3.8615,0.0,0.0,0.0,0.0,4.7626,5.005,5.2121,5.3185,5.3185,5.2986,5.2215,5.0839,4.9554,4.8214,4.6801,4.6305,4.458,4.1423,4.0001,0.0,0.0,0.0,0.0,0.0,0.0,0.0,0.0,0.0,0.0,0.0,0.0,0.0,0.0,0.0,0.0,0.0,0.0,0.0,3.511,3.6321,3.7854,0.0,0.0,0.0,0.0,0.0,0.0,0.0,0.0,0.0,5.6112,5.6862,5.7652,0.0,0.0,5.8413,5.8432,5.8432,5.8946,6.0369,6.0145,0.0,6.1327,6.0295,5.9872,6.1347,6.279,6.3485,6.2839,6.3951,6.4703,6.3988,6.4065,6.402,6.3548,6.2262,6.1343,6.172,6.1588,6.1454,6.1844,6.2119,6.2238,5.1683,4.8857,4.7131,4.7131,4.8269,4.7976,4.8838,5.0435,4.9867,4.8839,4.7572,4.6911,4.5094,4.247,4.1846,0.0,0.0,0.0,4.8398,5.0286,5.1298,5.2344,5.3466,5.4418,5.4638,5.4197,5.4638,5.4124,5.2711,5.238,4.9701,4.48,0.0,0.0,4.4727,4.6966,4.9132,5.1224,5.2546,5.3185,5.3185,5.2894,5.2105,5.0839,5.0033,4.8948,4.7645,4.7571,4.6544,4.4287,4.282,4.0506,0.0,0.0,0.0,0.0,0.0,0.0,0.0,0.0,0.0,0.0,0.0,3.2521,3.0808,0.0,0.0,0.0,3.4971,3.7339,3.9227,4.0649,0.0,0.0,0.0,0.0,0.0,0.0,0.0,5.4151,5.7021,5.9086,5.9718,6.0095,6.0269,6.0113,6.0102,5.9988,5.9685,0.0,6.0158,6.1524,6.1516,6.1857,6.3236,6.2323,6.2014,6.38,6.4588,6.5,6.5045,6.5545,6.5878,6.582,6.5455,6.5128,6.5109,6.4686,6.4205,6.3897,6.382,6.3935,6.4243,6.407,6.3916,5.582,5.5585,5.2645,5.1761,5.2197,5.1481,5.161,5.2142,5.071,5.0877,5.2068,5.0639,4.9499,4.86,4.7261,0.0,4.8838,4.9684,5.1279,5.3408,5.3369,5.4179,5.5596,5.5688,5.5706,5.5706,5.5761,5.5761,5.5655,5.4972,5.3815,5.2275,4.9298,4.805,4.8526,4.9353,5.0567,5.211,5.2842,5.3227,5.3209,5.2493,5.1685,5.0841,5.0033,4.917,4.8269,4.8141,4.7755,4.6893,4.48,4.2505,4.0063,0.0,0.0,0.0,0.0,0.0,0.0,0.0,0.0,0.0,0.0,0.0,0.0,0.0,0.0,0.0,3.9418,0.0,4.4248,4.6186,0.0,0.0,0.0,4.9466,5.1371,5.4442,5.6525,5.6705,0.0,0.0,6.1913,6.2576,6.2781,6.1927,6.176,6.1463,6.0786,6.0742,6.1056,6.2048,6.2138,6.2674,6.4195,6.4372,6.4592,6.5473,6.5793,6.5795,6.5827,6.5859,6.5878,6.5878,6.5878,6.5859,6.5878,6.5782,6.5667,6.4839,6.4705,6.4955,6.557,6.5205,6.4916,5.7615,5.7828,5.707,5.5974,5.4733,5.4549,5.4564,5.4696,5.4347,5.4051,5.3794,5.3427,5.2803,5.205,5.2598,5.2873,5.2986,5.3794,5.4454,5.5005,5.5042,5.5225,5.5651,5.6323,5.668,5.6698,5.7287,5.7313,5.683,5.6522,5.5896,5.4988,5.4177,5.2642,5.0408,5.1107,5.2068,5.3144,5.3326,5.3418,5.3418,5.3134,5.232,5.0904,5.0093,4.9008,4.7592,4.6948,4.6231,4.5385,4.4814,4.3382,4.0928,3.8198,0.0,0.0,0.0,0.0,0.0,0.0,0.0,0.0,0.0,3.8015,3.3523,0.0,3.9394,0.0,4.3981,4.6446,4.7384,4.8577,0.0,0.0,5.2911,5.4097,5.8501,5.8654,5.9168,6.1153,6.2318,6.3178,6.3674,6.3932,6.3989,6.3765,6.3152,6.2686,6.2489,6.2469,6.2795,6.3556,6.3742,6.4151,6.5071,6.54,6.5544,6.5821,6.5872,6.5885,6.5897,6.5878,6.5878,6.5878,6.5878,6.5878,6.5917,6.5878,6.5859,6.5647,6.557,6.5647,6.5859,6.5724,6.5647,5.8732,5.8912,5.8932,5.8311,5.7255,5.684,5.667,5.6631,5.6092,5.5727,5.5463,5.5463,5.5222,5.4852,5.5529,5.5716,5.552,5.5969,5.6296,5.648,5.6607,5.6792,5.7075,5.7693,5.8019,5.8038,5.8507,5.8548,5.8197,5.8101,5.784,5.747,5.7097,5.6033,5.4297,5.3602,5.3514,5.4016,5.3665,5.3499,5.3481,5.3088,5.2071,5.0449,4.9638,4.8458,4.6855,4.6375,4.5731,4.4849,4.4464,4.3471,4.1765,3.9553,3.7719,0.0,0.0,0.0,0.0,0.0,0.0,0.0,0.0,0.0,0.0,0.0,4.3028,4.4921,4.8464,5.1016,5.1939,5.3289,5.5218,5.7848,5.7622,5.8628,6.192,6.1786,6.1992,6.3464,6.3942,6.4359,6.4865,6.4983,6.503,6.503,6.4634,6.4052,6.3316,6.3149,6.3469,6.434,6.4494,6.4782,6.5607,6.5801,6.5878,6.5885,6.5878,6.5878,6.5878,6.5878,6.5878,6.5878,6.5878,6.6013,6.6359,6.6417,6.6417,6.6436,6.6436,6.6301,6.5974,6.5878,6.5878,5.932,5.9411,5.946,5.953,5.9507,5.8691,5.8287,5.8106,5.7061,5.68,5.7126,5.7178,5.716,5.7126,5.7228,5.7228,5.7126,5.7195,5.7449,5.7844,5.8071,5.8447,5.8909,5.9177,5.9339,5.9358,5.9391,5.9424,5.9443,5.9425,5.9425,5.9424,5.8742,5.8472,5.8467,5.6239,5.4902,5.4698,5.3973,5.362,5.3582,5.2746,5.1524,4.9898,4.8974,4.7772,4.6183,4.6141,4.579,4.5001,4.4391,4.3689,4.2855,4.0873,3.9757,0.0,3.9222,0.0,0.0,0.0,0.0,0.0,0.0,0.0,0.0,4.6184,4.7381,4.9212,5.2867,5.5595,5.6689,5.8515,6.0265,6.1691,6.1997,6.2368,6.3186,6.3953,6.4471,6.4548,6.52,6.5622,6.5616,6.5747,6.5807,6.5768,6.5744,6.5237,6.3937,6.3636,6.3969,6.4673,6.4782,6.5115,6.5712,6.5878,6.5897,6.5878,6.5878,6.5878,6.5878,6.5878,6.5878,6.5878,6.5878,6.6141,6.6853,6.6923,6.6923,6.6859,6.682,6.6615,6.6083,6.5878,6.5878,5.958,5.9877,5.9893,6.0063,6.0335,6.0168,5.9745,5.9129,5.8889,5.8851,5.8919,5.9257,5.9225,5.8955,5.9257,5.9241,5.8921,5.8919,5.896,5.9059,5.9112,5.9206,5.9304,5.9463,5.9532,5.9532,5.9549,5.9618,5.9704,5.9618,5.9618,5.9704,5.9571,5.9512,5.9452,0.0,0.0,0.0,5.4354,5.4159,5.4123,5.2995,5.1601,5.0009,4.8697,0.0,4.5745,4.5843,4.5908,4.58,4.6261,0.0,0.0,0.0,0.0,0.0,0.0,0.0,0.0,0.0,0.0,0.0,4.8788,4.7945,4.7499,5.1864,5.4507,5.4091,5.7345,5.9381,5.8969,6.0462,6.162,6.1947,6.2522,6.3225,6.4036,6.4304,6.4676,6.546,6.5684,6.5774,6.5827,6.5853,6.5885,6.5872,6.5897,6.5763,6.5423,6.5288,6.5442,6.5628,6.557,6.5667,6.5859,6.5878,6.5878,6.5878,6.5878,6.5878,6.5878,6.5878,6.5878,6.5878,6.5878,6.5961,6.6222,6.6196,6.6304,6.6237,6.6237,6.6136,6.5942,6.5878,6.5878,6.0165,0.0,6.039,6.0501,0.0,6.0704,6.0475,6.0069,5.9808,5.9696,5.9728,6.0127,6.0189,6.0004,6.0246,6.0213,5.9985,6.003,5.9954,5.9814,5.9924,5.9924,5.9814,6.0034,6.0141,6.0141,6.0165,6.0232,6.0279,6.0213,6.0232,6.0313,6.0293,6.0293,6.0255,5.9033,5.7201,5.4825,5.4639,5.4544,5.4506,5.3539,5.2221,5.0587,4.9431,0.0,0.0,0.0,0.0,0.0,0.0,0.0,0.0,0.0,0.0,4.6149,4.6312,4.6961,4.8195,4.9064,5.0715,5.3357,5.4346,5.3916,5.1866,5.5726,5.7993,5.7433,5.9461,6.08,6.0819,6.1565,6.2367,6.3174,6.363,6.418,6.4948,6.514,6.5326,6.5737,6.5865,6.584,6.5878,6.5878,6.5878,6.5878,6.5878,6.5878,6.5878,6.5878,6.5878,6.5878,6.5878,6.5878,6.5878,6.5878,6.5878,6.5878,6.5878,6.5878,6.5878,6.5878,6.591,6.5947,6.5947,6.6049,6.6552,6.6641,6.6653,6.6638,6.6638,6.6453,6.6085,6.5958,6.5958,6.071,6.071,6.0788,6.08,6.08,6.08,6.08,6.0757,0.0,0.0,0.0,6.05,6.0642,6.0642,6.0704,6.0692,6.0642,6.0685,6.0559,6.0313,6.0546,6.0514,6.0327,6.0591,6.0729,6.0729,6.0757,6.08,6.08,6.08,6.08,6.08,6.08,6.0723,6.0531,5.9858,5.808,5.5337,5.5118,5.5032,5.4861,5.4054,5.2883,5.1347,5.0523,4.9391,4.7909,4.8016,4.7769,4.7086,4.7181,4.7212,4.7079,4.7934,4.907,5.0481,5.1572,5.2558,5.3587,5.4453,5.5357,5.6299,5.8454,5.8781,5.653,5.8434,5.9723,5.9723,6.0396,6.1146,6.2005,6.2235,6.2916,6.4455,6.4743,6.5128,6.5782,6.5878,6.5859,6.5878,6.5897,6.5878,6.5878,6.5878,6.5878,6.5878,6.5878,6.5878,6.5878,6.5878,6.5878,6.5878,6.5878,6.5878,6.5878,6.5878,6.5878,6.5878,6.591,6.5923,6.5923,6.5933,6.5962,6.6044,6.6055,6.6364,6.6956,6.7045,6.7169,6.7179,6.7179,6.6966,6.6309,6.6107,6.6086,6.0788,6.0788,6.08,6.08,6.08,6.08,6.08,6.08,6.0722,6.0671,6.069,6.0765,6.0777,6.0777,6.0788,6.0788,6.0757,6.0788,6.0765,6.0722,6.0746,6.0746,6.0702,6.0777,6.0788,6.0788,6.08,6.08,6.08,6.08,6.08,6.08,6.08,6.0416,5.9742,5.9569,5.8573,5.6748,5.6403,5.5923,5.5236,5.4168,5.3134,5.2177,5.1586,5.0851,4.9946,5.0738,5.1207,5.1092,5.1783,5.186,5.113,5.1189,5.1421,5.169,5.2528,5.3703,5.5241,5.6175,5.7319,5.8838,5.9992,6.0127,5.9127,5.9973,6.0608,6.0608,6.0704,6.1158,6.2005,6.2704,6.3474,6.4474,6.5263,6.5782,6.5878,6.5878,6.5878,6.5878,6.5878,6.591,6.5903,6.5916,6.5909,6.5903,6.5926,6.5903,6.5909,6.5878,6.5878,6.5878,6.5878,6.5878,6.5921,6.591,6.5921,6.5878,6.5946,6.6005,6.6017,6.6086,6.6167,6.6195,6.6262,6.6414,6.6659,6.6627,6.6685,6.6737,6.6757,6.6653,6.6471,6.6478,6.6383,6.08,6.08,6.08,6.08,6.08,6.08,6.08,6.08,6.08,6.08,6.08,6.08,6.08,6.08,6.08,6.08,6.08,6.08,6.08,6.08,6.08,6.08,6.08,6.08,6.08,6.08,6.08,6.08,6.08,6.08,6.08,6.08,6.08,6.0589,6.0242,6.0204,5.9588,5.8357,5.7313,5.6371,5.5547,5.4999,5.4325,5.3515,5.3257,5.2727,5.1894,5.2344,5.2615,5.2596,5.2981,5.3029,5.2654,5.3472,5.3953,5.401,5.5241,5.6492,5.7684,5.8569,5.9377,6.0146,6.055,6.0665,6.0322,6.063,6.08,6.08,6.08,6.1166,6.2024,6.2839,6.3635,6.4493,6.5378,6.5878,6.5878,6.5878,6.5878,6.5891,6.5955,6.6005,6.6005,6.6056,6.6109,6.6119,6.6119,6.6109,6.6128,6.6109,6.6088,6.6039,6.6016,6.6063,6.6157,6.6158,6.6167,6.6176,6.6203,6.6212,6.6221,6.6283,6.6302,6.6358,6.6419,6.6482,6.6535,6.6555,6.656,6.6585,6.659,6.659,6.659,6.659,6.6521,6.0954,6.08,6.08,6.08,6.08,6.08,6.08,6.08,6.08,6.08,6.08,6.08,6.08,6.08,6.08,6.08,6.08,6.08,6.08,6.08,6.08,6.08,6.08,6.08,6.08,6.08,6.08,6.08,6.08,6.08,6.08,6.08,6.08,6.08,6.08,6.08,6.0358,5.9473,5.8223,5.7049,5.6041,5.6002,5.5607,5.4838,5.4761,5.4434,5.3799,5.378,5.378,5.378,5.3953,5.4049,5.4107,5.5472,5.628,5.6415,5.7723,5.8934,5.9723,6.0453,6.0842,6.0842,6.0877,6.0943,6.103,6.0944,6.089,6.089,6.0882,6.1248,6.2127,6.2946,6.3772,6.4621,6.5489,6.6005,6.6001,6.6001,6.599,6.5994,6.6077,6.6138,6.6167,6.6226,6.6272,6.6272,6.6295,6.6314,6.6322,6.6329,6.6275,6.6245,6.6194,6.6211,6.6378,6.6392,6.6379,6.6406,6.6406,6.6394,6.6406,6.6437,6.6477,6.6522,6.659,6.6635,6.6658,6.6686,6.6689,6.6674,6.6697,6.6689,6.6674,6.6674,6.6638,6.1512,6.0839,6.08,6.08,6.08,6.08,6.08,6.08,6.08,6.08,6.08,6.08,6.08,6.08,6.08,6.08,6.08,6.08,6.08,6.08,6.08,6.08,6.08,6.08,6.08,6.08,6.08,6.08,6.08,6.08,6.08,6.08,6.08,6.08,6.08,6.08,6.0377,5.9531,5.9338,5.8511,5.7003,5.6907,5.6464,5.5607,5.5607,5.5568,5.5453,5.5472,5.5472,5.553,5.6195,5.6637,5.6714,5.753,5.805,5.8069,5.8896,5.9762,6.0573,6.0864,6.0983,6.0983,6.1087,6.1162,6.1184,6.1177,6.1143,6.1162,6.1162,6.1508,6.2377,6.3196,6.4034,6.4801,6.5721,6.6267,6.6223,6.6248,6.6267,6.6248,6.6259,6.6291,6.6291,6.6329,6.6337,6.6366,6.6353,6.6379,6.6406,6.6426,6.6451,6.6507,6.6457,6.6386,6.6438,6.6406,6.6443,6.6437,6.6462,6.6496,6.6527,6.6604,6.6667,6.6687,6.6756,6.6828,6.6836,6.6875,6.6855,6.6836,6.6836,6.6855,6.6875,6.6855,6.6797,6.1908,6.1524,6.1012,6.08,6.08,6.08,6.08,6.08,6.08,6.08,6.08,6.08,6.08,6.08,6.08,6.08,6.08,6.08,6.08,6.08,6.08,6.08,6.08,6.08,6.08,6.08,6.08,6.08,6.08,6.08,6.08,6.08,6.08,6.08,6.08,6.08,6.0608,6.0281,6.0262,5.9685,5.8588,5.8011,5.7607,5.73,5.7242,5.7242,5.7223,5.7223,5.7242,5.7242,5.7588,5.7761,5.778,5.855,5.9011,5.9069,5.98,6.0465,6.0883,6.0974,6.1028,6.11,6.117,6.124,6.1359,6.1365,6.1412,6.1456,6.1322,6.1361,6.1808,6.2993,6.3964,6.445,6.5498,6.6295,6.6295,6.6295,6.6295,6.6314,6.6413,6.6477,6.6489,6.6546,6.66,6.6605,6.6585,6.6605,6.6631,6.6635,6.6684,6.6739,6.6729,6.6697,6.6678,6.6703,6.6684,6.6692,6.6719,6.6724,6.6738,6.6777,6.681,6.6816,6.6855,6.6894,6.6894,6.6894,6.6894,6.6894,6.6894,6.6894,6.6894,6.6894,6.6836,6.2627,6.23,6.1493,6.1012,6.08,6.08,6.08,6.08,6.08,6.08,6.08,6.08,6.08,6.08,6.08,6.08,6.08,6.08,6.08,6.08,6.08,6.08,6.08,6.08,6.08,6.08,6.08,6.08,6.08,6.08,6.08,6.08,6.08,6.08,6.08,6.08,6.08,6.0781,6.08,6.0492,5.9838,5.9281,5.8781,5.8357,5.8288,5.8288,5.8288,5.8288,5.8288,5.8288,5.8511,5.8627,5.8646,5.9415,5.9873,5.9948,6.0498,6.0922,6.1046,6.1106,6.1167,6.1272,6.1297,6.1392,6.1532,6.1549,6.1591,6.1643,6.1485,6.1345,6.1495,6.2916,6.387,6.4045,6.544,6.6393,6.6444,6.6432,6.6444,6.6464,6.6561,6.6653,6.6666,6.6727,6.6773,6.6776,6.68,6.6828,6.6838,6.6818,6.6842,6.6892,6.6892,6.6892,6.6893,6.6872,6.6894,6.6894,6.6875,6.6875,6.6894,6.6894,6.6894,6.6855,6.6894,6.6894,6.6894,6.6894,6.6894,6.6894,6.6894,6.6894,6.6894,6.6894,6.6894,6.3993,6.3147,6.2358,6.1485,6.08,6.08,6.08,6.08,6.08,6.08,6.08,6.08,6.08,6.08,6.08,6.08,6.08,6.08,6.08,6.08,6.08,6.08,6.08,6.08,6.08,6.08,6.08,6.08,6.08,6.08,6.08,6.08,6.08,6.08,6.08,6.08,6.08,6.08,6.08,6.0762,6.0704,6.0646,5.9838,5.8588,5.8346,5.8434,5.8377,5.8327,5.8346,5.8327,5.9069,5.9454,5.9511,6.0273,6.074,6.0877,6.0944,6.1055,6.1192,6.1361,6.1471,6.1495,6.1568,6.1668,6.1666,6.1668,6.1691,6.1698,6.1668,6.164,6.1796,6.3172,6.4197,6.4336,6.5747,6.6642,6.6762,6.673,6.6768,6.6762,6.6762,6.6784,6.679,6.6802,6.6811,6.6813,6.6857,6.6884,6.6889,6.689,6.6892,6.6894,6.6894,6.6894,6.6894,6.6894,6.6894,6.6894,6.6894,6.6894,6.6894,6.6894,6.6894,6.6894,6.6894,6.6894,6.6894,6.6894,6.6894,6.6894,6.6894,6.6894,6.6894,6.6894,6.6894,6.3782,6.2454,6.1627,6.1069,6.08,6.08,6.08,6.08,6.08,6.08,6.08,6.08,6.08,6.08,6.08,6.08,6.08,6.08,6.08,6.08,6.08,6.08,6.08,6.08,6.08,6.08,6.08,6.08,6.08,6.08,6.08,6.08,6.08,6.08,6.08,6.08,6.08,6.08,6.08,6.08,6.08,6.08,6.0473,5.9973,5.9896,5.9896,5.9896,5.9896,5.9915,5.9896,6.0165,6.0319,6.0369,6.0695,6.0983,6.112,6.1143,6.1192,6.1359,6.1446,6.1537,6.1605,6.1668,6.1698,6.1698,6.1698,6.1698,6.1698,6.1698,6.1698,6.2013,6.3262,6.4299,6.4514,6.5763,6.6798,6.6798,6.6798,6.6798,6.6798,6.6802,6.6809,6.6854,6.6859,6.686,6.686,6.6881,6.6906,6.689,6.6892,6.6893,6.6894,6.6894,6.6894,6.6894,6.6894,6.6894,6.6894,6.6894,6.6894,6.6894,6.6894,6.6894,6.6894,6.6894,6.6894,6.6894,6.6894,6.6894,6.6894,6.6894,6.6894,6.6894,6.6894,6.6894,6.3782,6.2454,6.157,6.105,6.08,6.08,6.08,6.08,6.08,6.08,6.08,6.08,6.08,6.08,6.08,6.08,6.08,6.08,6.08,6.08,6.08,6.08,6.08,6.08,6.08,6.08,6.08,6.08,6.08,6.08,6.08,6.08,6.08,6.08,6.08,6.08,6.08,6.08,6.08,6.08,6.08,6.08,6.08,6.0781,6.08,6.08,6.08,6.08,6.0808,6.0845,6.0856,6.088,6.0933,6.102,6.1136,6.1272,6.1298,6.139,6.1521,6.1573,6.1595,6.1696,6.1698,6.1698,6.1698,6.1698,6.1698,6.1698,6.1698,6.1698,6.2032,6.3262,6.4279,6.4514,6.5783,6.6778,6.6798,6.68,6.6805,6.6828,6.6832,6.6859,6.6902,6.6905,6.6906,6.6906,6.6889,6.6891,6.6893,6.6893,6.6893,6.6894,6.6894,6.6894,6.6894,6.6894,6.6894,6.6894,6.6894,6.6894,6.6894,6.6894,6.6894,6.6894,6.6894,6.6894,6.6894,6.6894,6.6894,6.6894,6.6894,6.6894,6.6894,6.6894,6.6894,6.4051,6.3166,6.2397,6.1473,6.0839,6.08,6.08,6.08,6.08,6.08,6.08,6.08,6.08,6.08,6.08,6.08,6.08,6.08,6.08,6.08,6.08,6.08,6.08,6.08,6.08,6.08,6.08,6.08,6.08,6.08,6.08,6.08,6.08,6.08,6.08,6.08,6.08,6.08,6.08,6.08,6.08,6.08,6.0812,6.0804,6.0816,6.0827,6.0827,6.0816,6.0877,6.0974,6.1002,6.1053,6.117,6.1206,6.1311,6.1452,6.151,6.1573,6.1668,6.1674,6.1671,6.1698,6.1698,6.1701,6.1703,6.1701,6.1703,6.1703,6.1703,6.1703,6.1937,6.3169,6.4204,6.4475,6.5802,6.6759,6.68,6.6807,6.6815,6.6862,6.6884,6.6884,6.6905,6.689,6.6892,6.6892,6.6893,6.6894,6.6894,6.6894,6.6894,6.6816,6.6816,6.6855,6.6875,6.6894,6.6894,6.6894,6.6894,6.6894,6.6894,6.6894,6.6894,6.6894,6.6894,6.6894,6.6894,6.6894,6.6894,6.6894,6.6894,6.6894,6.6894,6.6894,6.6894,6.3551,6.3147,6.1762,6.105,6.08,6.08,6.08,6.08,6.08,6.08,6.08,6.08,6.08,6.08,6.08,6.08,6.08,6.08,6.08,6.08,6.08,6.08,6.08,6.08,6.08,6.08,6.08,6.08,6.08,6.08,6.08,6.08,6.08,6.08,6.08,6.08,6.08,6.08,6.08,6.08,6.08,6.0781,6.0842,6.0923,6.0924,6.0983,6.1053,6.0983,6.1011,6.1143,6.1132,6.1206,6.1359,6.1401,6.149,6.1621,6.1634,6.1657,6.1693,6.1701,6.1701,6.1698,6.1698,6.1705,6.1711,6.1713,6.1715,6.1701,6.1702,6.1702,6.1898,6.2698,6.3613,6.4251,6.5792,6.6791,6.6856,6.6878,6.6884,6.6889,6.689,6.6891,6.6894,6.6894,6.6894,6.6894,6.6894,6.6894,6.6875,6.6797,6.6582,6.6172,6.6426,6.6562,6.6406,6.6504,6.6719,6.6836,6.6894,6.6894,6.6894,6.6894,6.6894,6.6894,6.6894,6.6894,6.6894,6.6894,6.6894,6.6894,6.6894,6.6894,6.6894,6.6894,6.6894,6.3128,6.2704,6.1358,6.08,6.08,6.08,6.08,6.08,6.08,6.08,6.08,6.08,6.08,6.08,6.08,6.08,6.08,6.08,6.08,6.08,6.08,6.08,6.08,6.08,6.08,6.08,6.08,6.08,6.08,6.08,6.08,6.08,6.08,6.08,6.08,6.08,6.08,6.08,6.08,6.0839,6.0869,6.0869,6.0953,6.11,6.1079,6.1159,6.1285,6.1225,6.1225,6.1304,6.1365,6.1466,6.1557,6.158,6.1621,6.1671,6.1703,6.1705,6.1701,6.1707,6.1709,6.1707,6.1709,6.1715,6.1701,6.1702,6.1705,6.1708,6.1708,6.1709,6.1826,6.249,6.3231,6.3738,6.5297,6.6411,6.6768,6.6888,6.689,6.6892,6.6893,6.6894,6.6894,6.6894,6.6894,6.6894,6.6894,6.668,6.6562,6.6387,6.5898,6.5469,6.543,6.5566,6.5703,6.6035,6.6484,6.6719,6.6894,6.6894,6.6894,6.6894,6.6894,6.6894,6.6894,6.6894,6.6894,6.6894,6.6894,6.6894,6.6894,6.6894,6.6894,6.6894,6.6894,6.2839,6.2024,6.1146,6.08,6.08,6.08,6.08,6.08,6.08,6.08,6.08,6.08,6.08,6.08,6.08,6.08,6.08,6.08,6.08,6.08,6.08,6.08,6.08,6.08,6.08,6.08,6.08,6.08,6.08,6.08,6.08,6.08,6.08,6.08,6.08,6.08,6.0823,6.0819,6.0804,6.0869,6.0999,6.0982,6.1087,6.1298,6.1253,6.1297,6.1476,6.1493,6.1493,6.1537,6.1605,6.1668,6.1698,6.1701,6.1679,6.1703,6.1713,6.1711,6.1709,6.1699,6.1705,6.1699,6.1704,6.1709,6.1709,6.1709,6.171,6.1711,6.1711,6.1711,6.1848,6.2336,6.2905,6.3317,6.4779,6.5971,6.6754,6.6892,6.6893,6.6894,6.6894,6.6894,6.6894,6.6894,6.6894,6.6875,6.6797,6.6348,6.5937,6.5625,6.5098,6.4805,6.457,6.4863,6.5117,6.5664,6.6152,6.6738,6.6894,6.6875,6.6894,6.6894,6.6894,6.6894,6.6894,6.6894,6.6894,6.6894,6.6894,6.6894,6.6894,6.6894,6.6894,6.6894,6.6894,6.2839,6.2024,6.1146,6.08,6.08,6.08,6.08,6.08,6.08,6.08,6.08,6.08,6.08,6.08,6.08,6.08,6.08,6.08,6.08,6.08,6.08,6.08,6.08,6.08,6.08,6.08,6.08,6.08,6.08,6.08,6.08,6.08,6.0812,6.0793,6.08,6.0812,6.0845,6.0902,6.0842,6.0953,6.1167,6.1084,6.1158,6.1417,6.1431,6.149,6.1644,6.1651,6.1649,6.1637,6.1686,6.1713,6.1713,6.1713,6.1715,6.1701,6.1699,6.1701,6.1702,6.1707,6.1708,6.1707,6.1709,6.171,6.1715,6.1715,6.1716,6.1717,6.1698,6.1699,6.1738,6.1933,6.2578,6.3847,6.4883,6.5879,6.668,6.6894,6.6894,6.6894,6.6894,6.6894,6.6894,6.6894,6.6894,6.6816,6.6406,6.5879,6.5469,6.4844,6.4336,6.3965,6.3828,6.4258,6.4687,6.5254,6.5898,6.666,6.6875,6.6855,6.6875,6.6894,6.6894,6.6894,6.6894,6.6894,6.6894,6.6894,6.6894,6.6894,6.6894,6.6894,6.6894,6.6894,6.6894,6.2627,6.1512,6.0993,6.08,6.08,6.08,6.08,6.08,6.08,6.08,6.08,6.08,6.08,6.08,6.08,6.08,6.08,6.08,6.08,6.08,6.08,6.08,6.08,6.08,6.08,6.08,6.08,6.08,6.08,6.08,6.08,6.0804,6.0864,6.0864,6.0812,6.0875,6.0904,6.0973,6.0944,6.1044,6.1342,6.1258,6.1335,6.1546,6.1601,6.1614,6.1691,6.171,6.1707,6.1704,6.1702,6.1702,6.1702,6.1702,6.1705,6.1709,6.1708,6.1709,6.1709,6.1712,6.1714,6.1714,6.1714,6.1716,6.1698,6.1698,6.1699,6.1699,6.1699,6.1699,6.1699,6.1699,6.2539,6.3945,6.4765,6.5586,6.6738,6.6894,6.6894,6.6894,6.6894,6.6894,6.6894,6.6894,6.6894,6.6738,6.6172,6.5586,6.5019,6.4277,6.3555,6.3144,6.3047,6.3398,6.3887,6.4433,6.539,6.6211,6.6308,6.6387,6.6562,6.664,6.6777,6.6777,6.6836,6.6894,6.6894,6.6894,6.6894,6.6894,6.6894,6.6894,6.6894,6.6894,6.6894,6.2332,6.0823,6.0823,6.0823,6.0823,6.0823,6.0835,6.0823,6.0823,6.0812,6.0812,6.0793,6.08,6.08,6.08,6.08,6.08,6.08,6.08,6.0816,6.0842,6.0867,6.0842,6.0823,6.08,6.08,6.08,6.08,6.0804,6.0804,6.0808,6.0867,6.0964,6.0954,6.0923,6.0983,6.1027,6.1092,6.1056,6.1195,6.1448,6.1478,6.1504,6.1649,6.1692,6.1692,6.1695,6.1714,6.1711,6.1711,6.171,6.171,6.171,6.171,6.1711,6.1711,6.1714,6.1714,6.1713,6.1717,6.1699,6.1718,6.1699,6.1699,6.1699,6.1699,6.1699,6.1699,6.1699,6.1699,6.1699,6.1699,6.2422,6.3691,6.4199,6.5117,6.6289,6.6836,6.6894,6.6894,6.6894,6.6894,6.6894,6.6894,6.6894,6.6816,6.6152,6.539,6.4668,6.3867,6.3008,6.2168,6.2246,6.25,6.3027,6.3574,6.4687,6.5625,6.5488,6.5547,6.5898,6.6094,6.6426,6.6543,6.6406,6.6562,6.6894,6.6894,6.6894,6.6894,6.6894,6.6894,6.6894,6.6894,6.6894,6.2477,6.0955,6.0955,6.0955,6.0974,6.0935,6.0955,6.0944,6.0911,6.0869,6.0869,6.0823,6.0823,6.0793,6.0827,6.08,6.0827,6.0808,6.08,6.0819,6.1037,6.1037,6.0954,6.0877,6.0804,6.0816,6.0793,6.0793,6.0819,6.0913,6.0954,6.0964,6.1087,6.1159,6.1136,6.1174,6.1305,6.137,6.1277,6.1354,6.1549,6.1566,6.1573,6.1699,6.1699,6.1699,6.1699,6.1699,6.1699,6.1698,6.1717,6.1716,6.1715,6.1716,6.1716,6.1717,6.1717,6.1717,6.1699,6.1699,6.1699,6.1699,6.1699,6.1699,6.1699,6.1699,6.1699,6.1699,6.1699,6.1699,6.1699,6.1699,6.2285,6.3164,6.3906,6.4668,6.5723,6.6504,6.6855,6.6894,6.6894,6.6894,6.6894,6.6894,6.6855,6.6777,6.6152,6.5273,6.4473,6.3672,6.2871,6.2129,6.2109,6.248,6.289,6.3398,6.4101,6.4765,6.4648,6.4609,6.4961,6.5039,6.5176,6.5488,6.582,6.6172,6.6738,6.6894,6.6894,6.6894,6.6894,6.6894,6.6894,6.6894,6.6719,6.2125,6.1025,6.1006,6.1006,6.1006,6.1006,6.1006,6.0987,6.0965,6.0955,6.0946,6.0941,6.0953,6.0962,6.0993,6.1011,6.0993,6.0983,6.0993,6.1019,6.114,6.1155,6.1112,6.1028,6.0983,6.0993,6.0993,6.0983,6.1001,6.1055,6.1095,6.1112,6.1253,6.1298,6.1285,6.1326,6.1437,6.1475,6.1428,6.1498,6.1654,6.1633,6.1609,6.168,6.1699,6.1699,6.1699,6.1699,6.1699,6.1699,6.1699,6.1699,6.1699,6.1699,6.1699,6.1699,6.1699,6.1699,6.1699,6.1699,6.1699,6.1699,6.1699,6.1699,6.1699,6.1699,6.1699,6.1699,6.1699,6.1699,6.1699,6.1699,6.2129,6.2812,6.3398,6.4219,6.539,6.6367,6.6894,6.6894,6.6894,6.6894,6.6894,6.6836,6.6875,6.6816,6.6211,6.541,6.5156,6.4336,6.3437,6.2773,6.2519,6.2598,6.2949,6.332,6.3633,6.3887,6.3711,6.3691,6.3828,6.3769,6.3672,6.4414,6.5312,6.6094,6.6601,6.6738,6.6758,6.6836,6.6836,6.6875,6.6836,6.6738,6.6445,6.1771,6.1018,6.1018,6.1039,6.105,6.106,6.1051,6.107,6.107,6.106,6.1051,6.1106,6.1112,6.1147,6.1211,6.1259,6.1233,6.1227,6.122,6.1206,6.1277,6.1309,6.1278,6.1285,6.1277,6.1265,6.1213,6.1192,6.1192,6.122,6.1266,6.1285,6.1437,6.1478,6.1422,6.1471,6.1546,6.1559,6.1542,6.1557,6.168,6.168,6.1699,6.1699,6.1699,6.1699,6.1699,6.1699,6.1699,6.1699,6.1699,6.1699,6.1699,6.1699,6.1699,6.1699,6.1699,6.1699,6.1699,6.1699,6.1699,6.1699,6.1699,6.1699,6.1699,6.1699,6.1699,6.1797,6.1836,6.1933,6.1758,6.1973,6.2305,6.2851,6.3086,6.3965,6.5273,6.6348,6.6816,6.6855,6.664,6.6504,6.664,6.6699,6.6797,6.6758,6.6152,6.5664,6.543,6.4883,6.3926,6.2949,6.2519,6.2207,6.248,6.2637,6.3027,6.3066,6.2869,6.2869,6.2848,6.277,6.2965,6.4119,6.5019,6.5566,6.5898,6.5879,6.6035,6.6484,6.6347,6.5916,6.6072,6.6461,6.605,6.1863,6.107,6.109,6.1143,6.1237,6.1244,6.1271,6.1309,6.1253,6.1265,6.1259,6.1259,6.1278,6.1278,6.1285,6.1297,6.1337,6.1383,6.1388,6.1363,6.146,6.1534,6.1479,6.1524,6.1573,6.1559,6.1437,6.1285,6.1297,6.1358,6.1426,6.1463,6.1588,6.1627,6.1629,6.1666,6.1649,6.1651,6.166,6.166,6.1699,6.1699,6.1699,6.1699,6.1699,6.1699,6.1699,6.1699,6.1699,6.1699,6.1699,6.1699,6.1699,6.1699,6.1699,6.1699,6.1699,6.1699,6.1699,6.1699,6.1699,6.1699,6.1699,6.1699,6.1699,6.1699,6.1699,6.1855,6.2207,6.2441,6.1797,6.2285,6.2754,6.3144,6.3672,6.4414,6.5449,6.623,6.6816,6.6855,6.6445,6.6152,6.6465,6.6601,6.6523,6.6699,6.6601,6.6133,6.582,6.5137,6.4199,6.3223,6.2305,6.2012,6.1855,6.1933,6.2109,6.2226,6.2162,6.2161,6.2101,6.1925,6.2375,6.3332,6.3881,6.418,6.4473,6.4898,6.5073,6.5329,6.5093,6.4818,6.5129,6.544,6.505,6.1577,6.1236,6.1235,6.1292,6.1348,6.1353,6.1362,6.1403,6.1359,6.1354,6.1369,6.1411,6.1443,6.1467,6.1504,6.1511,6.153,6.1568,6.1568,6.1543,6.1633,6.1684,6.1605,6.1684,6.1687,6.1683,6.1568,6.1487,6.1479,6.1543,6.1598,6.1625,6.1687,6.1713,6.1714,6.1697,6.1699,6.1699,6.1699,6.1699,6.1699,6.1699,6.1699,6.1699,6.1699,6.1699,6.1699,6.1699,6.1699,6.1699,6.1699,6.1699,6.1699,6.1699,6.1699,6.1699,6.1699,6.1699,6.1699,6.1699,6.1699,6.1699,6.1699,6.1699,6.1699,6.1699,6.1699,6.1816,6.1953,6.2383,6.2383,6.2793,6.3164,6.3652,6.4101,6.4707,6.543,6.5996,6.6445,6.6758,6.623,6.6113,6.6562,6.6562,6.6308,6.6465,6.6816,6.6601,6.6211,6.5409,6.453,6.3333,6.2391,6.1998,6.1758,6.1717,6.186,6.1881,6.1705,6.1704,6.1702,6.1701,6.1795,6.2301,6.2656,6.3132,6.3857,6.4543,6.4386,6.4228,6.4287,6.4326,6.4341,6.4281,6.3967,6.1311,6.1324,6.1378,6.1402,6.1439,6.1443,6.1456,6.1444,6.1471,6.1474,6.1474,6.1579,6.1612,6.1633,6.1668,6.1695,6.1712,6.1692,6.1671,6.167,6.1692,6.1712,6.1712,6.1712,6.1713,6.1714,6.1694,6.1715,6.1663,6.1669,6.1692,6.1691,6.1696,6.1717,6.1698,6.1699,6.1699,6.1699,6.1699,6.1699,6.1699,6.1699,6.1699,6.1699,6.1699,6.1699,6.1699,6.1699,6.1699,6.1699,6.1699,6.1699,6.1699,6.1699,6.1699,6.1699,6.1699,6.1699,6.1699,6.1699,6.1699,6.1699,6.1699,6.1699,6.1699,6.1699,6.1699,6.1719,6.2012,6.2324,6.2793,6.3164,6.3711,6.4316,6.4629,6.4902,6.5625,6.6172,6.6426,6.6406,6.5937,6.6094,6.6562,6.6348,6.6055,6.6543,6.6894,6.6894,6.6461,6.5777,6.4818,6.3476,6.2547,6.2076,6.1835,6.1732,6.1978,6.2264,6.193,6.1713,6.1711,6.1709,6.18,6.1854,6.2141,6.2695,6.3461,6.3795,6.338,6.3263,6.3618,6.3637,6.3318,6.3217,6.308,6.1393,6.1374,6.1408,6.146,6.1573,6.1576,6.16,6.166,6.166,6.1658,6.164,6.168,6.168,6.168,6.1699,6.1699,6.1699,6.1699,6.1699,6.1699,6.1699,6.1699,6.1699,6.1699,6.1699,6.1699,6.1699,6.1717,6.1714,6.1717,6.1698,6.1717,6.1698,6.1699,6.1699,6.1699,6.1699,6.1699,6.1699,6.1699,6.1699,6.1699,6.1699,6.1699,6.1699,6.1699,6.1699,6.1699,6.1699,6.1699,6.1699,6.1699,6.1699,6.1699,6.1699,6.1699,6.1699,6.1699,6.1699,6.1699,6.1699,6.1699,6.1699,6.1699,6.1699,6.1699,6.1719,6.1738,6.2265,6.2832,6.3164,6.3711,6.4473,6.5078,6.5469,6.5859,6.6424,6.6385,6.6637,6.6422,6.607,6.6227,6.6562,6.6152,6.5879,6.6465,6.6885,6.6885,6.655,6.5746,6.4904,6.3533,6.2668,6.2196,6.2079,6.1958,6.2075,6.2502,6.2053,6.164,6.1589,6.1579,6.1643,6.1741,6.1947,6.1981,6.2362,6.2424,6.2147,6.2293,6.267,6.2432,6.1976,6.2013,6.2286,6.1537,6.1527,6.1562,6.1602,6.1653,6.1654,6.1657,6.1699,6.1699,6.1699,6.1699,6.1699,6.1699,6.1699,6.1699,6.1699,6.1699,6.1699,6.1699,6.1699,6.1699,6.1699,6.1699,6.1699,6.1699,6.1699,6.1699,6.1699,6.1699,6.1699,6.1699,6.1699,6.1699,6.1699,6.1699,6.1699,6.1699,6.1699,6.1699,6.1699,6.1699,6.1699,6.1699,6.1699,6.1699,6.1699,6.1699,6.1699,6.1699,6.1699,6.1699,6.1699,6.1699,6.1699,6.1699,6.1699,6.1699,6.1699,6.1699,6.1699,6.1699,6.1699,6.1699,6.1699,6.1699,6.1699,6.1699,6.1719,6.2012,6.2637,6.3476,6.4061,6.5057,6.5779,6.6189,6.6402,6.6732,6.6811,6.6789,6.6495,6.6201,6.6162,6.6104,6.5811,6.5694,6.6279,6.6685,6.682,6.6219,6.5295,6.4419,6.3473,6.2807,6.2289,6.2308,6.2289,6.2223,6.2366,6.1767,6.145,6.1392,6.1402,6.1461,6.1432,6.148,6.1485,6.1447,6.1619,6.1813,6.1788,6.1718,6.1666,6.1634,6.171,6.1905,6.1677,6.1624,6.1678,6.1699,6.1699,6.1699,6.1699,6.1699,6.1699,6.1699,6.1699,6.1699,6.1699,6.1699,6.1699,6.1699,6.1699,6.1699,6.1699,6.1699,6.1699,6.1699,6.1699,6.1699,6.1699,6.1699,6.1699,6.1699,6.1699,6.1699,6.1699,6.1699,6.1699,6.1699,6.1699,6.1699,6.1699,6.1699,6.1699,6.1699,6.1699,6.1699,6.1699,6.1699,6.1699,6.1699,6.1699,6.1699,6.1699,6.1699,6.1699,6.1699,6.1699,6.1699,6.1699,6.1699,6.1699,6.1699,6.1699,6.1699,6.1699,6.1699,6.1699,6.1699,6.1699,6.1699,6.1699,6.1699,6.1758,6.2676,6.3786,6.4273,6.519,6.6086,6.6788,6.6863,6.6842,6.6706,6.6507,6.617,6.5837,6.5507,6.5428,6.5294,6.551,6.6076,6.6426,6.6633,6.5855,6.4816,6.3934,6.3048,6.2358,6.2032,6.2312,6.2389,6.2397,6.2218,6.1624,6.1303,6.1253,6.1246,6.1278,6.122,6.1165,6.122,6.1328,6.1456,6.1572,6.1526,6.1485,6.153,6.1537,6.1579,6.1576,6.1699,6.1699,6.1699,6.1699,6.1699,6.1699,6.1699,6.1699,6.1699,6.1699,6.1699,6.1699,6.1699,6.1699,6.1699,6.1699,6.1699,6.1699,6.1699,6.1699,6.1699,6.1699,6.1699,6.1699,6.1699,6.1699,6.1699,6.1699,6.1699,6.1699,6.1699,6.1699,6.1699,6.1699,6.1699,6.1699,6.1699,6.1699,6.1699,6.1699,6.1699,6.1699,6.1699,6.1699,6.1699,6.1699,6.1699,6.1699,6.1699,6.1699,6.1699,6.1699,6.1699,6.1699,6.1699,6.1699,6.1699,6.1699,6.1699,6.1699,6.1699,6.1699,6.1699,6.1699,6.1699,6.1718,6.1717,6.1717,6.1715,6.2494,6.3585,6.4444,6.493,6.5708,6.6213,6.6231,6.6229,6.6325,6.6106,6.5804,6.5353,6.4809,6.4543,6.4364,6.4598,6.5148,6.5585,6.5785,6.5187,6.4228,6.3422,6.2583,6.1774,6.162,6.2094,6.2181,6.2103,6.1974,6.1602,6.1322,6.1174,6.1155,6.11,6.1116,6.1076,6.1128,6.1165,6.1232,6.1272,6.1259,6.1279,6.1345,6.134,6.1334,6.1328,6.1699,6.1699,6.1699,6.1699,6.1699,6.1699,6.1699,6.1699,6.1699,6.1699,6.1699,6.1699,6.1699,6.1699,6.1699,6.1699,6.1699,6.1699,6.1699,6.1699,6.1699,6.1699,6.1699,6.1699,6.1699,6.1699,6.1699,6.1699,6.1699,6.1699,6.1699,6.1699,6.1699,6.1699,6.1699,6.1699,6.1699,6.1699,6.1699,6.1699,6.1699,6.1699,6.1699,6.1699,6.1699,6.1699,6.1699,6.1699,6.1699,6.1699,6.1699,6.1699,6.1699,6.1699,6.1699,6.1699,6.1699,6.1699,6.1699,6.1699,6.1699,6.1698,6.1699,6.1717,6.1716,6.1713,6.1712,6.1711,6.171,6.239,6.3167,6.3538,6.3927,6.4878,6.5384,6.5462,6.5518,6.5614,6.5379,6.4924,6.4292,6.3681,6.352,6.3378,6.3729,6.4135,6.4574,6.4821,6.4318,6.372,6.2925,6.2394,6.1657,6.1413,6.1867,6.1887,6.178,6.1649,6.1505,6.1263,6.101,6.0944,6.0913,6.0944,6.0974,6.0974,6.0974,6.0964,6.1002,6.1095,6.1162,6.1207,6.1172,6.1108,6.1108,6.1699,6.1699,6.1699,6.1699,6.1699,6.1699,6.1699,6.1699,6.1699,6.1699,6.1699,6.1699,6.1699,6.1699,6.1699,6.1699,6.1699,6.1699,6.1699,6.1699,6.1699,6.1699,6.1699,6.1699,6.1699,6.1699,6.1699,6.1699,6.1699,6.1699,6.1699,6.1699,6.1699,6.1699,6.1699,6.1699,6.1699,6.1699,6.1699,6.1699,6.1699,6.1699,6.1699,6.1699,6.1699,6.1699,6.1699,6.1699,6.1699,6.1699,6.1699,6.1699,6.1699,6.1699,6.1699,6.1699,6.1699,6.1699,6.1699,6.1699,6.1698,6.1716,6.1715,6.1713,6.171,6.1707,6.1707,6.1705,6.1743,6.2051,6.2844,6.3137,6.3546,6.4518,6.4675,6.4753,6.4711,6.475,6.4379,6.3984,6.3422,6.2976,6.2498,6.2449,6.3033,6.3313,6.3482,6.3856,6.3893,6.3255,6.2516,6.2062,6.1697,6.1605,6.167,6.1485,6.1326,6.1288,6.1139,6.1018,6.0842,6.08,6.08,6.0845,6.0856,6.0804,6.0827,6.0867,6.0953,6.1048,6.1064,6.1053,6.1019,6.0954,6.0983,6.1699,6.1699,6.1699,6.1699,6.1699,6.1699,6.1699,6.1699,6.1699,6.1699,6.1699,6.1699,6.1699,6.1699,6.1699,6.1699,6.1699,6.1699,6.1699,6.1699,6.1699,6.1699,6.1699,6.1699,6.1699,6.1699,6.1699,6.1699,6.1699,6.1699,6.1699,6.1699,6.1699,6.1699,6.1699,6.1699,6.1699,6.1699,6.1699,6.1699,6.1699,6.1699,6.1699,6.1699,6.1699,6.1699,6.1699,6.1699,6.1699,6.1699,6.1699,6.1699,6.1699,6.1699,6.1699,6.1699,6.1718,6.1717,6.1716,6.1717,6.1714,6.171,6.1709,6.1708,6.1707,6.1702,6.1717,6.1717,6.1711,6.2076,6.2598,6.2969,6.3382,6.3616,6.375,6.3789,6.3711,6.3691,6.3321,6.3045,6.2848,6.2499,6.1815,6.1557,6.2253,6.2566,6.2555,6.2723,6.2974,6.2671,6.1874,6.1666,6.1396,6.132,6.1204,6.1012,6.087,6.0858,6.0858,6.0819,6.08,6.08,6.08,6.08,6.08,6.08,6.08,6.0793,6.0877,6.0923,6.0877,6.0856,6.0819,6.0842,6.0888,6.1699,6.1699,6.1699,6.1699,6.1699,6.1699,6.1699,6.1699,6.1699,6.1699,6.1699,6.1699,6.1699,6.1699,6.1699,6.1699,6.1699,6.1699,6.1699,6.1699,6.1699,6.1699,6.1699,6.1699,6.1699,6.1699,6.1699,6.1699,6.1699,6.1699,6.1699,6.1699,6.1699,6.1699,6.1699,6.1699,6.1699,6.1699,6.1699,6.1699,6.1699,6.1699,6.1699,6.1699,6.1699,6.1699,6.1699,6.1699,6.168,6.168,6.168,6.166,6.1677,6.1677,6.1697,6.1695,6.1711,6.171,6.1708,6.1705,6.1705,6.1702,6.1701,6.1699,6.1711,6.1709,6.1705,6.1705,6.1703,6.1954,6.2052,6.213,6.2345,6.2325,6.2403,6.2423,6.2384,6.2401,6.224,6.2075,6.1885,6.1778,6.1314,6.11,6.1601,6.1747,6.1706,6.1597,6.1745,6.1627,6.1131,6.1112,6.0973,6.0896,6.08,6.08,6.08,6.0819,6.0819,6.08,6.08,6.08,6.08,6.08,6.08,6.08,6.08,6.08,6.08,6.0793,6.08,6.08,6.0804,6.0804,6.0816,6.1699,6.1699,6.1699,6.1699,6.1699,6.1699,6.1699,6.1699,6.1699,6.1699,6.1699,6.1699,6.1699,6.1699,6.1699,6.1699,6.1699,6.1699,6.1699,6.1699,6.1699,6.1699,6.1699,6.1699,6.1699,6.1699,6.1699,6.1699,6.1699,6.1699,6.1699,6.1699,6.1699,6.1699,6.1699,6.1699,6.1699,6.1699,6.1699,6.1699,6.1699,6.1699,6.1699,6.1699,6.168,6.166,6.164,6.163,6.1603,6.1582,6.1561,6.1557,6.1571,6.1596,6.1618,6.1635,6.1681,6.1699,6.1715,6.1711,6.1711,6.1711,6.1711,6.1707,6.1701,6.1701,6.1701,6.1701,6.1698,6.1718,6.1718,6.1698,6.1698,6.1718,6.1699,6.1754,6.1719,6.1774,6.1697,6.1475,6.135,6.1158,6.1021,6.0932,6.1026,6.0954,6.085,6.08,6.08,6.08,6.08,6.08,6.0819,6.08,6.08,6.08,6.08,6.08,6.08,6.08,6.08,6.08,6.08,6.08,6.08,6.08,6.08,6.08,6.08,6.08,6.08,6.08,6.08,6.08,6.08,6.1699,6.1699,6.1699,6.1699,6.1699,6.1699,6.1699,6.1699,6.1699,6.1699,6.1699,6.1699,6.1699,6.1699,6.1699,6.1699,6.1699,6.1699,6.1699,6.1699,6.1699,6.1699,6.1699,6.1699,6.1699,6.1699,6.1699,6.1699,6.1699,6.1699,6.1699,6.1699,6.168,6.168,6.166,6.164,6.166,6.168,6.168,6.168,6.168,6.166,6.164,6.161,6.158,6.1564,6.1529,6.1485,6.1404,6.1378,6.134,6.1334,6.1363,6.1431,6.146,6.1504,6.159,6.1627,6.1621,6.1612,6.1666,6.1643,6.1668,6.1693,6.1698,6.1698,6.1698,6.1698,6.1698,6.1698,6.1698,6.1698,6.1676,6.1654,6.1596,6.1552,6.1476,6.1415,6.1324,6.1196,6.109,6.0964,6.0899,6.0793,6.08,6.08,6.08,6.08,6.08,6.08,6.08,6.08,6.08,6.08,6.08,6.08,6.08,6.08,6.08,6.08,6.08,6.08,6.08,6.08,6.08,6.08,6.08,6.08,6.08,6.08,6.08,6.08,6.08,6.08,6.08,6.1699,6.1699,6.1699,6.1699,6.1699,6.1699,6.1699,6.1699,6.1699,6.1699,6.1699,6.1699,6.1699,6.1699,6.1699,6.1699,6.1699,6.1699,6.1699,6.1699,6.1699,6.1699,6.1699,6.1699,6.1699,6.1699,6.1699,6.1699,6.1699,6.1699,6.166,6.164,6.1621,6.1568,6.1529,6.1488,6.1577,6.1632,6.1608,6.1603,6.1573,6.1537,6.1507,6.1488,6.1451,6.1443,6.1378,6.1335,6.1287,6.1289,6.1295,6.1303,6.1324,6.1348,6.1345,6.1283,6.1326,6.1351,6.1345,6.1345,6.1402,6.1517,6.1549,6.1625,6.1663,6.1691,6.1671,6.164,6.1634,6.1609,6.1609,6.1609,6.1576,6.1517,6.1452,6.1379,6.1311,6.1218,6.1108,6.1046,6.0934,6.088,6.0793,6.08,6.08,6.08,6.08,6.0788,6.08,6.0788,6.08,6.08,6.08,6.08,6.08,6.08,6.08,6.08,6.08,6.08,6.08,6.08,6.08,6.08,6.08,6.08,6.08,6.08,6.08,6.08,6.08,6.08,6.08,6.08,6.08,6.1699,6.1699,6.1699,6.1699,6.1699,6.1699,6.1699,6.1699,6.1699,6.1699,6.1699,6.1699,6.1699,6.1699,6.1699,6.1699,6.1699,6.1699,6.1699,6.1699,6.1699,6.1699,6.1699,6.1699,6.1699,6.1699,6.1677,6.166,6.1633,6.1582,6.1557,6.1514,6.1504,6.1452,6.1402,6.1393,6.1424,6.1485,6.1498,6.1501,6.1448,6.1393,6.1374,6.1342,6.1326,6.1265,6.1234,6.1194,6.1182,6.1155,6.1147,6.1103,6.1134,6.1131,6.1225,6.1179,6.1214,6.122,6.122,6.1214,6.1285,6.1342,6.139,6.1417,6.1485,6.153,6.1498,6.147,6.147,6.1474,6.1493,6.1493,6.1437,6.137,6.1311,6.1225,6.1151,6.1062,6.0983,6.0923,6.0847,6.0796,6.0769,6.0769,6.0757,6.0722,6.0697,6.071,6.0753,6.0777,6.0788,6.08,6.08,6.08,6.08,6.0788,6.0788,6.0788,6.08,6.08,6.08,6.08,6.08,6.08,6.08,6.08,6.0788,6.08,6.08,6.08,6.08,6.08,6.08,6.08,6.08,6.1699,6.1699,6.1699,6.1699,6.1699,6.1699,6.1699,6.1699,6.1699,6.1699,6.1699,6.1699,6.1699,6.1699,6.1699,6.1699,6.1699,6.1699,6.1699,6.1699,6.1699,6.1699,6.168,6.168,6.166,6.164,6.1624,6.1559,6.1546,6.1481,6.1424,6.1379,6.1334,6.127,6.1259,6.1007,6.1,6.1214,6.1116,6.1012,6.1232,6.1285,6.1253,6.124,6.1162,6.1079,6.1055,6.1032,6.0974,6.0933,6.0903,6.0864,6.088,6.0933,6.1046,6.1076,6.1092,6.1092,6.1084,6.1103,6.1132,6.1189,6.1192,6.1206,6.1272,6.1376,6.1376,6.134,6.132,6.132,6.134,6.1334,6.1298,6.1232,6.1171,6.1072,6.0954,6.0894,6.0836,6.0785,6.0762,6.0729,6.0697,6.0717,6.0685,6.0635,6.0642,6.0648,6.068,6.0717,6.0741,6.0765,6.0753,6.0741,6.0741,6.0741,6.0765,6.0777,6.0788,6.08,6.08,6.08,6.08,6.0777,6.0753,6.0777,6.0777,6.0777,6.0777,6.08,6.08,6.08,6.08,6.08,6.08,6.1699,6.1699,6.1699,6.1699,6.1699,6.1699,6.168,6.1699,6.1699,6.1621,6.1699,6.168,6.1699,6.1699,6.1699,6.1699,6.1699,6.1699,6.1699,6.1601,6.1582,6.1348,6.1507,6.1287,6.141,6.1485,6.1456,6.1229,6.1125,6.1169,6.1211,6.1161,6.1022,6.0853,6.0784,6.0448,6.0303,6.0634,6.0333,6.042,6.0814,6.1008,6.106,6.107,6.1002,6.0973,6.0951,6.0929,6.088,6.0846,6.0823,6.0823,6.0804,6.0831,6.0856,6.089,6.0933,6.0924,6.0924,6.0944,6.0993,6.1019,6.1055,6.1046,6.1087,6.1211,6.1259,6.1206,6.1165,6.1165,6.1158,6.1162,6.114,6.1062,6.1011,6.0894,6.0781,6.0726,6.0667,6.0655,6.0655,6.0655,6.0642,6.0629,6.061,6.0617,6.0617,6.0617,6.0604,6.0629,6.0629,6.0642,6.0655,6.0642,6.0667,6.068,6.0704,6.0729,6.0729,6.0734,6.0788,6.0765,6.0729,6.0717,6.0704,6.0717,6.0729,6.0729,6.0741,6.0746,6.0765,6.0753,6.0765,6.0765,6.0788,6.0605,6.0586,6.0586,6.0586,6.0586,6.0586,6.0586,6.0586,6.0524,6.0502,6.0699,6.1269,6.1699,6.168,6.1699,6.1579,6.1577,6.166,6.1289,6.1113,6.0973,6.0625,6.0603,6.0516,6.0269,6.0272,6.0208,6.0116,6.0255,6.0039,5.9917,6.0029,5.9976,5.992,5.9798,5.9363,5.9293,5.9675,5.9241,5.9433,6.0104,6.0399,6.0825,6.0903,6.0872,6.0861,6.0869,6.0858,6.0835,6.0812,6.0812,6.08,6.0781,6.0804,6.0793,6.0804,6.0816,6.08,6.08,6.0804,6.085,6.089,6.0902,6.0902,6.086,6.0954,6.0983,6.0945,6.0915,6.0925,6.0885,6.0895,6.0864,6.0806,6.0773,6.0712,6.0678,6.066,6.0629,6.0649,6.0617,6.0604,6.0591,6.0604,6.0578,6.0512,6.0525,6.0539,6.0525,6.0539,6.0539,6.0539,6.0552,6.061,6.0636,6.0629,6.0642,6.0655,6.0667,6.068,6.0692,6.068,6.0635,6.0623,6.0642,6.0642,6.0655,6.0667,6.0667,6.066,6.0692,6.0704,6.0717,6.0729,6.0729,5.9238,5.918,5.918,5.918,5.916,5.918,5.9219,5.9214,5.9076,5.9058,5.9297,6.0653,6.1267,6.1348,6.1348,6.1308,6.1139,6.08,6.049,6.0212,6.0059,5.9798,5.9395,5.9026,5.9133,5.9104,5.9024,5.8894,5.8864,5.8808,5.878,5.8432,5.8342,5.8319,5.8269,5.8209,5.833,5.8503,5.8388,5.8292,5.8907,5.9665,6.0196,6.0485,6.0627,6.0685,6.0723,6.0781,6.0781,6.0781,6.08,6.08,6.08,6.08,6.08,6.08,6.08,6.08,6.08,6.0781,6.0812,6.0812,6.0788,6.0777,6.0741,6.0722,6.0746,6.0746,6.0702,6.0702,6.0678,6.0685,6.0635,6.061,6.0597,6.0597,6.0591,6.0578,6.0578,6.0565,6.0552,6.052,6.0539,6.0552,6.0512,6.0444,6.0417,6.0417,6.0431,6.0458,6.0458,6.0472,6.0504,6.0545,6.0565,6.0565,6.0552,6.0578,6.0591,6.0591,6.0591,6.0591,6.0591,6.0572,6.0559,6.0565,6.0578,6.0591,6.0572,6.0585,6.0629,6.0674,6.0661,6.0655,6.0649,5.9019,5.8959,5.8939,5.892,5.8923,5.8923,5.8959,5.8939,5.887,5.8917,5.8878,5.9061,5.9427,5.9427,5.9414,5.9529,5.9822,5.9693,5.9482,5.917,5.9104,5.8932,5.864,5.8214,5.8581,5.8467,5.8278,5.8412,5.796,5.8084,5.8275,5.8119,5.8201,5.8149,5.808,5.7857,5.7473,5.7627,5.7569,5.7453,5.803,5.8684,5.9108,5.9435,5.9742,6.0204,6.055,6.0762,6.08,6.08,6.0723,6.0685,6.0704,6.0723,6.08,6.0788,6.0788,6.0757,6.0757,6.0777,6.0765,6.0729,6.0717,6.0692,6.0667,6.0629,6.0635,6.0623,6.061,6.061,6.0617,6.0617,6.0591,6.0578,6.0546,6.0539,6.0525,6.0485,6.0458,6.0458,6.0458,6.0444,6.0444,6.0458,6.0458,6.0403,6.0403,6.0403,6.0417,6.0403,6.0403,6.0417,6.0464,6.0431,6.0431,6.0458,6.0472,6.0499,6.0525,6.0525,6.0539,6.0539,6.0525,6.0525,6.0499,6.0472,6.0485,6.0525,6.0539,6.0565,6.0591,6.0623,6.061,6.0578,6.0552]}]]